GFSMA_700_rhum_000.txt.gz
RH
28 28 29 30 29 30 27 23 23 25 26 26 28 30 32 32 30 22 16 13 12 11 11 10 12 12 17 61 64 74 74 84 83 83 70 61 56 56 51 46 46 46 44
28 30 31 31 30 29 27 28 29 29 31 33 32 28 20 12 6 4 4 5 5 5 6 6 6 6 8 25 65 79 84 80 82 82 78 84 79 74 68 63 67 62 50
31 32 31 31 30 31 31 30 34 36 32 21 7 4 5 5 5 5 5 5 5 5 6 6 8 8 10 12 34 72 76 85 76 81 85 87 85 90 86 85 76 72 77
33 31 31 32 32 32 33 37 33 20 6 3 4 6 6 5 5 5 5 5 5 6 7 7 7 6 5 6 9 14 16 22 67 67 72 85 86 88 86 94 86 83 78
32 31 33 33 34 39 37 26 12 2 3 6 6 6 6 5 5 5 5 5 6 6 5 5 5 4 4 5 5 4 3 3 4 4 12 42 73 82 87 94 88 87 85
32 34 37 42 41 34 22 8 2 7 8 8 7 6 5 5 5 6 7 7 6 6 5 5 4 4 4 4 4 3 3 3 3 3 3 4 10 23 32 49 54 79 75
35 44 45 39 32 19 4 5 9 9 8 7 6 6 5 7 7 8 8 7 7 6 6 6 6 6 6 6 6 6 6 5 5 5 5 5 5 5 5 5 4 9 38
48 46 40 29 11 4 8 10 10 8 7 7 8 8 8 9 8 9 9 8 8 7 7 7 7 7 7 7 8 8 8 8 7 7 7 7 7 6 6 5 5 5 4
49 42 28 12 6 8 10 10 10 10 8 7 7 8 8 10 11 10 9 9 9 9 8 8 8 8 9 9 10 10 10 10 10 10 10 9 8 7 6 6 5 4 4
41 28 15 8 7 8 10 10 10 10 9 8 8 8 9 9 9 10 10 10 10 10 9 9 9 10 10 10 12 13 14 14 12 12 10 8 7 6 6 6 6 12 38
28 18 10 7 7 8 10 10 11 10 10 9 9 10 10 10 11 11 10 10 10 10 10 10 10 9 10 11 13 15 15 14 12 10 7 5 4 4 5 27 44 33 50
25 16 11 8 8 10 11 11 12 11 11 11 12 12 12 12 11 11 11 11 12 11 12 11 10 9 9 10 11 13 14 12 11 9 8 6 4 4 4 4 42 93 94
29 24 16 11 10 12 13 13 12 12 12 13 14 14 14 15 16 16 15 13 12 11 11 11 9 8 8 9 10 10 10 9 9 8 6 5 5 5 6 6 16 99 99
42 32 20 13 13 14 14 14 14 13 14 15 15 15 15 17 18 18 18 16 12 11 10 11 9 8 8 9 10 9 8 8 7 7 6 7 8 9 9 8 56 100 100
52 42 26 17 16 16 15 15 14 15 16 16 16 16 17 18 18 17 16 15 13 14 14 14 14 13 11 10 10 9 9 9 8 9 12 14 16 16 15 58 100 100 99
60 48 28 20 18 17 16 15 16 17 16 18 18 19 19 18 18 20 22 23 22 18 20 19 19 14 11 10 9 9 9 12 15 16 24 28 27 41 100 100 98 100 98
61 42 25 21 19 18 17 17 17 18 18 20 21 20 20 19 20 23 26 27 24 19 16 23 17 14 11 11 10 10 11 18 36 35 32 28 39 91 77 90 98 100 100
55 29 23 20 20 18 18 18 18 20 21 21 21 20 20 23 27 30 30 28 25 20 15 14 16 13 11 11 11 11 14 23 33 31 34 52 53 42 51 73 70 87 92
34 24 22 21 19 19 19 20 21 22 23 23 21 23 29 31 31 32 30 25 21 17 15 18 13 13 13 16 16 21 26 30 34 33 37 43 43 45 42 67 100 99 80
22 22 22 21 21 21 21 22 23 24 25 24 29 34 33 30 27 25 22 19 17 18 19 22 22 21 55 55 67 49 30 32 31 38 43 40 42 39 43 44 38 34 32
22 22 21 22 22 23 24 25 26 25 27 34 34 28 22 19 16 15 18 19 23 25 34 55 58 89 74 56 55 45 39 41 40 42 49 53 70 67 64 58 52 48 48
22 22 23 23 24 27 29 30 30 32 36 33 23 17 12 8 8 12 18 25 34 78 85 99 100 92 76 64 50 47 51 53 52 64 78 65 84 75 74 76 76 69 64
22 24 24 25 29 32 32 32 37 37 30 20 14 8 5 7 11 15 17 26 44 92 100 100 99 81 59 57 60 58 65 82 78 74 91 83 83 78 81 78 73 62 62
23 23 27 31 34 34 35 39 37 30 18 12 8 6 7 9 13 20 37 75 100 99 96 85 71 67 64 66 72 94 92 92 91 86 97 95 79 81 80 74 67 67 64
24 28 32 33 34 39 41 37 29 18 14 10 7 8 13 19 31 47 100 100 78 75 71 65 61 63 73 92 98 98 94 98 89 82 91 89 81 81 76 60 66 72 78
26 28 32 40 43 44 38 28 17 15 12 8 7 11 21 35 52 100 90 72 70 63 55 54 59 83 99 100 100 100 100 99 94 76 91 97 84 90 63 58 62 73 73

GFSMA_700_rhum_003.txt.gz
RH
36 33 30 32 31 32 30 29 30 29 29 33 33 28 18 8 5 5 5 5 5 6 6 6 6 6 6 9 13 38 73 86 83 78 86 83 87 90 79 73 71 73 64
39 36 32 32 32 32 32 32 29 34 35 26 14 6 4 5 6 6 6 6 6 5 5 6 6 6 6 7 8 10 25 59 65 80 82 81 83 84 82 85 84 80 82
43 36 34 33 33 34 31 33 37 31 16 4 2 5 6 6 6 6 6 5 5 5 5 6 6 6 6 6 8 11 16 27 50 67 78 69 75 70 76 80 83 85 84
41 36 34 33 33 31 38 39 29 17 4 4 8 7 6 6 6 6 5 5 5 6 6 6 6 6 5 5 5 5 6 8 16 27 27 29 52 65 74 78 83 82 87
38 34 32 31 34 41 39 30 18 3 6 8 8 7 7 6 6 6 6 7 8 8 8 7 7 6 6 5 5 4 4 4 4 4 4 4 4 22 23 52 83 86 86
35 32 32 40 44 40 30 12 4 8 9 10 9 8 7 7 6 7 8 9 9 8 8 8 7 7 6 6 6 6 6 6 6 5 5 5 5 4 4 6 10 37 75
32 36 47 47 42 29 9 6 9 10 10 11 10 8 8 7 8 8 9 9 9 9 9 9 9 8 8 8 8 7 7 7 6 6 6 6 6 6 5 5 5 5 8
44 49 50 43 26 12 8 9 10 10 11 13 14 14 13 11 10 10 10 10 9 9 9 9 10 10 10 10 9 9 8 8 8 8 8 7 7 8 8 7 7 6 6
52 52 41 26 14 9 8 9 11 13 14 14 14 14 13 13 14 13 13 13 12 11 10 10 10 10 10 10 10 10 9 9 9 9 10 10 11 11 10 10 10 9 9
47 37 28 20 12 9 10 13 16 17 18 17 15 12 12 12 13 16 16 14 12 12 10 9 9 10 11 11 11 10 10 10 10 11 13 14 16 16 15 13 12 11 11
38 33 27 19 13 12 13 16 19 19 19 18 16 14 13 13 14 14 15 13 11 8 8 8 7 8 10 10 10 10 10 10 10 11 12 15 17 17 16 14 14 14 13
48 44 35 24 17 15 16 18 20 20 19 17 14 14 14 14 14 13 12 10 8 7 6 6 6 8 9 11 12 12 11 10 9 9 10 12 13 13 13 12 11 10 11
59 55 46 34 24 17 18 20 22 20 18 16 15 15 15 14 14 13 12 10 8 6 6 6 9 11 15 16 17 16 14 12 11 11 11 12 11 10 10 10 9 9 9
59 60 58 48 30 18 18 21 21 19 17 16 16 16 15 14 14 14 13 11 6 6 6 7 11 15 18 21 22 19 18 16 15 14 13 11 11 11 10 10 10 10 10
60 63 64 54 33 17 19 21 21 18 17 17 16 16 15 15 14 14 15 17 18 10 6 8 16 22 28 27 25 20 16 14 12 12 10 10 11 10 10 10 10 29 100
63 65 67 57 28 16 20 21 19 18 18 18 18 16 16 14 13 14 17 20 24 26 18 15 20 27 28 26 23 17 14 13 13 14 15 17 16 16 16 24 43 56 92
67 68 67 44 16 19 22 20 20 20 19 19 19 18 15 14 16 18 19 20 21 24 22 15 17 18 19 19 18 16 16 16 21 21 18 17 20 24 29 84 100 100 100
68 68 59 17 18 22 20 20 21 20 20 20 19 16 18 19 19 18 18 18 16 13 12 12 7 8 12 12 16 17 19 24 40 31 23 24 28 31 40 41 52 79 93
68 64 20 17 22 21 22 22 22 22 23 21 20 21 22 22 20 18 17 13 8 6 8 16 15 13 16 21 21 22 31 33 31 30 30 35 40 43 43 42 46 77 100
65 21 17 22 21 22 23 22 24 24 22 24 27 24 25 21 18 15 11 6 6 8 13 21 27 35 49 46 70 74 41 45 38 39 40 42 56 60 69 70 66 67 55
18 17 21 21 22 22 22 24 23 23 24 25 25 26 20 18 14 8 6 7 11 16 26 65 63 77 75 79 80 72 58 47 42 42 64 64 71 68 66 73 76 74 73
18 19 20 22 23 23 25 25 25 23 25 26 25 21 19 14 8 6 9 17 29 53 90 100 100 98 80 84 72 57 51 56 62 67 75 70 78 69 70 76 80 81 74
18 20 21 22 25 25 24 23 22 24 28 26 22 20 15 8 8 12 21 30 58 63 85 100 98 77 68 58 64 73 87 83 71 74 96 78 80 71 80 79 83 83 75
19 20 23 24 24 24 21 24 26 27 27 23 20 13 8 9 16 25 36 47 49 58 68 60 58 60 70 91 100 97 93 85 80 87 100 86 81 78 78 78 81 80 71
20 25 25 22 22 24 24 28 29 29 27 24 15 9 10 15 25 33 43 44 47 47 47 51 68 86 90 94 98 98 92 93 83 82 98 90 81 82 78 71 77 81 77
23 22 21 24 26 26 31 31 30 28 25 19 11 8 16 25 31 38 44 44 42 43 55 71 78 86 95 99 100 99 98 96 94 77 98 97 88 90 73 66 71 80 71

GFSMA_700_rhum_006.txt.gz
RH
40 42 39 35 34 34 32 32 32 29 27 32 29 17 7 3 3 5 6 6 6 6 6 6 6 6 6 6 6 7 8 11 23 57 70 81 82 84 89 90 90 82 70
40 44 42 37 34 33 34 32 28 31 33 23 11 3 3 6 7 7 6 6 6 6 6 6 6 6 6 6 7 7 8 9 13 28 50 75 77 85 87 87 88 90 87
43 42 42 38 35 34 32 29 36 33 24 9 2 8 8 8 8 7 7 6 6 6 5 6 6 6 6 6 6 6 6 7 9 12 17 26 55 60 68 72 74 77 79
42 43 40 37 34 31 36 39 35 26 8 4 9 9 9 9 8 7 7 6 6 7 8 8 8 8 8 7 7 6 6 5 5 5 7 8 10 18 25 43 43 52 52
42 44 39 34 32 42 40 37 26 6 5 9 10 10 10 9 8 8 8 8 8 9 9 9 9 9 8 8 8 7 7 7 7 6 6 6 5 5 4 4 4 4 7
40 37 33 36 44 43 38 28 8 8 9 10 11 12 12 12 10 10 9 9 9 9 10 9 9 9 9 10 10 9 9 9 8 8 8 7 7 6 6 5 5 5 4
37 33 44 46 45 38 24 9 8 9 10 12 14 14 14 14 14 13 11 11 11 11 10 10 10 10 10 10 10 10 10 10 9 8 8 8 8 7 6 6 6 5 5
38 47 47 42 33 20 13 10 9 11 14 18 19 19 18 16 15 14 14 13 13 13 13 13 12 12 12 11 10 10 9 9 9 9 9 8 8 8 8 7 7 7 7
46 44 37 29 24 19 13 10 12 16 19 21 21 21 19 18 18 17 17 16 16 16 14 13 12 11 10 10 9 8 8 8 8 9 9 9 9 9 8 9 9 10 10
42 38 33 31 26 19 15 14 16 20 22 23 23 22 22 20 19 18 18 19 18 15 13 11 10 9 8 7 7 7 7 7 8 9 10 10 10 10 10 10 11 12 13
45 49 53 50 39 28 21 18 19 22 24 25 25 23 21 20 18 18 20 17 14 12 9 8 7 6 6 6 6 6 6 7 8 10 12 13 12 10 9 9 10 12 14
53 55 56 55 51 41 30 21 18 21 24 25 23 22 21 20 18 15 15 14 10 8 7 7 7 7 7 7 8 8 9 10 10 12 14 16 17 15 10 9 9 9 10
53 55 55 55 55 54 40 22 15 20 24 24 21 20 19 17 16 15 14 12 8 7 7 8 8 8 8 10 10 11 12 13 16 18 22 25 24 20 17 14 13 12 14
57 59 61 59 58 57 44 16 13 21 23 21 21 20 17 17 17 17 14 10 8 8 8 8 9 10 11 13 13 14 14 16 19 24 27 26 23 20 19 18 17 16 16
63 64 64 63 60 58 42 10 17 22 21 21 21 19 18 20 19 17 16 15 15 10 9 9 10 12 14 12 10 8 7 9 12 14 16 19 19 19 18 17 16 14 12
67 66 66 67 63 60 21 12 21 21 21 22 19 20 22 20 18 17 17 20 20 18 12 10 12 13 9 5 5 6 8 11 14 19 26 24 19 15 14 13 12 10 9
69 68 70 70 65 51 11 18 20 21 23 21 23 23 21 18 17 19 19 19 19 19 18 12 10 6 4 5 7 10 14 30 44 52 45 36 41 30 20 15 15 16 20
72 70 73 68 62 13 17 20 22 24 22 23 24 21 19 18 19 20 20 20 20 15 8 6 4 7 12 16 18 24 34 46 62 61 56 47 43 39 37 38 39 41 53
72 72 70 61 18 18 20 22 24 22 25 26 23 20 19 20 20 20 21 19 12 7 7 15 16 19 22 27 35 41 52 49 47 47 52 53 53 60 62 66 63 60 57
73 70 61 21 18 20 22 24 22 26 27 25 21 21 22 22 21 21 18 11 8 11 19 24 30 38 41 44 55 54 45 44 42 56 68 75 81 81 80 82 76 72 70
70 61 21 18 19 22 23 23 25 25 24 19 22 22 22 21 22 17 10 8 14 20 27 43 56 51 49 47 48 46 48 62 63 82 89 82 83 78 74 77 79 76 73
57 22 17 19 22 23 24 26 26 22 20 22 21 22 22 23 18 10 8 16 25 32 42 50 41 39 44 47 57 68 73 74 60 76 87 72 88 75 79 83 83 86 85
22 17 19 22 22 24 24 24 22 20 21 22 25 25 24 18 10 8 15 20 25 38 51 46 41 46 62 72 75 79 80 78 73 80 95 75 82 71 81 88 93 96 96
17 20 21 22 24 22 23 21 18 20 23 26 27 26 20 11 9 16 18 22 31 35 37 38 64 74 76 82 92 94 90 86 78 84 98 84 82 75 75 72 81 87 90
20 20 23 22 20 22 19 18 21 23 26 28 27 20 11 8 17 22 26 28 30 32 45 71 77 79 80 86 96 99 97 87 69 77 96 86 79 77 76 75 80 79 73
21 23 21 21 20 17 20 24 26 26 28 28 22 12 8 18 22 26 30 31 32 53 64 65 74 82 89 93 98 98 90 69 80 76 94 89 82 93 76 94 99 93 67

GFSMA_700_rhum_009.txt.gz
RH
42 41 40 39 39 34 33 33 34 33 30 33 31 22 11 2 4 7 7 7 7 6 6 6 6 6 6 6 6 6 7 7 8 10 14 24 39 60 76 85 87 90 90
44 44 41 42 40 37 35 34 31 34 37 31 22 8 3 8 8 8 8 8 7 6 6 6 6 6 6 6 6 7 7 7 7 8 10 11 17 42 64 84 86 85 88
47 45 43 44 41 37 34 31 39 37 31 16 4 5 9 9 10 10 9 9 8 8 8 8 8 8 9 9 8 8 8 7 7 6 6 6 6 13 23 40 56 73 80
48 44 43 42 39 34 33 42 39 32 13 5 8 9 10 11 12 12 11 10 10 10 9 9 9 9 10 10 9 9 9 8 8 7 7 6 6 5 5 6 7 15 27
45 41 45 41 34 35 42 40 32 16 8 9 10 11 12 13 14 15 14 14 12 11 10 10 10 10 10 10 10 10 10 10 10 10 9 9 8 8 7 6 6 5 5
40 43 43 34 41 42 39 28 15 9 9 10 11 13 16 17 17 17 16 15 14 13 12 12 12 11 12 11 11 11 10 10 11 10 10 9 9 8 8 7 7 7 7
40 41 34 44 43 34 25 19 13 10 10 12 16 19 20 20 19 18 17 17 16 15 14 14 14 14 14 14 13 12 12 11 10 10 9 8 8 8 7 6 6 5 5
40 34 44 41 33 27 23 19 16 12 12 16 19 20 20 21 21 21 20 20 19 17 16 16 16 15 14 13 13 12 10 9 8 8 8 7 7 7 6 6 6 6 5
37 44 40 36 36 38 37 31 22 16 17 20 22 23 23 22 22 21 22 21 20 19 18 16 15 14 12 11 9 8 7 7 6 6 7 7 7 7 7 7 7 6 6
45 41 44 53 56 55 53 44 30 19 17 21 25 26 27 26 24 21 20 20 20 18 16 14 12 10 8 7 7 8 8 8 7 7 7 7 7 7 7 7 8 8 9
44 48 52 52 53 53 52 50 43 23 14 16 23 27 27 26 25 25 22 20 18 15 12 10 8 8 8 9 9 10 9 9 8 8 8 8 9 9 9 10 10 12 14
48 50 52 55 58 59 53 50 48 26 9 12 21 26 26 26 26 23 20 16 14 11 8 8 9 10 10 10 9 8 7 6 6 6 7 8 10 12 14 16 19 20 27
49 51 56 60 62 61 60 55 52 29 9 14 22 24 25 24 20 16 15 14 10 8 9 10 11 11 9 8 7 6 6 7 8 8 8 8 8 9 12 17 23 29 52
51 56 62 64 63 63 64 59 55 23 12 18 22 24 24 20 17 17 15 11 9 10 11 12 10 9 8 7 8 8 7 5 4 4 4 4 4 4 5 9 16 30 32
57 62 66 66 64 65 67 61 48 16 16 20 23 24 20 18 19 16 13 11 11 11 12 9 9 9 9 9 6 4 6 10 12 14 14 13 12 10 9 11 12 23 34
62 67 70 69 67 69 69 62 26 16 19 22 24 20 19 19 17 14 14 14 14 14 8 9 8 9 8 5 7 12 17 22 23 23 24 26 30 29 24 20 28 32 34
66 71 73 74 72 72 69 40 18 18 21 23 20 20 20 17 15 15 16 18 17 17 13 7 9 6 5 9 15 23 31 34 29 27 28 29 32 35 35 33 31 30 27
72 76 78 79 74 74 52 20 18 21 22 20 21 18 17 16 16 17 19 19 19 18 15 10 6 5 9 18 22 22 25 27 31 36 46 55 59 62 65 64 56 48 51
76 80 81 79 77 61 23 18 20 22 20 21 18 17 14 15 17 20 21 21 19 15 8 6 8 12 20 19 19 24 28 36 52 60 68 75 78 83 84 82 82 75 70
80 82 80 79 65 25 19 20 22 21 21 18 18 16 16 18 21 23 22 20 14 8 10 17 20 21 23 26 28 35 45 52 58 66 69 75 80 84 84 82 81 77 74
81 81 81 66 27 19 21 22 22 20 17 16 16 17 18 22 24 24 20 13 8 12 18 23 29 29 27 31 52 54 56 59 59 71 68 68 73 72 73 74 78 84 91
82 82 59 27 19 22 21 22 19 17 16 15 17 19 22 24 24 21 13 9 15 23 25 30 30 31 45 66 62 63 65 67 53 67 60 57 80 68 80 81 85 88 90
80 45 25 19 22 22 22 18 17 15 16 18 20 22 23 22 20 13 8 12 18 23 36 36 35 61 69 72 73 68 68 69 59 56 56 66 76 71 84 85 97 98 87
36 19 20 23 23 21 18 16 15 16 19 22 22 23 21 17 10 7 9 17 19 27 32 44 70 73 78 79 85 82 76 75 62 52 90 72 78 76 82 100 100 100 83
18 23 24 24 19 18 16 16 16 20 21 20 20 18 12 6 7 12 19 19 22 34 54 70 80 83 82 85 90 85 86 74 45 62 92 78 76 78 86 100 97 92 93
24 25 22 18 17 15 15 18 21 19 18 15 9 5 6 8 12 21 21 25 36 61 65 66 72 79 84 88 94 94 89 79 87 72 92 79 80 90 65 95 97 98 97

GFSMA_700_rhum_012.txt.gz
RH
44 42 42 41 41 41 40 35 34 34 31 32 36 31 23 8 4 8 8 8 8 7 7 7 7 6 6 6 6 6 6 6 6 6 7 8 10 14 26 46 68 74 91
46 46 44 44 42 42 41 37 34 31 36 37 32 18 5 6 9 9 9 9 9 9 10 10 10 9 9 9 9 9 9 9 9 8 7 7 7 9 12 17 22 43 69
50 48 47 45 42 43 40 34 31 39 38 32 17 5 8 9 10 11 11 12 13 13 13 13 12 12 11 11 10 10 11 11 10 10 9 8 7 6 6 6 8 15 29
51 48 49 45 44 44 36 33 40 36 28 13 8 9 10 11 12 14 15 16 16 15 15 14 14 13 12 11 11 11 11 11 11 10 10 10 10 9 8 8 7 6 6
48 48 45 41 45 37 36 40 33 22 12 9 9 10 12 14 16 18 18 17 17 16 16 15 15 14 14 13 13 13 12 12 12 11 10 10 10 10 10 10 10 9 9
44 50 41 47 38 39 39 28 20 16 12 10 11 14 17 19 20 20 20 19 19 20 19 18 17 17 16 15 15 15 15 15 14 13 12 12 11 11 10 9 8 7 7
47 42 46 40 41 38 28 25 23 18 15 13 15 17 20 22 22 22 22 22 21 21 21 20 19 19 18 18 17 17 16 14 14 13 12 10 8 7 7 6 6 6 6
48 43 43 41 39 33 40 48 46 40 28 19 17 20 22 24 24 24 24 23 23 22 22 21 20 19 18 17 16 14 13 11 9 8 7 7 7 7 7 7 7 6 6
47 45 40 41 40 49 50 49 48 48 43 26 16 16 20 24 26 25 26 24 24 23 21 19 17 16 15 13 12 10 8 7 8 8 9 9 9 9 9 9 8 8 8
53 40 45 44 49 48 50 52 50 47 46 34 13 10 15 21 23 23 22 22 22 21 18 16 14 12 10 8 8 9 10 11 11 11 10 8 8 7 6 6 7 7 7
43 46 46 50 50 53 55 56 56 55 50 48 19 10 12 18 23 25 24 23 21 18 17 14 11 9 9 10 12 13 12 10 7 6 5 4 4 4 4 4 5 6 6
47 46 49 51 54 57 59 59 59 59 56 50 29 17 15 20 26 27 25 22 19 16 13 10 9 11 13 13 11 8 7 6 4 4 4 4 3 4 4 4 5 8 10
49 50 51 56 60 62 62 60 60 61 60 48 28 16 18 25 27 25 20 18 15 11 9 11 13 14 11 8 7 5 5 4 4 4 3 3 3 3 3 3 3 5 25
51 53 56 62 65 66 64 62 62 64 63 40 22 17 23 26 23 18 17 14 10 10 12 13 13 10 8 7 6 6 5 4 3 3 4 6 8 8 8 8 9 14 43
55 57 61 66 68 69 68 66 66 66 57 30 17 21 25 22 19 18 13 11 10 12 13 12 10 9 8 8 7 6 4 4 8 12 13 14 14 14 15 15 14 14 15
57 60 64 68 72 74 74 72 69 68 41 20 19 25 22 19 18 13 11 10 11 12 11 10 10 10 10 8 6 6 8 12 14 14 17 20 22 23 24 23 23 23 20
60 63 67 72 76 78 77 75 72 58 26 18 24 22 20 17 13 12 11 11 12 12 8 7 10 10 8 6 7 12 22 19 15 20 32 41 46 46 48 51 55 55 56
62 67 72 76 80 82 79 78 69 36 18 23 22 20 16 13 12 12 12 13 13 14 13 9 10 8 6 9 13 22 20 19 30 41 43 51 52 51 54 59 61 63 63
68 73 77 80 84 84 82 73 44 19 23 22 21 16 13 12 12 13 14 14 15 15 14 10 5 6 8 12 21 22 22 42 49 49 55 63 60 59 60 66 71 70 67
75 79 85 85 86 85 76 46 21 23 23 21 16 14 13 13 15 14 15 16 16 13 8 6 8 12 14 20 25 30 50 53 53 58 61 57 53 49 51 65 69 68 67
81 94 87 88 86 74 42 20 24 23 19 15 15 13 14 16 14 15 16 14 10 6 7 15 20 19 20 27 40 58 57 58 52 65 61 43 42 48 65 71 71 72 73
97 90 91 87 63 36 19 25 23 18 16 14 13 16 14 13 13 10 6 5 6 9 17 23 23 27 34 56 65 63 68 61 47 62 67 29 62 60 73 74 82 81 77
97 94 84 47 27 21 25 22 17 16 13 14 15 13 13 8 3 3 4 5 8 16 24 26 29 50 68 72 78 70 69 71 64 66 61 44 71 65 76 88 81 75 81
93 68 35 21 25 25 21 16 14 13 14 14 13 10 2 2 4 5 5 8 16 22 27 42 68 75 80 83 88 83 78 70 63 72 94 62 69 69 76 95 90 91 98
43 24 22 26 24 18 16 13 13 14 12 12 5 2 4 5 5 6 10 16 19 26 53 71 76 85 86 89 92 85 82 85 74 69 94 74 70 71 76 97 96 96 97
20 26 26 22 17 15 13 13 15 12 11 3 3 5 5 5 7 14 20 21 24 57 67 70 76 85 88 87 91 98 97 92 90 69 94 72 72 84 58 81 95 94 87

GFSMA_700_rhum_015.txt.gz
RH
47 46 44 43 42 42 40 40 37 34 33 29 29 34 32 25 11 5 7 8 9 9 9 9 9 9 10 10 10 9 9 8 8 8 8 7 7 6 6 7 8 12 24
48 49 48 45 45 44 41 40 37 34 29 33 34 32 24 8 7 8 9 10 11 12 13 14 14 14 14 14 13 12 12 11 11 11 11 11 10 9 8 7 7 7 9
49 54 54 46 47 45 40 39 36 30 36 34 29 22 8 8 10 10 12 14 15 16 16 16 15 14 14 14 14 13 13 13 13 12 12 12 12 11 10 9 8 7 6
50 56 54 47 46 42 39 37 31 36 32 22 14 9 9 10 12 13 16 18 18 17 16 17 17 17 17 16 16 15 15 14 15 14 14 13 12 12 12 11 10 10 9
52 53 53 46 46 40 41 33 37 29 19 14 11 10 11 13 16 19 19 19 19 19 19 20 20 19 19 18 17 17 16 16 16 16 16 16 15 14 14 13 12 11 11
50 48 48 46 42 41 36 38 28 23 23 19 15 13 13 15 17 20 20 21 21 21 22 21 21 20 19 19 18 18 18 18 18 18 18 17 16 15 14 13 12 11 10
45 45 45 48 43 39 39 31 36 40 41 41 37 25 16 16 19 22 24 24 24 24 24 23 22 21 20 19 18 18 18 17 16 15 14 13 12 10 9 8 7 6 6
46 46 52 48 44 40 35 43 40 39 38 37 38 34 20 15 16 21 24 25 25 25 23 23 22 21 20 19 17 16 15 14 12 10 9 8 7 7 8 8 8 8 8
50 53 57 53 42 40 45 44 48 49 48 47 44 41 27 13 10 12 16 20 22 24 24 24 22 19 17 16 14 12 10 9 8 9 10 11 12 12 12 11 10 10 10
53 91 63 46 45 45 46 50 54 54 54 54 52 51 45 33 21 17 16 19 23 25 24 21 19 16 14 11 9 9 11 12 13 13 12 10 8 7 6 6 5 5 5
84 94 66 49 46 49 50 55 57 57 57 56 56 56 51 43 25 16 18 24 25 23 21 19 17 14 10 10 12 14 14 13 10 8 7 6 5 5 4 4 3 3 3
99 68 52 51 51 51 55 59 60 58 58 58 59 59 54 41 19 19 25 26 24 21 18 15 11 10 12 15 15 12 9 8 7 6 6 5 4 3 3 3 2 2 2
73 61 51 52 54 55 60 62 61 60 61 61 62 63 56 32 19 25 26 24 21 18 14 10 11 14 15 13 10 7 6 6 5 4 4 3 3 2 2 2 2 3 5
56 50 54 55 56 59 63 64 64 64 64 64 65 66 49 21 23 26 23 20 17 12 11 12 14 14 12 8 6 6 5 4 4 3 3 2 2 3 5 6 6 7 8
48 54 56 60 60 62 65 68 68 68 68 68 68 64 32 21 26 23 20 15 12 11 14 14 14 10 7 7 6 6 5 4 3 4 4 6 8 8 8 13 19 21 21
52 57 62 63 63 65 68 72 74 75 74 73 67 51 21 25 23 20 15 12 11 12 14 13 9 8 8 8 7 6 4 4 7 10 14 12 14 26 33 35 35 35 37
56 60 63 63 65 68 73 78 79 79 77 71 58 23 24 24 20 14 12 11 12 12 9 6 7 7 7 6 4 4 8 11 12 13 16 31 42 41 42 48 46 46 44
58 62 64 64 68 71 80 85 84 83 80 56 25 24 24 19 14 12 12 12 11 8 7 5 3 3 4 4 6 11 14 15 16 29 43 46 52 50 53 55 52 50 48
61 64 64 67 73 81 90 88 88 85 48 25 24 24 18 14 12 12 12 9 8 6 3 2 3 3 4 9 12 15 18 21 43 48 52 58 55 50 55 47 36 34 42
63 64 67 72 80 92 91 92 86 43 23 25 23 17 14 12 13 11 8 7 3 2 3 3 4 5 11 14 20 26 31 52 50 56 60 61 53 58 40 37 54 60 60
64 68 73 79 90 96 96 83 36 22 26 22 16 14 13 13 10 8 4 3 4 4 4 5 8 12 14 17 35 53 58 57 55 62 65 51 59 50 50 67 68 63 61
71 75 80 87 96 96 70 28 24 26 20 15 13 14 13 9 7 3 4 5 5 5 6 13 15 16 19 49 62 64 65 67 58 60 70 50 71 51 65 67 72 70 70
79 82 89 98 97 53 24 26 25 18 15 13 14 12 9 5 3 5 5 5 5 8 15 19 18 36 62 69 74 72 70 73 66 65 82 63 66 52 68 71 84 81 80
86 94 98 90 35 24 27 22 17 15 14 14 11 9 5 4 5 5 5 5 6 14 18 26 56 68 75 78 82 83 80 75 61 67 88 81 66 61 62 74 94 91 96
99 97 55 25 26 26 19 16 14 14 13 11 10 5 4 6 6 5 5 8 14 17 37 66 70 77 81 86 92 90 82 79 64 57 81 90 67 61 58 70 95 100 93
66 33 25 28 22 18 16 15 14 13 11 10 6 4 6 6 6 6 10 16 18 47 63 67 72 78 82 84 87 91 92 89 83 61 84 80 68 81 48 57 73 86 82

GFSMA_700_rhum_018.txt.gz
RH
47 48 47 47 47 44 39 39 37 35 33 32 27 28 31 30 26 19 8 7 8 10 10 11 12 14 14 15 14 14 14 13 13 12 12 11 11 11 10 9 8 7 6
47 47 49 52 52 48 42 40 38 35 33 29 29 31 27 24 15 10 8 9 11 12 14 15 16 16 15 14 14 14 14 14 14 14 13 13 13 13 12 12 11 11 9
48 51 52 53 54 50 44 42 38 35 33 30 31 23 17 12 10 10 10 12 14 16 17 17 16 16 17 17 17 17 17 16 16 15 14 14 14 14 14 14 14 13 12
48 50 51 54 55 51 45 42 37 34 31 31 22 16 12 10 10 12 14 17 19 19 18 18 18 19 20 19 19 18 17 16 16 15 15 15 15 15 15 15 15 15 14
54 53 52 52 54 51 45 41 36 33 33 26 26 24 17 12 12 13 15 18 20 20 20 20 21 21 21 21 20 19 18 16 16 16 16 16 17 17 17 17 17 17 16
56 56 52 50 50 49 46 41 35 33 31 34 32 30 33 31 23 15 14 16 19 23 24 24 24 24 23 22 20 19 18 18 17 18 17 17 16 16 15 15 15 14 14
58 57 49 43 48 50 47 39 36 34 36 34 35 34 33 32 27 19 14 15 17 20 23 24 24 23 22 20 19 18 18 17 17 16 15 14 13 11 10 9 8 8 7
60 60 49 45 52 52 47 40 37 39 40 44 44 45 46 43 42 34 24 17 12 12 14 16 20 22 22 21 20 19 18 16 15 12 11 10 9 9 9 10 10 11 11
68 60 49 47 59 56 44 41 42 42 46 49 50 51 51 51 51 46 42 30 22 19 20 23 24 23 22 20 18 17 14 12 10 10 11 12 13 14 13 12 11 10 9
69 58 55 50 67 58 45 45 46 49 52 52 52 53 52 54 56 54 47 32 21 20 24 24 23 21 19 17 14 11 10 11 13 15 15 13 10 9 8 7 7 6 6
63 59 65 74 89 52 48 49 50 55 56 56 55 54 54 55 58 58 53 34 22 24 25 23 21 19 16 12 11 13 15 15 13 11 9 8 7 7 7 6 6 5 4
64 60 69 95 86 53 52 52 54 59 60 59 57 57 58 58 60 60 52 29 23 24 24 21 17 13 12 13 15 16 15 12 10 8 8 7 6 6 5 4 3 3 2
75 68 78 100 84 54 55 54 58 62 63 62 61 61 61 62 62 62 35 24 25 24 21 16 12 12 14 16 15 12 9 8 7 7 6 5 4 3 3 2 2 2 3
69 82 100 100 67 56 57 57 60 62 64 65 66 66 65 66 65 50 25 26 25 21 16 13 14 16 15 13 9 7 7 6 5 4 3 3 2 2 3 3 4 6 6
66 98 90 89 56 58 60 60 62 64 68 68 68 68 69 67 61 27 26 25 19 14 14 16 17 14 9 7 6 5 4 4 3 3 3 3 4 5 7 8 8 8 14
92 81 62 57 58 62 64 62 63 67 71 72 71 72 72 62 31 26 24 17 13 13 17 15 11 8 6 5 4 4 3 3 3 4 7 9 10 12 20 29 35 36 36
95 57 54 57 62 65 66 66 68 72 76 77 77 78 62 34 26 24 16 14 14 14 12 9 7 5 4 4 4 3 3 4 8 10 11 15 32 43 42 45 49 49 46
61 57 57 61 66 69 69 68 73 77 82 80 82 63 32 26 23 15 14 14 13 9 7 6 5 4 4 4 4 4 8 12 11 14 36 47 51 55 55 56 51 48 44
61 65 66 66 69 70 70 74 78 84 86 86 64 31 26 21 15 14 14 12 8 6 4 4 4 4 4 4 6 12 12 12 30 49 52 59 60 58 58 52 52 47 35
74 83 70 68 70 70 86 92 90 90 91 59 28 27 19 15 15 14 11 8 5 4 5 4 4 4 5 9 13 15 23 46 46 52 56 62 58 58 56 57 55 48 50
89 76 69 70 76 89 88 97 97 96 52 26 26 17 15 15 14 10 8 5 5 5 4 4 5 7 12 14 38 51 49 50 50 58 56 50 57 54 56 61 62 66 65
96 72 74 90 89 88 96 99 97 36 26 23 16 16 15 13 10 8 5 5 5 5 5 6 11 13 21 58 60 63 60 58 51 62 60 47 65 56 62 64 66 70 62
75 88 97 89 89 99 98 82 26 27 19 17 16 15 13 10 8 6 5 5 6 6 9 16 16 42 56 64 68 70 68 66 60 63 71 60 65 54 60 61 70 79 76
95 87 88 94 98 95 37 27 23 18 17 17 15 12 11 9 6 5 6 7 6 7 15 26 55 61 67 71 76 74 71 69 62 67 74 77 60 49 52 57 66 82 89
91 91 97 97 46 26 26 19 18 18 16 14 12 11 9 7 6 6 8 8 7 13 31 61 66 72 75 76 79 76 76 72 64 61 72 89 67 55 45 45 62 72 95
98 94 38 26 28 21 18 18 18 16 14 12 11 9 7 5 6 9 9 8 11 30 56 61 68 71 73 76 80 82 78 74 76 59 85 85 74 85 46 43 52 64 74

GFSMA_700_rhum_021.txt.gz
RH
48 46 47 47 48 51 49 48 43 37 34 32 30 27 29 29 25 22 16 9 7 8 10 11 12 13 15 15 15 14 14 14 14 14 14 13 13 13 13 13 13 12 11
51 50 50 48 48 50 51 50 45 38 36 33 30 29 29 23 17 13 11 9 10 11 12 14 16 16 16 15 15 16 17 17 17 16 16 15 14 14 14 14 14 14 13
50 56 52 49 50 52 53 52 46 40 38 33 30 30 24 20 14 11 10 12 13 14 17 18 18 17 17 18 19 19 19 19 18 17 17 16 16 15 14 14 14 14 14
52 50 47 49 51 52 54 52 47 42 38 33 31 29 28 26 20 13 12 13 15 18 20 20 20 20 20 20 21 21 21 20 19 18 17 16 15 16 15 15 16 15 15
54 52 52 54 54 52 51 52 49 43 38 33 31 33 30 27 28 29 24 17 14 14 17 20 23 23 23 24 24 23 22 21 19 18 16 16 15 15 16 16 16 16 16
53 55 56 58 57 51 49 54 51 45 37 33 35 33 34 33 33 31 28 23 17 14 15 17 20 21 22 22 22 21 20 19 18 17 16 15 16 16 16 15 15 14 14
45 47 56 59 59 51 47 54 52 45 37 37 38 40 42 43 44 44 45 42 38 34 27 18 14 14 15 15 17 18 19 19 18 18 17 16 16 15 14 12 11 10 9
43 48 60 60 61 53 51 56 54 43 40 41 44 46 47 47 47 47 48 49 48 45 38 27 20 19 20 22 22 21 20 19 18 17 16 14 13 12 11 10 11 11 12
42 57 66 70 62 51 53 61 54 42 44 46 49 50 50 49 49 50 50 51 51 49 42 28 23 23 23 23 21 20 19 17 15 13 12 11 12 12 14 14 14 14 13
52 63 74 74 60 56 63 68 51 45 46 49 52 53 53 52 52 53 53 54 54 51 41 26 24 24 23 22 20 18 15 12 12 13 14 15 16 15 13 11 10 9 9
63 71 80 71 64 83 77 71 50 48 48 51 54 55 54 53 54 56 55 57 57 48 34 25 25 24 22 19 15 12 13 15 16 16 14 13 11 10 9 9 9 9 8
67 75 80 73 78 89 88 84 51 51 51 56 58 57 57 58 58 58 57 56 54 49 30 26 24 20 16 13 13 15 17 17 16 15 12 11 10 9 8 7 6 6 6
69 77 77 88 94 93 98 82 54 55 55 59 60 61 62 62 63 62 63 60 57 43 26 24 19 14 14 16 17 17 15 13 11 10 9 7 6 6 5 4 3 3 3
73 84 92 100 94 98 99 88 58 59 58 61 63 66 68 68 66 67 67 63 50 27 25 19 15 16 18 17 15 12 10 9 8 6 5 4 3 3 2 3 3 4 5
79 82 100 100 96 100 100 87 62 64 63 64 66 71 73 73 72 74 66 54 27 26 20 16 18 19 17 13 10 8 7 6 4 3 3 3 3 4 5 6 7 7 8
79 97 99 92 96 99 100 74 65 68 67 67 69 72 75 76 78 71 55 28 25 17 17 18 19 15 11 9 7 6 5 3 3 3 3 4 6 7 8 8 13 22 32
88 93 100 96 100 93 100 66 69 72 71 70 74 75 77 79 78 52 28 24 16 17 19 17 12 9 8 6 5 4 3 3 3 4 7 7 11 25 27 41 42 43 46
99 100 100 100 91 99 77 69 75 74 71 78 81 78 83 83 48 28 22 16 18 16 14 12 9 7 6 5 4 3 4 5 7 8 18 37 43 40 49 49 49 48 47
100 100 100 99 100 98 76 72 74 73 81 82 82 86 89 49 27 20 16 17 15 12 9 8 6 6 5 4 4 4 6 8 20 43 43 48 51 52 57 55 52 50 45
99 96 100 100 100 99 74 75 74 86 95 90 92 93 41 27 18 17 17 14 11 9 7 6 5 5 4 4 6 8 14 40 42 48 48 53 53 58 60 56 55 54 57
100 100 100 100 100 85 75 76 93 98 93 97 96 30 24 17 17 16 13 10 8 7 6 5 5 5 5 7 16 39 44 46 43 50 48 49 55 53 53 55 58 63 68
99 100 99 100 93 74 84 98 96 94 98 81 27 19 18 17 15 12 10 8 7 6 5 6 6 6 10 33 50 50 48 45 36 50 47 46 59 53 52 53 59 69 70
100 99 99 93 95 98 98 93 100 96 32 25 18 18 17 14 12 9 8 6 5 5 7 8 7 16 44 56 54 52 54 54 54 57 56 46 57 53 55 52 62 70 68
98 96 97 100 96 89 97 98 51 27 19 19 19 16 14 10 8 6 4 4 5 7 9 10 22 51 59 61 62 62 62 59 57 62 68 56 59 51 50 54 62 73 80
97 94 94 96 100 100 48 28 21 20 20 18 15 11 9 7 5 4 5 6 8 10 11 29 60 64 68 70 73 67 69 62 58 61 74 74 61 56 52 50 60 68 73
91 99 99 94 34 28 22 20 21 19 17 13 10 8 6 4 4 6 8 9 10 10 25 57 63 68 71 73 77 81 80 77 76 64 87 73 69 73 48 49 50 61 68

GFSMA_700_rhum_024.txt.gz
RH
50 48 48 48 50 48 48 50 50 49 44 39 35 31 29 29 26 19 15 13 10 9 9 10 11 12 14 15 16 16 15 15 15 14 14 14 14 13 13 13 13 13 13
50 51 51 52 53 51 50 50 51 51 48 41 37 32 30 28 23 17 12 11 11 11 12 13 14 16 17 17 16 16 17 18 18 18 18 17 17 16 16 15 14 14 14
55 52 51 54 53 51 50 51 52 53 50 43 39 33 30 28 29 25 18 12 12 14 16 18 20 20 19 18 18 18 19 20 20 20 20 19 18 17 16 15 15 15 14
51 50 52 52 49 50 52 53 53 53 51 46 40 34 31 33 30 29 29 26 20 15 15 18 20 21 21 21 21 21 21 22 22 22 22 20 19 18 16 15 15 15 15
52 52 56 54 53 55 57 56 53 53 53 49 41 34 34 33 33 33 33 31 28 23 17 15 16 18 19 21 22 23 23 22 22 21 20 19 18 17 16 15 14 15 15
54 53 55 52 56 59 60 58 52 54 58 51 41 36 36 39 41 43 43 43 44 43 42 38 34 28 22 17 14 14 14 14 14 15 15 15 15 15 15 15 15 15 15
51 49 47 47 60 65 64 61 54 57 60 51 40 39 41 44 46 46 46 46 46 46 47 47 45 38 31 26 22 20 20 19 19 19 18 18 17 17 17 16 16 15 14
54 51 47 50 62 67 67 65 56 60 62 49 42 42 44 47 48 48 48 48 49 49 48 47 46 45 41 32 26 24 22 22 21 20 19 18 17 16 16 14 13 12 12
55 52 49 51 64 71 70 66 59 66 64 48 45 46 49 50 50 50 48 49 51 51 51 51 48 45 41 34 25 23 22 21 20 19 17 15 14 13 13 13 14 14 14
64 60 52 49 70 80 75 66 71 78 63 50 49 51 54 55 54 52 50 53 56 57 57 56 52 47 38 28 23 22 21 19 16 14 13 13 14 15 16 16 15 15 14
66 64 57 64 76 84 84 70 76 88 62 54 53 55 58 58 56 56 56 59 60 62 61 60 55 41 28 25 23 20 17 14 14 16 17 17 17 16 15 14 14 13 13
65 64 58 62 93 90 85 97 96 88 71 57 57 56 60 60 58 58 58 61 62 63 65 62 47 30 25 22 18 15 15 17 18 18 18 16 14 13 12 10 9 7 6
65 64 60 68 82 93 96 93 98 90 89 59 60 58 61 61 62 64 65 65 63 62 62 58 38 26 21 16 16 18 19 19 17 16 14 12 10 8 7 6 5 4 3
70 68 73 78 89 100 99 97 100 91 98 64 62 63 64 66 65 68 67 65 64 64 63 47 27 21 16 17 19 19 17 14 12 10 8 7 6 5 4 3 2 2 2
78 67 75 88 94 100 99 99 97 100 100 74 66 69 70 68 70 71 71 70 69 66 59 29 21 17 20 20 17 16 13 10 8 6 5 4 3 2 2 2 3 3 4
71 71 79 83 100 88 97 100 92 97 99 77 70 74 72 71 74 78 74 73 76 60 30 20 18 20 19 16 13 11 8 7 6 4 3 3 3 3 4 5 5 8 16
72 83 82 89 97 95 94 85 100 98 98 72 73 76 73 78 84 80 79 83 57 28 20 19 21 18 15 11 8 7 6 4 3 3 3 4 5 6 10 19 29 33 34
75 81 85 90 96 93 100 100 99 100 99 73 76 76 77 87 96 85 87 53 27 18 20 21 17 14 9 7 6 5 4 4 4 4 6 11 24 35 36 38 40 41 44
76 84 94 97 90 98 100 100 100 100 81 75 77 76 90 97 91 92 54 25 18 20 18 15 12 8 7 5 4 4 4 4 5 15 36 40 42 44 47 47 46 47 47
90 99 91 100 100 100 100 100 100 99 79 78 75 92 96 94 94 34 21 19 20 16 13 9 7 5 4 4 5 5 4 8 27 42 45 43 48 46 48 48 49 49 47
100 95 100 100 100 100 100 99 100 90 76 85 97 97 95 80 26 19 20 19 15 10 8 6 4 4 4 6 6 5 16 34 38 45 44 38 47 47 54 55 54 51 55
100 100 100 100 100 100 100 98 95 78 97 99 97 98 39 22 19 20 17 12 9 7 4 4 5 6 7 7 7 30 40 38 33 45 41 36 47 43 50 51 50 53 57
100 100 99 99 99 100 99 97 98 99 96 99 60 25 20 20 18 15 9 8 5 4 5 7 7 8 7 15 43 45 43 46 43 48 52 42 60 52 58 56 60 64 66
100 98 99 98 98 98 99 97 98 99 58 27 20 21 20 16 11 8 5 4 4 6 7 7 8 8 21 48 48 47 52 47 46 58 72 53 65 58 60 59 68 67 68
99 97 98 100 97 95 99 99 45 27 21 21 21 18 12 9 6 4 4 4 6 7 8 10 11 39 58 59 65 60 58 57 56 58 73 75 62 57 56 52 62 65 69
99 98 97 96 97 72 29 26 21 21 21 19 14 9 6 4 4 4 5 6 6 8 9 13 53 62 64 67 68 68 74 75 74 58 78 75 65 74 49 46 51 60 66

GFSMA_700_rhum_027.txt.gz
RH
49 50 50 49 49 51 51 50 50 50 52 51 48 42 36 31 29 25 20 15 12 11 11 11 11 12 12 14 15 16 16 16 15 15 16 16 15 15 14 14 14 14 13
52 53 51 51 51 53 54 52 51 52 53 53 51 45 40 33 30 29 29 23 15 12 13 14 15 16 17 18 18 18 17 17 18 19 19 19 19 18 18 17 16 16 15
53 55 56 55 54 57 56 53 54 55 54 53 52 48 42 35 32 32 31 28 27 23 18 14 15 18 19 20 20 20 20 20 20 20 21 21 21 20 20 19 18 16 16
54 57 59 56 57 54 53 55 56 56 55 55 56 52 45 36 34 33 32 32 30 28 26 23 21 18 16 16 17 18 20 21 22 24 24 23 23 22 22 20 19 18 16
54 57 54 54 55 56 57 59 59 59 57 56 58 55 46 36 35 38 39 41 42 42 42 43 43 42 40 36 33 28 23 20 17 15 14 14 14 14 14 14 14 14 14
57 57 56 58 60 59 61 61 62 62 59 58 61 57 45 38 39 43 44 44 44 44 44 44 44 43 43 43 43 40 35 30 26 23 21 20 19 18 18 17 16 16 16
52 54 56 52 51 52 54 59 66 64 63 61 64 57 44 42 44 47 48 47 47 46 46 47 48 48 48 46 44 42 39 34 29 26 24 22 21 20 19 18 18 17 17
53 52 51 50 51 51 54 65 68 69 65 63 67 56 47 46 49 50 50 50 48 48 49 51 52 51 51 50 48 45 39 31 25 23 22 20 19 18 18 17 17 16 15
56 55 54 55 54 52 60 72 73 73 65 67 69 57 51 50 53 55 54 53 52 52 53 54 55 54 53 52 50 46 39 29 24 22 20 19 18 16 16 15 14 14 14
64 65 65 62 60 58 73 81 77 78 69 75 72 59 54 55 58 57 57 56 58 58 60 61 60 59 58 56 53 45 32 24 22 20 17 15 15 15 16 16 16 16 16
71 70 68 70 67 61 60 100 92 82 74 80 80 61 58 59 61 64 64 64 63 65 66 66 64 62 61 58 52 36 25 22 18 16 16 17 18 18 18 18 18 17 16
74 72 74 69 70 67 67 98 99 97 84 96 83 74 61 61 62 65 67 67 67 69 70 69 68 66 63 58 41 27 22 18 17 18 19 20 19 18 17 15 13 11 10
81 74 73 73 69 70 74 91 100 100 99 98 85 97 66 64 65 65 68 66 64 64 67 71 68 67 62 50 28 21 18 19 21 21 20 18 16 13 11 9 8 7 6
90 87 79 75 68 75 74 78 99 99 97 99 92 98 89 70 71 69 68 67 65 66 69 71 68 66 56 32 20 19 20 22 20 17 14 12 10 8 7 6 4 3 3
96 93 83 80 75 82 84 91 100 99 97 100 96 99 100 83 77 75 72 70 71 70 67 70 69 58 32 20 20 22 22 19 15 12 9 7 6 4 3 3 2 2 2
85 94 83 80 85 85 89 93 98 100 97 96 98 98 100 96 80 78 75 73 74 73 73 70 67 31 20 21 22 19 15 12 9 7 5 3 3 3 2 3 3 4 6
76 85 88 86 91 83 86 89 91 99 99 100 100 98 96 85 83 80 77 75 78 83 79 72 28 20 22 21 16 12 9 7 5 3 3 3 3 3 4 8 17 26 31
72 81 97 91 86 84 96 99 100 99 100 99 100 99 96 96 90 78 76 85 91 88 71 23 21 23 20 14 9 7 5 3 3 4 4 4 6 20 33 35 36 37 36
84 100 97 90 91 100 100 100 100 100 100 100 100 94 97 89 82 84 90 92 89 44 21 22 22 17 12 8 5 3 3 4 4 5 9 25 38 41 38 35 36 34 35
97 99 98 94 98 96 99 100 100 100 100 98 99 96 96 84 90 99 95 77 25 21 22 18 13 9 6 4 3 4 4 5 5 16 39 38 36 38 42 44 39 37 37
95 100 88 100 88 100 100 100 99 100 100 98 98 96 96 98 100 94 34 21 22 20 15 9 7 4 3 4 5 6 6 5 22 35 36 33 38 42 49 48 46 46 46
88 99 96 100 98 100 100 100 99 99 99 98 96 96 98 98 47 22 22 22 16 10 8 5 3 4 5 6 6 6 10 30 25 36 39 32 44 48 52 51 54 55 59
97 89 100 96 100 100 99 99 99 98 97 97 99 97 59 24 21 22 18 12 8 6 4 4 5 6 6 7 7 21 34 32 36 38 43 36 56 50 55 56 61 62 65
99 98 100 100 99 98 98 98 97 96 97 97 55 25 21 22 19 13 9 6 4 4 5 6 6 7 8 12 33 31 34 36 38 50 68 53 62 56 57 58 63 66 70
98 100 99 98 98 99 99 96 97 90 38 25 22 23 20 14 9 7 5 4 4 6 6 7 8 8 25 40 44 43 49 50 52 58 67 79 66 58 57 51 55 61 69
99 98 98 99 98 96 91 64 29 23 22 23 20 15 10 8 6 4 4 5 5 5 6 8 12 42 46 49 55 60 64 64 70 60 72 78 70 74 52 46 47 54 67

GFSMA_700_rhum_030.txt.gz
RH
48 47 49 49 49 50 50 52 52 52 52 53 54 53 50 45 37 32 30 30 28 23 15 13 12 13 14 15 16 17 18 17 17 16 17 17 18 18 17 17 16 16 15
49 48 50 52 50 52 52 54 56 55 53 54 55 54 53 49 42 34 32 32 30 27 25 21 17 15 16 17 19 20 20 20 19 20 20 20 21 21 20 20 19 18 18
53 52 52 54 53 55 54 57 58 57 56 56 56 54 54 52 46 36 34 33 32 31 30 28 27 25 24 22 20 17 16 17 18 20 21 22 22 22 22 22 22 21 21
55 56 56 56 60 60 56 58 55 58 59 59 57 55 54 54 47 38 35 37 39 40 39 39 39 40 40 40 40 40 39 37 33 28 22 17 15 15 15 17 18 19 20
54 55 56 59 64 59 58 57 59 60 62 61 58 56 56 57 48 38 38 41 43 43 43 43 43 44 44 45 45 43 42 40 40 39 36 32 28 25 22 20 19 18 16
55 57 58 57 56 57 61 62 60 58 63 61 60 60 59 59 48 40 42 46 46 46 46 45 44 45 46 48 48 48 47 44 42 40 39 35 31 28 25 23 22 21 20
57 58 62 63 62 62 57 54 53 58 58 62 64 64 61 59 50 44 47 49 50 49 48 46 48 49 50 51 52 51 50 48 45 42 40 35 28 24 21 20 19 19 18
60 63 62 63 57 58 53 52 52 54 59 66 69 65 60 58 53 48 49 52 52 52 51 50 51 52 53 55 55 54 52 51 49 45 38 30 23 20 20 19 18 17 16
60 59 59 62 60 55 56 55 55 57 70 71 73 69 67 63 56 53 52 54 57 56 55 54 55 56 57 57 55 53 52 52 50 44 32 23 20 19 18 17 16 16 16
62 62 62 66 68 62 63 63 60 66 77 83 81 72 72 69 60 56 56 58 59 61 60 59 58 59 58 58 59 57 55 55 52 40 25 21 19 18 17 17 17 18 18
68 80 78 75 73 73 75 72 81 73 82 85 91 81 78 75 65 61 60 62 64 66 65 62 61 61 61 62 61 61 59 58 50 32 21 19 18 19 20 21 21 20 19
71 74 73 76 74 72 71 78 80 81 71 100 87 89 91 86 77 66 65 65 67 68 68 66 65 65 66 66 67 65 61 54 36 22 19 20 21 22 22 20 18 15 13
77 76 76 78 79 75 78 78 81 85 81 88 100 100 99 86 93 86 70 71 70 71 71 70 71 72 72 71 72 67 61 35 21 20 22 23 22 19 16 13 11 10 8
69 71 74 87 88 82 77 79 77 88 86 84 98 98 100 98 94 92 92 80 77 75 74 74 73 72 75 77 73 66 36 20 21 24 22 18 14 11 10 8 6 4 3
73 72 72 84 98 91 85 83 79 88 94 95 100 98 100 100 98 91 94 99 86 79 77 77 77 80 80 78 67 32 21 23 24 19 14 11 8 6 4 3 3 2 2
65 70 70 78 76 100 84 88 87 98 100 100 100 99 100 99 100 98 100 100 95 83 79 76 81 84 82 65 23 22 23 19 14 10 7 5 4 3 3 2 2 3 3
44 62 63 70 82 92 95 95 100 100 92 100 99 100 100 100 100 99 98 91 88 89 75 78 84 86 55 22 23 20 14 10 7 4 3 3 3 3 3 3 4 5 13
36 54 67 76 85 85 99 98 98 100 88 100 87 100 100 100 100 99 99 98 90 81 86 85 83 35 22 22 16 10 8 4 3 3 4 4 4 4 5 12 25 29 27
47 47 60 76 84 90 96 99 100 99 100 89 99 99 98 99 100 98 99 90 88 95 90 70 23 23 19 12 8 5 4 3 4 4 5 5 9 24 30 30 30 29 29
62 63 67 76 84 95 100 99 97 86 98 98 98 100 99 99 100 98 98 97 97 87 31 22 22 15 9 6 4 4 3 3 4 5 12 26 27 28 38 38 32 33 38
68 74 81 88 90 99 100 98 100 100 99 100 100 99 98 99 98 96 99 96 47 22 23 18 10 7 4 4 4 3 3 4 5 22 23 26 33 35 41 44 51 57 56
80 86 100 98 100 98 100 99 100 89 99 100 99 98 98 98 98 98 68 22 23 20 13 8 6 4 4 4 4 4 4 7 15 26 22 24 34 40 48 50 52 54 60
84 86 100 100 98 99 100 100 100 100 98 98 98 98 98 98 81 25 23 20 14 9 6 5 4 4 4 4 4 5 13 21 22 32 32 26 46 45 52 52 59 65 70
99 99 97 100 100 100 100 99 99 99 96 96 98 98 69 25 23 21 15 10 8 6 5 5 5 4 5 5 6 16 19 22 27 41 48 40 55 50 53 55 61 63 67
99 99 99 99 100 99 98 98 99 98 97 76 30 23 25 22 16 11 9 8 6 5 5 5 5 6 7 10 26 24 32 33 36 45 56 67 55 51 49 49 56 57 60
99 99 98 98 98 98 98 98 89 32 25 25 26 23 16 11 9 8 8 6 5 5 5 5 7 10 18 32 36 39 42 45 52 44 68 69 61 63 44 44 49 61 69

GFSMA_700_rhum_033.txt.gz
RH
50 48 47 47 49 49 49 50 51 53 54 54 53 53 53 53 52 48 40 34 32 31 28 25 21 17 15 16 17 18 19 19 19 19 18 18 18 19 19 19 19 18 18
50 50 49 48 49 51 51 52 52 55 56 56 55 55 55 54 52 50 44 35 33 33 32 30 28 27 26 25 23 21 18 17 18 18 19 21 21 21 21 20 21 21 21
52 52 52 50 50 53 53 53 54 56 58 56 56 57 57 55 52 50 46 37 35 37 38 38 37 38 38 38 38 38 39 38 38 37 35 31 25 18 16 16 19 22 22
56 56 55 54 56 58 56 59 58 58 58 58 58 59 58 54 52 51 47 38 37 40 41 40 41 40 41 41 42 42 43 43 43 41 39 37 37 36 34 30 25 22 18
54 50 54 59 62 61 61 65 60 59 58 61 60 60 57 56 55 53 48 40 39 43 44 44 44 43 43 44 45 46 46 45 45 44 42 40 38 36 35 34 32 28 26
48 48 54 60 59 61 65 64 59 60 62 60 57 57 58 58 58 55 50 42 42 45 47 46 46 45 45 47 48 49 49 48 47 45 45 43 40 39 36 33 29 26 22
49 49 55 59 62 61 64 61 61 62 57 54 54 55 58 60 58 56 52 45 45 48 50 50 50 48 48 49 50 52 52 51 48 47 46 46 44 41 35 28 22 20 19
56 54 55 60 59 62 66 67 65 57 54 53 52 57 59 63 60 58 56 49 48 50 53 54 53 53 51 51 53 54 54 55 54 53 51 49 47 43 31 22 19 18 18
55 60 60 62 64 65 66 69 64 57 55 54 54 61 64 65 66 63 59 54 52 52 55 57 58 57 56 55 55 55 54 55 56 56 55 53 49 42 27 20 19 18 18
73 72 61 60 68 68 68 65 66 62 59 56 60 60 76 78 73 69 65 61 57 56 59 60 61 61 60 58 58 57 56 56 59 61 58 55 50 35 22 19 19 19 20
70 75 74 67 57 68 71 63 74 71 72 72 68 68 81 86 86 76 73 67 63 60 60 62 63 62 61 62 61 60 60 62 67 65 61 56 37 22 20 20 21 22 22
58 63 72 74 66 69 86 90 88 93 83 85 84 75 83 97 87 86 88 82 71 66 65 64 64 63 64 65 64 64 66 68 69 66 60 38 22 21 22 23 23 21 18
63 61 60 66 71 69 73 84 85 85 85 85 90 87 100 93 100 90 90 84 89 88 78 73 72 71 70 69 69 69 71 72 71 66 37 21 23 24 22 18 15 13 11
61 69 74 70 72 78 86 87 88 90 86 87 92 96 96 99 99 100 98 88 96 94 89 86 91 79 78 75 73 74 73 73 71 37 22 24 23 17 13 10 8 6 5
36 62 69 75 75 75 82 89 95 93 94 92 89 95 100 100 94 100 100 99 99 98 95 98 99 93 86 82 83 74 76 73 35 23 25 20 13 10 7 5 4 3 3
42 56 67 72 75 74 74 81 93 99 94 98 98 100 99 98 96 100 100 100 100 99 99 99 99 97 88 88 85 81 66 29 24 23 14 10 6 5 4 3 2 2 2
36 42 52 67 74 76 73 74 88 97 92 92 100 100 96 100 99 100 100 100 100 99 99 100 98 98 97 88 88 46 23 24 16 10 6 4 4 3 2 2 2 3 4
35 37 44 48 62 73 75 76 92 95 99 100 93 100 95 100 98 100 97 100 100 99 98 99 98 98 97 88 32 24 20 12 7 5 4 3 2 2 3 5 11 12 11
40 42 43 43 44 67 82 81 96 100 100 98 98 95 100 100 100 99 95 99 99 99 98 97 98 97 52 22 23 14 8 6 4 3 3 3 3 7 16 17 15 15 17
53 41 48 51 47 60 77 88 97 99 97 85 100 100 100 100 100 99 100 98 98 97 97 97 96 49 22 18 11 7 6 4 3 3 3 7 16 18 24 22 23 24 26
53 43 49 56 56 62 88 92 89 84 97 99 100 100 100 100 99 99 100 98 98 97 96 78 22 19 11 8 6 5 4 3 3 5 15 20 25 34 38 37 39 41 42
54 55 62 65 67 75 82 90 99 100 100 100 100 100 99 98 98 99 98 97 97 90 24 20 13 9 7 6 5 4 4 3 3 24 20 23 34 38 37 40 44 46 51
73 78 89 98 80 88 99 100 100 99 98 99 99 98 96 98 98 97 97 81 24 20 14 9 7 6 5 5 4 4 3 5 16 30 28 19 33 30 40 42 48 51 54
97 98 100 100 100 100 99 100 100 100 100 98 99 96 97 98 76 37 23 19 13 9 8 7 6 6 5 5 4 4 9 18 23 35 32 17 39 33 40 42 48 53 58
98 100 94 99 98 99 100 99 98 97 96 96 96 60 28 24 22 17 14 11 8 8 7 7 6 6 5 4 6 11 27 29 29 36 40 30 35 34 38 43 53 59 65
100 99 99 98 97 97 97 98 98 97 47 24 26 23 18 16 14 11 9 9 9 8 8 7 6 5 5 8 26 33 34 35 33 33 45 32 39 41 31 37 41 52 63

GFSMA_700_rhum_036.txt.gz
RH
48 49 48 47 46 48 48 48 49 50 52 54 54 54 53 54 52 52 50 46 40 33 32 30 27 25 23 20 18 17 17 17 18 19 20 20 20 19 19 20 20 20 20
48 48 50 49 48 48 49 49 50 51 52 55 57 55 55 56 55 52 49 47 42 35 34 34 34 34 34 35 35 36 35 35 35 34 32 28 24 20 17 17 19 20 21
51 50 50 50 50 49 49 50 52 52 53 54 58 57 57 57 56 52 50 47 43 36 37 38 38 38 39 39 40 41 41 41 41 40 39 37 36 35 35 34 32 28 22
57 56 52 51 52 52 51 52 56 54 57 57 59 59 60 59 55 51 52 50 45 38 39 41 41 41 40 40 40 41 42 43 44 43 42 42 41 39 36 34 33 33 33
54 54 57 56 55 54 55 57 60 58 62 60 60 60 62 57 54 51 53 52 47 41 39 43 44 44 43 42 43 43 44 44 45 45 44 43 43 42 40 37 36 34 33
50 51 52 56 54 52 57 60 63 63 69 62 60 63 60 53 52 53 55 55 50 44 41 44 46 46 46 45 45 45 46 47 48 47 46 44 43 43 42 40 38 35 30
59 54 53 52 51 52 59 63 63 64 65 60 64 63 57 53 49 51 56 56 53 47 44 45 48 49 49 48 48 48 48 49 49 50 51 51 51 50 47 44 41 37 28
57 63 61 56 56 55 60 63 61 63 62 64 66 60 54 51 46 53 59 58 56 52 47 47 49 51 52 52 52 51 51 51 50 50 51 51 53 54 50 46 43 39 28
56 56 59 57 62 64 60 64 62 64 69 72 67 62 55 51 51 59 63 63 60 56 52 50 51 53 55 56 56 56 56 55 54 53 53 54 56 54 52 48 46 38 25
66 62 55 63 67 64 61 65 66 68 69 66 68 62 59 57 58 59 66 67 65 61 58 56 55 56 56 59 59 58 58 58 57 56 55 56 55 54 54 50 44 29 21
69 74 70 63 66 66 68 68 71 69 69 71 71 69 70 72 68 68 71 75 74 70 67 64 61 60 59 59 59 59 60 59 60 60 61 59 58 55 54 50 33 21 20
48 53 60 66 67 73 71 69 70 66 73 82 79 81 81 90 86 86 89 94 85 78 75 76 70 67 65 64 63 64 64 64 64 64 63 63 61 58 54 38 22 22 23
51 58 63 62 64 63 69 76 76 75 81 96 96 99 99 100 98 93 96 91 95 91 87 82 81 82 83 80 75 71 71 72 71 69 68 67 65 60 40 22 23 23 18
33 39 46 63 70 76 68 73 77 80 86 90 97 98 98 96 98 96 99 100 97 100 99 97 89 84 88 87 83 89 92 79 79 76 75 71 67 38 23 24 19 13 10
34 34 34 43 60 69 71 70 70 77 81 84 90 94 94 92 93 99 100 96 96 97 100 98 100 99 92 88 88 97 95 90 88 81 79 72 35 24 22 14 10 6 5
39 37 36 33 36 60 78 77 73 77 82 92 98 99 97 100 95 100 95 85 100 99 100 99 98 99 99 95 98 100 95 92 89 87 69 30 24 20 13 8 6 4 3
46 42 37 36 43 62 72 80 80 83 83 86 92 97 100 98 99 94 90 98 100 100 100 99 99 99 100 100 98 98 97 94 90 80 32 23 14 10 7 5 3 3 2
63 52 45 39 37 40 48 72 81 77 83 88 95 100 100 97 100 98 98 99 100 100 99 100 99 99 99 98 96 96 97 93 74 24 17 10 7 5 4 3 3 2 3
75 63 47 46 43 42 47 54 69 82 78 78 85 87 100 98 100 100 100 100 100 99 99 98 98 98 98 98 97 96 96 56 19 11 7 5 5 4 3 2 4 6 8
85 80 65 63 56 52 59 54 57 68 84 87 93 95 99 100 100 100 100 100 100 99 98 98 100 98 97 98 97 76 22 12 8 6 5 4 3 3 7 10 12 17 19
86 80 78 79 68 56 58 66 64 65 85 98 99 95 99 100 100 100 98 99 98 96 96 98 97 95 97 77 21 14 9 7 6 5 4 4 6 15 17 20 22 22 22
87 84 92 67 60 57 66 76 84 74 78 98 99 93 100 100 99 99 98 98 97 97 93 97 97 40 21 14 8 7 6 6 6 5 5 9 24 25 28 28 30 31 30
52 56 64 67 79 81 98 100 100 100 100 100 99 100 99 100 97 96 96 97 95 93 76 29 18 12 9 8 8 7 6 6 5 8 14 20 36 26 29 31 34 36 37
72 74 93 96 99 100 99 96 100 100 99 93 98 99 94 91 91 95 98 73 33 23 16 10 9 9 9 8 8 7 6 5 7 31 36 25 38 26 27 34 40 44 48
95 100 98 100 100 97 95 98 98 98 97 95 96 96 98 80 42 26 24 20 14 10 10 10 10 9 8 7 6 5 7 20 30 42 43 32 38 29 31 37 40 43 49
100 99 97 97 96 97 98 96 97 97 92 86 45 27 25 23 18 15 13 12 11 11 10 8 6 6 6 5 6 16 32 37 42 41 38 31 36 35 27 36 38 42 43

GFSMA_700_rhum_039.txt.gz
RH
48 46 47 48 47 46 46 47 48 49 49 50 52 54 55 54 54 54 51 46 46 43 37 33 32 30 28 26 24 23 22 21 20 18 18 17 17 18 19 19 19 19 19
50 48 48 48 49 48 47 47 48 49 50 50 51 53 57 56 54 56 53 47 46 45 39 34 35 35 35 35 35 36 35 36 36 36 36 35 34 33 32 32 29 24 19
51 50 50 49 49 50 49 49 48 48 50 52 52 54 56 58 57 57 55 44 48 47 42 36 37 38 38 38 38 39 39 40 39 39 40 40 39 38 37 36 34 32 32
55 54 54 52 51 51 50 50 50 50 50 53 54 55 57 59 58 59 55 47 48 50 45 38 38 40 41 40 40 40 40 42 42 42 42 42 41 41 40 39 37 35 34
56 56 57 59 56 57 54 53 54 54 53 56 58 59 61 60 59 60 52 50 49 53 49 42 39 41 42 42 42 41 42 42 44 45 46 45 43 41 39 38 38 37 36
47 48 50 53 51 50 57 58 59 59 58 60 61 62 65 61 61 60 49 49 50 56 52 46 41 41 44 45 45 44 44 44 44 44 46 46 46 47 47 46 44 42 39
51 46 53 57 55 54 52 56 54 54 59 61 61 63 65 62 63 59 49 46 52 58 55 51 46 43 44 47 48 48 47 47 47 46 46 47 46 46 46 47 47 44 42
49 52 55 59 65 64 61 57 55 56 60 63 62 65 62 63 63 58 53 50 52 59 58 55 51 47 46 48 50 51 52 52 51 51 50 49 49 49 49 49 49 47 44
53 59 59 62 60 64 68 66 65 64 64 70 67 67 68 67 64 59 57 56 56 57 62 60 57 53 50 50 51 52 54 56 56 56 54 53 52 51 51 51 50 49 46
49 57 60 61 66 63 62 60 64 69 73 71 73 67 68 69 68 62 60 62 62 63 65 66 63 60 57 55 54 55 56 58 59 59 57 56 54 54 54 55 55 54 51
35 56 71 77 74 66 69 70 66 62 68 72 75 76 78 73 72 69 65 65 68 76 80 78 73 68 65 63 62 60 60 60 60 60 59 59 57 56 57 56 56 56 54
40 38 48 60 68 72 70 72 70 68 69 76 73 72 73 76 78 80 85 84 83 84 88 82 88 80 76 74 73 70 69 68 67 65 64 63 62 60 61 60 62 57 56
56 55 56 53 52 55 60 68 72 69 66 73 77 73 77 83 83 97 99 94 93 84 86 93 81 89 91 88 83 82 80 81 82 81 79 78 84 72 71 73 65 62 52
64 64 58 57 56 60 66 66 66 68 67 70 84 81 80 88 95 94 93 100 100 96 89 98 96 94 99 100 90 100 92 87 89 88 83 84 91 84 78 73 66 61 28
39 39 41 35 36 39 46 58 68 71 70 73 76 91 92 91 97 100 100 100 100 99 99 100 99 99 98 98 100 87 98 98 93 99 97 98 95 90 87 77 68 33 24
39 43 42 44 44 42 40 38 45 65 75 74 74 78 84 89 98 100 100 99 98 99 100 99 96 100 97 97 100 100 100 99 100 99 99 98 96 92 86 78 35 23 14
42 42 44 47 51 51 49 49 48 57 62 69 79 80 80 87 94 100 100 92 92 100 95 98 100 99 100 100 99 98 99 99 97 98 98 99 97 97 90 47 22 14 8
46 70 64 60 59 55 51 50 48 50 68 77 82 86 91 91 93 94 90 100 100 100 94 98 98 99 100 98 99 98 95 93 94 96 96 98 97 75 28 15 10 7 6
61 72 84 80 77 74 74 58 55 48 48 57 73 87 94 93 95 93 94 95 100 100 100 100 97 99 98 99 98 96 90 91 95 98 98 86 26 13 8 7 7 7 5
75 86 81 81 88 94 83 83 64 60 54 53 59 71 87 91 96 91 90 99 100 100 99 99 98 98 95 97 98 96 95 100 96 48 15 11 8 7 7 7 6 5 6
77 88 87 82 82 87 85 80 77 71 68 74 64 63 76 95 100 98 100 100 99 100 99 99 98 95 98 100 100 100 89 36 18 10 9 8 8 8 7 5 7 13 20
60 57 53 57 72 91 92 73 74 79 89 67 88 86 95 100 90 99 99 87 100 96 95 97 97 98 100 97 50 20 14 11 11 9 10 8 6 5 7 18 28 27 21
36 37 40 49 59 78 76 81 86 90 100 100 100 93 95 100 99 100 100 98 95 98 99 98 100 58 23 14 11 11 11 11 9 7 6 5 12 18 31 33 28 24 24
40 55 71 72 90 88 99 90 96 97 99 100 100 98 99 94 99 99 91 90 95 78 49 26 18 13 12 12 11 8 6 6 6 7 15 17 37 32 31 29 29 29 30
78 86 80 86 96 100 94 98 97 98 100 99 98 97 98 97 89 76 41 28 23 19 15 13 13 10 6 5 5 5 5 5 16 27 39 33 37 31 27 31 38 40 40
97 95 93 85 89 93 93 96 96 96 96 94 91 47 28 25 22 19 17 16 14 13 9 5 4 4 4 4 4 10 19 22 31 36 38 37 40 34 27 34 37 37 36

GFSMA_700_rhum_042.txt.gz
RH
48 47 46 46 47 47 46 44 45 45 47 48 50 51 52 54 56 55 54 54 53 42 44 41 35 33 33 32 30 29 27 27 26 26 25 24 23 21 20 18 18 18 18
54 53 50 49 48 47 48 48 48 46 46 46 48 51 52 53 55 57 55 56 56 43 41 43 38 34 35 35 35 35 35 36 36 36 36 36 36 36 34 34 33 33 32
57 57 56 52 50 49 49 49 50 50 49 47 48 49 52 54 55 57 57 57 57 46 42 45 43 37 36 38 38 38 38 38 38 38 37 38 38 39 39 38 38 36 35
51 57 57 56 54 53 53 52 51 50 50 50 51 50 52 55 56 59 59 57 59 49 44 46 47 41 37 39 40 40 40 40 40 40 41 40 40 40 39 39 38 38 37
40 51 60 61 59 58 61 61 58 58 56 54 55 55 54 58 59 61 61 59 58 51 45 47 51 46 40 40 42 43 43 42 42 43 43 44 44 43 42 42 42 42 41
36 42 51 56 53 52 50 53 52 53 63 65 63 60 57 60 62 63 64 61 61 53 44 49 54 51 45 42 43 45 45 45 45 45 45 45 45 45 45 45 45 46 46
42 38 46 55 54 50 50 59 58 56 60 62 61 58 62 68 66 67 67 62 63 55 48 43 57 55 51 46 44 46 47 47 48 48 48 48 47 46 46 45 46 46 46
46 42 42 45 53 57 56 59 62 66 64 61 60 63 67 67 67 67 65 65 65 59 53 50 56 56 56 53 48 47 47 49 50 51 52 52 52 51 50 49 48 47 48
52 50 48 45 51 55 62 65 64 64 70 71 67 68 68 67 68 68 68 70 69 62 58 56 57 59 60 59 56 52 50 52 53 53 53 54 55 56 53 51 50 49 48
26 46 54 53 56 60 61 63 70 70 71 68 70 68 71 71 74 71 71 71 67 65 63 62 65 67 69 66 64 60 57 56 56 56 57 56 57 58 58 56 55 53 53
26 27 30 38 57 67 65 72 72 69 68 74 71 70 75 77 74 75 78 74 73 73 66 73 78 78 78 81 78 75 68 67 65 65 64 63 62 63 63 62 61 60 59
18 22 32 37 39 44 57 62 74 81 78 74 72 74 72 76 80 77 79 80 81 81 79 81 85 87 90 99 93 89 84 79 77 77 76 76 76 78 80 77 76 83 82
32 21 48 52 52 57 58 61 60 60 62 63 69 69 73 77 82 89 92 88 91 93 94 96 99 99 100 100 98 91 98 94 100 93 94 96 93 91 92 89 85 86 88
26 37 41 55 58 61 67 70 71 71 70 70 71 70 69 71 77 78 92 98 99 100 100 99 95 92 100 99 96 99 99 100 100 99 99 100 100 100 100 100 100 97 94
33 34 41 43 40 40 40 45 42 44 55 57 63 72 77 78 83 85 85 97 99 99 99 96 95 100 100 100 100 98 100 99 100 100 100 99 99 98 99 99 95 91 96
37 38 41 45 45 47 48 49 49 50 50 56 66 65 68 80 84 91 96 100 100 99 99 100 100 99 99 99 97 100 99 99 100 100 98 99 98 95 94 88 88 88 93
43 49 49 47 46 45 46 53 59 59 60 59 70 72 77 78 80 86 91 94 99 100 99 99 99 99 99 98 100 98 100 100 98 90 93 94 92 91 87 89 92 94 98
26 26 28 30 32 46 71 72 64 67 69 70 80 83 77 77 86 89 95 98 100 100 99 99 98 100 96 97 99 99 100 100 100 99 88 91 92 91 90 95 93 74 34
42 41 39 35 37 49 76 80 74 81 80 82 88 86 89 80 64 77 97 99 100 100 100 99 99 100 99 99 95 96 100 100 94 97 99 94 92 92 67 24 14 11 10
28 35 40 43 49 61 76 78 78 81 83 84 92 80 90 86 72 59 80 96 99 100 100 99 96 99 99 99 98 100 100 97 97 97 89 76 34 16 11 10 10 9 10
38 39 42 42 42 46 68 78 86 91 90 80 78 75 71 95 91 86 90 100 100 100 99 100 92 100 99 100 100 99 96 94 75 26 18 12 11 11 10 10 9 8 7
37 28 30 35 36 43 49 57 61 83 79 74 74 73 95 98 100 99 100 99 99 98 100 91 98 99 100 99 93 64 24 19 13 11 13 11 9 7 6 5 6 9 15
25 25 28 28 31 35 42 56 65 99 97 99 99 100 100 100 100 100 96 99 99 97 99 100 98 93 59 26 20 14 13 12 7 5 3 4 4 5 10 21 28 28 25
31 36 37 48 64 72 89 100 100 93 94 93 98 98 97 98 98 98 97 97 96 92 73 39 24 19 16 14 12 7 4 3 3 4 4 8 14 24 32 35 30 27 30
62 69 77 75 75 77 82 88 93 96 91 89 92 94 97 88 77 49 38 28 22 20 18 16 15 11 7 3 3 3 3 5 10 15 16 22 26 27 32 34 34 37 39
67 70 69 51 36 27 25 26 28 25 25 22 23 23 24 20 19 18 14 11 10 8 6 4 3 3 3 3 4 9 13 16 21 26 26 25 31 29 31 38 41 39 37

GFSMA_700_rhum_045.txt.gz
RH
48 49 48 47 46 46 46 47 46 46 45 45 45 45 46 49 50 53 55 57 56 56 55 38 39 39 35 32 32 32 31 31 31 31 31 31 30 30 30 28 25 23 20
53 51 52 54 51 49 48 47 47 48 48 48 48 47 48 48 49 50 53 56 58 57 57 47 40 43 40 34 34 35 35 35 35 36 36 36 36 36 36 36 36 35 33
45 46 51 55 58 58 54 52 50 50 50 50 50 50 50 50 50 52 53 55 59 59 58 56 40 43 45 38 36 37 37 37 37 37 38 37 37 38 37 37 37 38 37
35 38 42 46 52 58 60 59 57 55 55 55 54 52 52 53 54 54 55 56 60 61 60 58 45 43 47 44 39 39 39 39 39 40 40 40 41 41 41 40 38 36 35
36 37 38 39 42 53 58 60 61 60 59 58 61 62 60 57 59 57 57 58 60 64 62 61 52 45 46 50 43 40 42 42 42 42 42 42 43 43 43 43 44 44 43
42 42 41 42 38 40 48 53 53 52 51 52 56 57 62 62 62 60 59 62 63 64 65 65 57 49 46 54 50 44 43 44 45 45 45 46 46 45 45 45 45 45 46
48 47 44 43 47 42 45 58 58 54 52 66 69 63 64 63 59 58 59 63 63 69 66 66 62 55 49 55 55 50 46 46 47 48 49 49 49 49 49 49 48 47 48
54 48 42 38 45 48 50 50 51 58 61 64 68 78 75 68 62 60 65 68 68 68 67 69 66 60 57 56 61 57 53 48 49 50 50 52 52 53 53 52 52 51 48
30 48 46 45 48 49 50 54 56 60 63 66 70 73 78 74 70 68 69 70 70 71 72 74 73 67 64 62 65 65 60 57 53 53 53 53 54 55 56 55 55 54 54
23 25 32 34 32 39 43 49 54 59 73 68 67 71 75 77 77 75 72 74 73 74 76 77 77 72 74 79 69 70 70 66 63 59 59 59 60 61 61 61 61 61 62
23 27 31 37 41 41 43 40 42 58 66 79 74 75 81 79 77 79 78 72 74 76 84 97 98 84 85 82 82 80 76 90 84 92 88 90 70 68 69 72 74 77 80
16 14 14 15 26 39 46 53 56 59 57 66 64 66 73 83 83 81 80 82 84 88 95 97 99 96 91 88 91 87 98 100 100 98 100 98 83 82 80 89 98 89 89
20 19 19 21 70 52 55 63 62 67 72 74 77 77 99 81 91 83 86 83 83 86 93 100 100 100 100 100 99 100 97 99 98 99 97 98 96 100 100 100 100 100 99
33 32 31 30 28 30 38 50 56 58 63 68 76 82 98 99 99 97 98 99 98 95 89 84 93 98 100 99 99 100 100 100 100 99 99 100 100 100 100 100 100 100 99
41 41 38 36 36 35 34 36 55 44 40 41 50 54 63 65 72 82 73 97 98 98 99 96 99 98 97 100 99 99 99 99 99 99 99 99 99 99 100 100 100 99 98
26 33 40 42 41 42 42 42 42 42 43 45 50 62 67 75 76 84 83 99 100 100 94 88 99 96 96 99 99 99 99 99 99 99 98 98 99 100 100 100 100 95 89
25 26 28 28 29 31 37 46 54 58 61 66 60 58 58 66 80 79 82 91 99 100 100 97 99 100 99 100 96 99 99 99 95 99 98 98 99 100 99 100 98 95 88
44 43 40 35 33 34 35 37 42 53 73 74 69 71 69 75 80 82 84 81 89 99 97 100 100 100 99 100 100 99 99 99 98 95 100 98 100 99 97 97 92 88 84
31 26 28 28 31 30 30 34 52 64 73 79 81 70 84 91 88 93 88 96 90 85 99 99 99 100 99 99 99 100 100 96 100 100 98 95 91 93 94 89 81 60 37
21 24 28 27 25 28 31 33 40 44 51 69 80 83 84 88 81 83 86 95 89 90 96 99 95 98 100 100 100 99 100 99 99 96 88 88 88 69 38 22 16 13 12
20 21 25 23 21 26 28 33 39 43 46 55 72 86 80 75 78 94 78 99 99 100 99 98 95 99 100 100 100 98 96 95 96 80 43 24 18 13 12 12 12 12 10
20 18 18 20 22 23 25 31 37 44 51 56 71 71 87 84 77 84 95 99 100 100 99 100 99 100 100 99 98 98 70 29 21 15 15 12 12 9 6 4 4 4 4
21 23 26 30 35 50 54 57 64 66 72 77 83 85 93 93 90 99 97 94 98 91 93 99 99 100 94 55 24 21 16 14 12 8 4 3 3 3 4 7 11 19 25
33 52 58 61 55 46 41 52 65 76 82 76 69 85 92 95 92 81 78 79 82 74 55 38 24 21 18 17 14 11 7 4 3 3 3 5 9 16 22 25 26 28 27
54 57 54 39 27 24 24 23 23 22 21 19 17 17 18 19 21 19 17 16 15 13 12 10 8 8 6 4 4 3 3 3 4 8 12 16 21 26 29 30 31 32 32
31 29 27 25 24 24 23 19 11 7 5 4 3 3 2 2 2 2 2 2 2 2 2 2 2 3 3 3 3 3 5 11 15 20 22 24 26 26 35 40 38 37 37

GFSMA_700_rhum_048.txt.gz
RH
47 49 49 49 48 46 46 45 45 46 47 47 47 48 48 48 48 49 50 53 55 58 59 58 57 46 38 41 35 33 33 32 32 32 32 32 32 32 32 32 31 29 28
51 52 52 54 56 57 57 51 49 49 48 48 49 49 50 50 50 50 50 50 54 56 60 60 59 56 41 43 41 36 36 36 35 35 35 35 36 35 36 37 37 36 36
42 41 43 44 47 51 56 59 60 57 53 52 52 52 51 52 52 52 52 53 53 56 58 62 61 60 48 44 46 40 38 38 38 37 37 37 37 38 38 38 37 37 37
36 34 32 30 31 36 42 47 57 61 60 61 62 64 66 63 60 56 55 56 57 58 60 62 64 63 57 46 48 47 41 40 40 40 40 40 40 40 41 42 41 39 38
37 38 37 35 34 35 35 36 39 49 55 55 55 56 58 58 59 61 62 64 62 59 62 65 67 66 65 53 50 52 47 42 42 43 43 43 43 43 44 44 45 45 45
43 42 43 45 51 48 43 41 39 41 47 53 54 52 57 57 58 59 61 61 61 60 64 69 73 71 70 61 53 55 54 47 44 45 46 46 46 46 46 46 47 47 47
44 46 45 47 52 49 49 52 50 47 50 53 57 55 59 70 70 66 65 62 60 65 72 73 80 77 74 71 62 59 60 54 48 47 49 50 50 50 50 52 51 52 52
45 44 48 46 43 42 44 48 58 59 56 58 60 64 66 66 62 65 76 73 70 70 73 75 74 78 77 80 72 69 66 63 54 50 51 52 53 54 54 56 56 56 55
21 27 36 34 29 26 25 29 40 56 57 63 67 72 77 72 69 69 71 74 76 78 78 73 76 79 84 91 88 77 78 74 60 56 54 54 56 57 57 60 61 60 60
18 20 23 26 29 30 28 28 32 37 44 50 64 66 72 82 84 78 73 75 76 75 77 80 82 84 89 100 100 95 92 92 91 73 58 58 59 67 59 61 64 67 66
18 19 23 28 33 43 48 46 44 50 52 54 53 59 89 79 77 82 80 86 87 84 82 85 80 90 99 100 99 100 100 98 93 94 89 65 85 91 94 64 67 74 74
16 14 14 16 18 18 21 61 52 52 52 68 72 63 62 68 94 98 93 95 85 81 84 84 97 98 96 97 100 100 100 100 97 100 96 84 98 100 100 99 100 94 96
15 17 17 17 19 21 24 46 76 74 64 73 77 73 69 68 73 85 81 91 95 97 99 92 91 96 99 100 100 99 100 100 100 100 100 100 100 99 100 99 100 98 99
26 30 34 35 35 35 33 31 33 35 42 46 52 57 49 47 52 57 67 80 83 74 96 97 100 100 98 99 92 97 100 99 99 99 99 99 99 99 99 99 99 99 99
27 29 33 38 41 42 40 38 37 37 37 38 41 43 44 48 52 59 67 69 75 80 75 80 82 98 97 100 100 100 100 99 99 99 99 99 98 98 98 98 99 99 99
13 14 17 21 28 33 36 39 41 41 40 42 42 43 42 48 57 60 64 67 78 92 90 74 76 98 98 100 99 94 99 99 99 99 98 99 99 98 99 98 98 98 98
18 24 28 31 33 33 32 31 31 31 31 30 32 38 42 53 62 65 66 70 74 80 86 94 91 92 98 99 98 96 98 98 98 99 98 98 95 99 99 100 100 98 100
39 41 43 43 39 31 29 28 26 23 24 33 39 47 60 75 79 69 76 90 92 93 99 99 99 88 98 99 98 98 98 98 98 99 100 97 100 99 100 100 98 90 90
38 39 34 21 21 25 29 27 25 23 29 35 39 43 55 63 71 76 78 80 78 82 87 98 98 94 95 97 98 99 98 97 100 100 100 99 99 100 97 93 89 88 89
23 20 15 18 25 24 23 23 22 24 32 40 38 40 45 47 57 65 76 76 75 86 93 94 97 99 99 98 97 98 98 98 99 99 99 100 94 93 94 81 58 35 22
16 14 16 20 18 18 20 21 22 27 33 38 45 44 54 57 61 74 78 78 80 88 87 98 99 98 100 99 99 100 100 98 98 97 97 94 67 32 21 17 15 14 12
17 17 19 19 22 25 26 40 47 53 60 58 58 57 61 65 73 72 71 86 97 93 94 88 90 94 99 100 99 99 100 100 91 41 23 18 16 13 11 8 5 3 3
32 22 27 38 42 52 47 42 46 58 64 63 42 38 62 69 71 74 58 54 75 87 96 96 98 98 97 86 77 66 29 20 16 14 12 10 7 4 3 3 3 5 6
41 41 51 58 46 30 22 22 21 19 15 12 8 5 6 7 19 25 14 10 11 13 14 16 18 18 17 16 13 12 10 8 7 5 3 3 3 4 8 11 14 16 18
47 44 39 30 24 23 23 20 13 9 7 6 5 4 4 3 3 2 2 2 2 2 2 2 2 2 3 3 3 3 4 4 3 4 4 7 12 16 19 21 22 22 23
27 27 25 23 24 24 18 14 11 10 10 10 9 8 6 5 4 4 4 3 3 3 2 2 2 2 2 2 2 3 3 4 4 9 15 18 23 26 27 28 29 30 32

GFSMA_700_rhum_051.txt.gz
RH
46 47 49 50 50 50 49 48 47 46 46 46 46 47 48 49 49 50 50 50 52 53 54 56 58 61 60 56 41 42 37 35 34 34 34 34 34 34 34 33 33 32 31
46 52 53 54 56 60 63 64 64 61 58 55 52 51 50 50 50 51 52 52 52 53 55 57 58 61 62 61 50 44 43 38 37 37 37 36 36 36 35 35 36 36 36
37 41 43 46 47 46 45 45 48 54 59 62 62 61 60 59 58 57 56 54 54 55 56 58 61 62 64 65 60 48 48 43 40 40 40 39 39 39 39 39 39 38 38
44 40 37 36 35 34 32 31 34 37 44 54 64 68 68 66 64 63 62 62 63 60 61 61 64 65 66 68 67 57 50 50 43 42 42 42 42 42 42 41 42 42 41
40 38 35 33 36 36 37 38 37 38 38 36 40 47 51 53 53 52 53 58 61 66 69 68 68 72 71 72 71 68 56 54 50 44 44 45 45 45 45 45 45 45 46
42 41 40 42 42 43 44 46 47 44 42 43 41 38 42 48 55 54 59 69 68 67 67 68 75 80 79 81 79 76 68 61 58 51 46 47 48 47 47 48 48 49 49
39 48 48 49 51 51 48 48 46 43 43 50 53 50 55 57 53 53 63 66 71 75 72 73 76 84 87 88 87 83 82 74 68 57 48 48 50 50 51 52 52 52 53
22 27 37 43 46 41 43 45 41 40 44 48 60 71 71 66 62 64 66 71 69 73 79 81 81 82 86 84 86 88 89 87 78 69 56 49 51 53 53 53 55 56 56
14 16 33 30 35 36 26 23 21 21 30 31 33 56 64 58 60 66 65 68 75 75 76 81 83 82 84 88 92 99 97 98 95 81 65 54 52 54 56 58 56 58 60
15 17 18 20 23 25 26 27 27 29 32 36 42 41 45 53 60 55 58 70 75 81 82 80 85 84 83 86 94 100 100 100 100 100 77 69 75 54 56 58 60 61 59
19 20 22 22 23 26 31 35 42 42 39 39 43 48 50 52 62 64 63 61 67 88 90 86 81 84 89 95 99 99 100 100 100 99 98 97 100 94 69 59 62 83 92
21 20 18 18 18 19 20 22 28 34 54 54 60 62 64 70 71 78 76 73 70 77 94 86 90 91 99 99 100 100 100 100 100 100 99 98 98 100 98 84 81 89 98
19 18 16 15 15 18 21 23 26 28 36 55 79 85 78 81 78 61 60 56 52 53 57 58 65 81 85 94 90 99 100 100 99 99 98 99 99 99 99 98 98 97 99
18 18 19 22 26 29 33 36 37 37 36 36 38 38 39 44 46 46 48 50 52 55 55 55 58 66 75 85 92 83 98 99 99 100 100 99 99 96 98 99 98 98 98
26 27 27 27 27 30 33 39 40 40 40 40 40 39 39 39 44 43 50 54 57 58 58 59 62 65 77 85 87 87 86 98 98 100 99 99 99 95 98 100 97 98 99
13 11 11 12 14 18 21 25 30 34 37 38 36 32 29 30 31 31 35 50 60 66 67 64 66 78 80 81 79 81 91 98 98 99 99 99 98 99 98 98 96 98 98
13 13 16 22 29 33 35 36 36 35 33 30 26 26 26 29 32 38 43 52 63 59 67 68 73 74 81 91 90 89 93 94 99 100 100 99 97 99 98 98 96 98 99
25 28 36 41 43 42 42 31 24 25 24 22 21 21 29 30 35 40 44 52 57 65 74 80 76 75 79 93 95 90 95 99 100 100 99 98 98 97 98 99 100 99 99
35 37 41 34 35 24 17 19 21 20 20 22 22 32 35 33 37 43 43 45 55 66 72 74 77 76 77 87 96 98 96 98 98 97 98 98 100 100 100 99 99 99 99
42 31 21 22 16 16 18 15 15 17 17 19 26 32 42 41 39 50 52 53 53 65 69 63 72 76 71 83 92 95 95 100 100 100 100 100 100 99 98 95 98 99 96
23 20 18 16 16 15 15 15 14 17 28 34 38 43 51 50 47 55 57 56 60 67 59 63 68 76 84 96 93 94 99 99 98 97 98 98 96 96 96 93 70 39 23
20 18 18 18 22 24 30 34 40 37 40 50 56 54 44 56 58 56 58 40 32 29 30 46 55 69 83 89 99 100 93 93 97 96 94 95 77 47 25 18 15 11 7
24 29 28 25 38 46 48 32 21 22 23 34 19 10 6 4 7 8 17 10 4 3 3 4 6 9 11 14 16 18 20 20 20 23 18 17 15 11 8 5 3 3 3
49 41 40 51 52 41 25 21 20 14 10 8 7 6 6 6 5 4 4 4 4 3 3 3 3 2 2 2 2 2 3 4 4 5 4 4 4 3 3 3 5 9 12
45 50 46 36 27 23 22 21 16 14 12 11 12 13 12 10 8 7 7 7 8 7 6 5 3 3 2 2 2 2 2 2 2 3 3 3 3 4 8 13 17 19 20
32 28 26 24 23 24 22 19 17 17 19 20 21 20 19 16 14 14 14 14 11 8 5 3 3 3 3 3 3 3 3 3 3 3 4 6 13 17 21 24 24 26 27

GFSMA_700_rhum_054.txt.gz
RH
47 47 48 49 50 51 52 53 54 54 52 51 50 49 50 50 49 50 50 51 52 53 53 53 55 57 58 58 62 61 48 42 39 36 35 35 35 36 36 36 36 36 35
42 46 49 52 56 58 60 60 60 59 60 62 63 62 60 58 56 54 53 53 53 54 54 55 56 57 60 62 64 65 60 46 44 40 38 38 37 37 37 37 37 38 38
37 37 37 44 49 48 45 42 39 37 39 44 53 62 66 68 68 68 67 66 65 65 63 61 59 60 61 64 65 68 67 57 49 46 41 41 41 40 40 40 40 40 39
38 45 48 45 41 38 35 35 35 35 34 37 40 45 51 58 63 63 61 60 59 60 64 68 70 72 68 69 69 69 71 68 57 52 44 43 43 43 43 44 44 44 44
36 40 41 41 41 39 36 38 42 46 48 47 44 42 43 42 46 52 58 58 56 59 64 68 72 74 73 74 76 75 74 74 70 59 53 44 46 46 46 46 46 47 47
30 32 34 39 42 43 46 46 49 49 48 49 46 42 47 50 49 46 51 54 58 64 72 76 75 73 73 77 80 82 82 82 80 73 63 53 46 48 49 49 49 50 50
25 28 26 29 47 52 53 54 51 45 42 50 50 42 40 49 53 62 65 66 64 66 70 73 78 82 80 82 85 91 92 88 86 85 77 66 50 47 51 53 53 52 52
17 16 18 19 22 29 37 48 56 62 47 33 29 27 30 29 27 43 60 64 66 69 70 75 80 83 86 87 86 89 94 91 90 88 92 82 67 49 49 53 56 56 56
18 24 26 22 23 17 31 43 24 21 21 24 30 35 36 40 38 39 42 49 56 61 61 70 90 90 89 91 93 92 94 100 100 100 94 100 88 64 48 50 55 58 58
17 15 15 16 17 19 20 22 26 32 60 45 35 44 46 47 50 50 57 50 56 70 70 80 78 84 86 83 87 93 100 99 98 99 100 100 99 95 72 48 52 57 60
13 14 15 16 18 21 21 23 25 41 35 25 26 22 29 41 48 56 52 61 64 67 69 71 75 80 98 91 86 88 99 98 99 99 100 100 100 99 99 57 50 76 57
15 16 18 19 20 20 20 20 21 22 22 23 24 29 40 46 61 78 76 67 60 62 54 55 54 51 61 70 69 71 88 99 88 98 99 98 99 99 99 98 97 96 80
19 20 20 19 18 17 17 19 22 25 29 34 52 48 62 73 79 83 49 39 37 37 39 40 40 46 54 58 67 65 75 76 90 98 99 94 98 100 98 98 99 99 99
17 17 17 17 17 19 22 26 32 37 47 49 76 50 50 48 41 41 40 40 38 36 29 34 41 44 51 56 58 61 70 91 98 88 88 100 99 98 99 98 99 99 99
20 25 28 26 25 23 22 24 28 33 38 45 45 46 46 50 41 40 34 27 28 28 26 32 38 43 50 54 55 65 72 81 84 81 97 91 99 96 98 99 98 98 99
28 21 18 14 12 12 13 16 18 21 26 31 35 38 38 36 29 24 27 29 30 34 36 36 43 47 52 58 60 66 78 77 86 94 91 92 98 98 97 99 98 98 98
23 23 19 15 16 22 33 38 39 40 40 39 32 29 27 25 23 26 29 32 37 38 37 37 49 53 56 57 64 61 72 80 98 98 96 99 98 97 100 96 98 98 97
28 29 28 29 35 39 43 40 40 24 20 20 22 23 21 20 25 30 29 34 41 41 39 48 55 64 63 61 68 64 72 76 87 98 97 98 99 100 98 100 98 98 97
36 36 37 38 38 30 28 19 16 19 20 19 20 20 18 22 34 39 33 34 46 50 46 48 54 58 48 57 68 56 69 69 75 88 94 96 97 98 97 97 97 99 97
37 40 41 35 22 20 16 17 16 15 15 16 17 18 23 30 37 45 45 41 49 50 48 50 55 60 60 59 62 59 61 69 76 84 95 94 95 94 96 98 98 96 97
43 43 29 22 19 17 18 19 23 26 28 35 39 44 50 50 48 52 52 49 49 28 21 13 10 10 6 8 14 32 51 51 58 55 68 84 91 97 99 100 99 100 99
43 28 22 19 19 21 25 35 41 36 27 33 42 41 14 8 6 10 8 11 14 6 4 4 3 3 3 3 3 4 4 6 8 13 19 35 56 83 85 84 76 57 34
27 23 24 29 26 34 46 44 26 19 17 13 11 8 6 6 7 7 7 7 7 6 6 7 8 7 5 4 3 3 3 2 2 3 3 3 5 7 7 9 11 10 8
38 48 45 36 48 50 40 24 21 19 15 13 12 12 13 14 15 14 13 12 11 12 14 13 10 7 5 4 3 3 3 3 3 2 2 2 3 3 3 3 3 3 3
48 46 48 47 40 28 23 22 20 17 16 15 18 20 22 23 24 22 20 18 19 19 16 12 7 4 4 4 3 3 3 3 3 3 3 3 3 3 3 3 4 8 12
39 36 30 27 25 23 24 22 20 20 22 24 26 28 31 32 32 30 24 21 20 16 11 6 4 4 4 4 4 4 4 4 4 4 4 5 7 9 12 15 17 20 23

GFSMA_700_rhum_057.txt.gz
RH
46 47 47 48 49 50 51 52 54 56 58 60 62 61 59 57 55 54 53 52 52 51 51 54 54 55 56 57 59 59 60 62 52 42 39 36 35 35 35 34 35 35 35
40 44 47 49 52 53 54 55 57 55 52 49 49 52 57 60 62 62 62 61 61 62 63 63 63 61 60 59 61 62 61 64 64 51 44 40 38 38 38 37 37 37 36
27 34 38 37 40 41 43 44 42 38 34 31 31 35 41 47 54 60 65 68 66 64 63 62 62 62 65 67 68 66 66 66 69 66 52 46 42 41 41 42 42 41 40
22 25 32 41 47 45 41 38 36 34 34 36 39 41 41 42 41 41 43 53 56 56 56 56 56 60 66 69 70 69 69 72 72 73 68 56 48 43 43 44 44 44 44
35 29 30 40 45 43 40 39 38 40 43 44 48 50 48 46 46 46 46 49 53 56 55 56 62 70 75 76 74 72 72 73 82 80 80 73 58 49 45 45 45 46 47
37 32 31 34 41 41 40 40 42 47 51 54 56 51 42 48 51 46 46 54 62 72 68 65 67 69 74 79 82 81 80 78 76 88 91 86 78 61 49 46 48 48 49
28 26 24 24 31 32 34 38 53 56 55 56 61 58 54 36 28 28 34 40 51 72 74 72 72 74 78 78 83 88 90 92 88 80 82 93 90 86 65 47 48 50 51
24 23 22 20 18 18 20 26 32 34 43 66 50 27 19 20 26 32 37 46 44 49 58 59 70 76 82 82 83 86 89 93 96 96 92 80 98 99 99 76 43 49 54
28 26 24 24 25 37 33 24 23 19 18 19 21 26 38 43 27 36 39 41 43 49 53 55 64 65 64 65 83 87 90 93 99 100 98 100 91 88 99 100 95 46 55
18 18 19 19 18 17 17 18 19 20 25 28 30 27 40 27 30 30 41 53 45 50 53 64 66 72 71 70 70 77 84 91 90 94 92 97 99 99 98 99 100 96 78
12 13 13 14 15 16 17 19 22 22 21 21 21 29 23 22 32 53 51 56 74 80 77 67 62 63 56 60 67 60 67 86 94 80 96 86 91 97 96 97 97 98 99
11 12 13 14 15 17 18 20 21 22 22 22 23 23 23 27 35 32 41 70 68 72 60 40 41 39 38 39 42 47 54 57 69 65 82 81 88 99 98 92 96 98 98
15 16 16 17 17 18 17 17 18 18 20 21 26 41 40 66 80 84 63 54 41 38 39 40 35 27 27 32 37 42 49 51 56 59 79 85 97 100 93 99 100 98 93
18 18 17 16 16 16 17 20 24 27 31 35 40 47 56 58 68 51 51 56 41 37 27 26 27 29 41 44 41 42 52 55 55 59 65 74 90 98 87 99 99 99 99
17 16 16 17 22 26 22 18 17 16 18 19 25 30 38 39 41 41 42 37 25 22 24 25 34 37 39 44 50 52 52 52 53 57 74 80 83 88 100 97 98 98 97
16 20 26 27 22 19 15 13 14 18 24 29 31 34 37 40 38 34 26 22 24 26 30 34 36 35 45 50 56 52 53 60 60 66 70 86 91 94 99 100 95 97 97
27 30 29 25 25 22 19 23 33 38 41 40 39 36 28 25 24 23 22 25 30 30 35 40 38 40 45 47 38 40 50 54 64 69 71 80 93 100 98 99 97 96 97
33 32 28 29 32 30 31 34 40 34 31 18 17 19 20 21 22 21 22 36 37 32 35 45 44 42 47 49 45 49 55 53 60 62 68 80 85 93 95 95 98 97 97
37 32 32 36 36 38 38 29 24 17 17 17 15 15 17 18 19 25 31 38 44 44 40 46 40 33 43 40 18 20 45 51 52 58 64 71 86 91 94 98 96 96 97
39 35 35 38 42 36 23 19 17 17 18 20 19 22 35 42 48 50 49 50 50 50 50 31 10 5 5 4 4 4 6 9 14 18 22 24 42 72 78 81 83 89 94
42 39 41 44 34 25 19 18 22 27 36 38 36 41 48 39 20 13 18 17 26 31 13 6 5 6 6 7 7 7 6 5 4 4 4 5 9 15 24 58 85 89 91
49 47 49 35 24 21 20 25 36 44 28 23 26 24 11 7 5 6 7 7 7 7 8 8 9 10 12 12 12 10 6 5 4 4 3 3 3 3 4 6 11 28 45
55 48 33 24 24 28 29 49 38 23 20 15 11 9 10 12 13 14 16 16 15 13 14 15 17 18 17 14 8 6 6 4 3 3 3 3 3 2 2 2 2 3 4
38 29 30 40 37 41 52 36 24 21 19 16 15 14 16 19 22 24 24 24 24 23 22 22 21 17 10 6 6 5 4 3 3 3 4 3 3 3 3 3 3 2 2
46 50 48 46 51 44 30 24 22 20 18 18 20 23 26 28 31 31 31 31 29 26 24 22 17 9 7 6 4 4 4 4 5 5 5 5 5 5 5 5 5 6 6
53 51 49 41 30 26 24 24 23 22 23 25 30 32 33 33 33 33 33 32 28 24 20 15 8 7 6 5 4 5 5 5 6 6 6 6 6 7 8 10 14 16 17

GFSMA_700_rhum_060.txt.gz
RH
43 44 45 46 46 47 48 49 51 52 54 55 57 58 59 57 57 58 59 60 59 58 58 58 59 59 61 60 59 59 60 61 60 62 58 44 39 37 36 35 35 35 35
41 42 44 48 50 50 51 51 51 50 47 44 43 40 36 33 36 41 47 53 59 64 66 67 66 64 64 64 64 62 62 63 64 63 65 59 46 41 39 38 38 37 36
27 25 29 37 38 36 36 39 41 41 39 35 34 33 32 33 35 38 38 38 42 48 54 57 57 55 56 57 59 63 68 69 68 68 67 70 61 48 43 41 41 41 40
38 35 24 26 30 32 37 41 41 38 37 37 36 39 42 43 48 47 45 44 43 43 44 49 53 54 57 59 63 65 65 67 71 70 70 72 74 66 51 44 44 44 44
42 42 39 31 30 32 35 38 40 40 40 41 44 49 50 53 54 54 49 48 48 49 54 55 56 58 59 64 68 71 69 70 71 74 76 77 80 79 73 55 46 46 46
44 42 39 36 33 33 33 37 39 40 41 48 56 59 63 64 58 58 52 44 36 39 53 65 74 75 70 68 68 72 76 77 76 76 80 84 84 87 87 81 61 47 47
36 34 30 29 28 26 26 25 30 34 42 42 48 41 45 57 62 34 24 26 34 36 41 43 56 75 74 72 71 73 78 81 88 88 75 77 83 86 88 95 90 65 47
25 25 24 24 23 23 23 22 25 32 31 30 36 37 25 22 23 23 48 37 39 47 47 48 48 52 57 62 70 75 77 82 87 93 90 88 81 81 87 89 89 97 97
31 30 30 29 27 26 28 31 34 40 39 29 42 34 46 35 35 26 31 26 27 31 36 44 49 52 53 58 67 71 72 81 90 94 98 94 94 98 98 89 84 94 97
25 21 18 16 16 17 19 22 20 20 21 21 23 29 45 45 25 31 20 22 26 36 37 49 68 69 68 70 71 73 69 67 81 80 81 92 82 95 91 99 97 97 84
21 17 14 12 12 13 14 15 16 18 20 21 22 22 22 25 24 23 22 29 50 45 63 69 66 72 54 39 39 40 41 46 57 58 57 76 87 92 99 94 89 98 97
17 14 12 12 12 14 16 18 19 20 21 22 22 22 21 23 38 42 38 63 73 66 54 52 42 39 39 37 33 32 31 34 39 46 52 61 67 65 88 90 96 99 98
13 12 13 14 15 16 17 17 17 17 17 18 20 22 25 30 36 49 50 63 74 67 47 47 43 36 26 24 24 27 29 31 35 40 42 47 50 61 72 87 87 96 89
13 14 15 16 16 16 16 15 16 19 24 26 28 29 32 35 39 48 59 63 74 46 44 37 25 27 28 36 36 34 37 39 39 42 43 45 51 53 66 89 94 96 85
17 19 18 18 17 16 18 23 24 20 16 14 13 14 18 22 28 35 60 47 46 43 28 22 27 34 37 36 43 50 51 51 44 45 47 52 53 64 70 82 89 99 82
20 20 18 18 18 25 28 24 20 17 14 16 25 33 36 37 40 43 39 33 29 27 25 30 32 42 41 40 45 47 42 37 42 44 53 59 62 71 75 80 87 92 100
20 21 22 26 27 29 25 24 23 22 28 36 41 40 37 30 24 24 25 25 24 25 38 36 32 43 47 44 45 45 42 42 46 45 52 54 58 66 75 87 99 100 98
22 29 32 32 33 29 29 32 32 34 35 33 29 18 17 21 22 21 22 21 24 30 37 44 43 44 44 43 47 36 11 20 38 46 48 51 50 53 65 74 85 91 92
36 34 36 37 35 31 37 37 38 36 26 18 16 15 15 15 15 17 21 31 40 44 48 46 49 44 10 5 5 4 4 5 7 13 18 20 12 12 29 65 76 83 86
39 38 41 43 38 36 40 41 29 21 17 18 21 25 27 32 39 44 39 40 36 42 48 44 19 7 5 6 6 6 6 7 7 7 6 5 5 5 7 12 29 62 77
40 45 49 49 40 42 47 29 21 19 23 32 36 30 33 35 19 8 5 5 5 5 6 7 7 8 8 10 11 12 13 12 10 7 6 5 5 4 4 3 4 4 8
48 51 56 55 55 51 31 22 21 27 40 32 20 19 14 9 8 9 11 13 14 14 13 12 12 13 15 16 17 16 14 10 9 6 6 4 3 3 3 3 2 2 2
58 58 60 60 53 33 25 24 32 44 26 20 15 11 12 13 14 16 19 21 22 23 23 22 22 22 22 21 17 12 9 7 6 4 3 3 4 4 4 4 3 3 3
60 61 60 44 34 30 30 45 46 27 21 18 16 15 16 19 22 24 27 29 30 30 29 28 26 24 21 16 10 8 7 5 4 4 4 6 6 6 6 6 5 4 4
51 41 35 36 43 43 55 42 26 22 20 19 19 21 24 28 30 30 31 32 32 32 30 27 24 20 15 9 8 7 5 4 4 5 6 7 8 8 8 7 6 5 5
50 54 55 53 59 52 32 24 23 22 22 24 27 30 30 30 32 35 35 34 34 31 27 23 20 15 11 9 7 6 5 5 6 6 8 10 10 10 9 9 8 8 9

GFSMA_700_rhum_063.txt.gz
RH
39 40 42 43 44 45 46 47 48 50 51 52 51 47 45 42 38 34 34 35 38 43 48 46 51 62 64 64 64 63 62 61 61 62 63 62 61 52 42 37 35 34 35
44 45 42 41 43 45 47 49 50 48 48 44 40 37 33 30 30 32 34 36 38 38 39 38 42 43 47 50 53 53 54 58 62 65 66 66 64 65 56 44 40 38 37
28 27 27 25 26 28 33 34 34 36 41 41 37 34 32 33 38 41 42 46 43 42 43 42 43 42 42 44 48 47 51 59 65 67 66 67 68 69 70 60 47 42 41
35 37 38 38 31 23 25 29 35 39 40 39 38 38 38 39 47 50 53 54 50 43 47 48 48 48 50 52 55 57 56 60 66 72 70 69 69 73 76 76 67 51 44
39 40 41 42 41 37 30 30 34 36 36 35 37 36 40 47 55 59 61 58 59 58 40 37 36 50 59 58 71 71 69 63 64 70 77 78 76 75 79 83 84 76 55
42 42 42 43 42 39 35 33 32 30 29 30 34 36 43 40 42 44 52 61 55 25 24 26 35 36 43 47 63 72 71 69 72 73 75 80 84 85 84 85 85 86 84
40 39 37 33 33 33 32 29 27 26 24 35 42 38 36 35 42 38 27 25 30 40 46 35 40 41 45 45 50 60 64 66 74 78 79 74 75 83 86 86 86 85 85
25 24 25 26 26 28 28 29 30 34 32 37 36 53 53 42 42 41 32 35 33 37 27 32 38 40 43 47 50 55 62 64 70 75 79 82 87 83 81 88 90 84 84
29 30 31 32 32 33 30 28 26 28 35 39 41 36 28 29 30 33 34 26 32 25 21 23 37 44 44 48 56 61 66 70 71 75 77 79 81 76 82 87 93 95 73
33 33 32 29 25 21 18 16 15 16 17 19 20 21 24 28 29 26 23 25 25 25 29 58 47 55 68 72 76 72 62 53 54 54 51 76 77 70 68 93 93 94 95
36 34 29 26 23 19 15 12 12 13 15 17 20 22 21 23 24 25 24 23 39 44 48 74 64 50 47 43 38 38 37 37 36 35 38 42 52 78 62 89 86 100 73
31 27 23 20 16 13 12 12 13 15 17 19 22 23 22 21 22 23 25 28 41 52 63 96 79 56 42 38 34 30 23 22 21 23 26 33 37 46 54 69 82 98 87
32 30 25 21 15 12 13 14 16 17 18 18 18 20 24 29 34 36 38 54 88 50 74 98 50 45 39 24 22 22 24 27 29 29 30 33 35 38 40 52 61 74 92
41 34 27 20 14 15 16 17 17 17 17 19 22 25 23 23 26 30 37 42 42 95 64 64 36 31 22 25 28 33 30 32 38 38 38 38 38 40 41 41 46 50 64
38 32 25 19 17 18 18 17 17 19 22 25 20 17 14 14 16 21 30 41 39 68 90 36 22 25 26 34 40 35 37 42 39 33 37 39 41 48 50 60 62 65 71
27 24 21 19 19 19 18 19 21 27 25 22 19 16 18 28 34 37 49 56 48 40 32 26 24 32 30 34 44 40 40 42 42 36 43 40 44 47 49 56 66 71 74
26 23 22 21 21 22 25 26 30 28 27 25 24 31 38 40 38 35 29 24 26 26 25 22 29 38 41 37 43 40 45 46 28 32 39 42 45 48 47 46 56 68 80
26 25 26 26 28 32 34 33 33 30 33 35 38 39 36 30 20 19 21 19 22 21 22 28 35 43 42 47 15 21 19 6 5 6 8 10 13 17 12 12 29 58 69
34 36 38 38 39 39 40 40 36 39 40 41 42 31 19 18 17 17 18 24 35 42 44 45 48 48 46 13 5 5 6 6 7 7 7 7 8 7 6 6 6 15 41
42 40 40 41 41 41 44 43 41 43 44 35 23 19 19 23 27 34 37 37 24 9 9 20 22 11 7 6 8 9 10 10 11 12 12 11 9 7 6 5 5 4 5
40 41 43 44 46 50 50 47 44 48 35 22 20 25 37 35 36 27 14 7 6 8 9 10 10 10 11 11 12 14 15 16 16 15 12 10 8 7 6 4 3 3 3
38 40 44 51 54 58 57 51 53 38 25 23 35 39 31 22 10 8 9 12 14 16 18 19 19 20 20 20 22 22 20 18 15 10 9 8 6 4 3 3 4 4 4
39 43 48 57 62 65 64 59 39 27 26 46 31 18 12 10 12 14 17 20 22 24 26 27 27 27 26 25 24 22 18 12 10 10 7 5 4 4 6 7 7 7 7
41 50 59 63 66 70 60 41 32 32 46 26 19 15 15 16 18 22 25 27 28 30 29 29 30 29 27 25 22 16 10 9 9 7 5 5 5 6 8 9 10 10 10
43 50 59 66 63 49 39 37 48 47 27 21 18 18 20 23 27 30 28 30 33 33 32 31 31 28 24 20 16 11 9 8 7 6 5 5 6 8 11 12 13 13 12
46 48 48 44 39 41 46 59 41 26 22 20 21 24 28 31 30 31 33 35 36 34 32 30 28 24 21 18 14 11 9 7 7 7 8 8 9 11 13 14 16 15 13

GFSMA_700_rhum_066.txt.gz
RH
38 39 40 42 44 45 46 47 48 49 49 50 48 42 38 33 30 28 28 32 36 37 39 36 34 34 36 37 39 40 43 46 49 52 56 62 64 65 64 62 50 41 38
38 42 42 36 29 29 30 34 38 38 37 34 34 35 33 30 30 32 36 40 42 44 44 43 39 41 39 40 41 43 47 50 51 52 57 62 64 66 68 69 66 52 44
44 32 27 31 32 32 28 21 22 24 28 33 36 37 34 32 32 34 37 46 51 52 51 56 55 48 44 43 42 48 52 64 61 64 63 67 68 68 69 71 73 72 56
29 31 36 37 38 38 37 36 28 24 25 28 32 31 29 28 29 37 40 45 40 39 47 58 48 31 26 30 35 42 42 46 61 66 69 68 71 72 74 75 77 79 79
34 36 38 39 40 41 40 36 36 33 28 26 28 31 32 38 41 46 43 40 45 43 25 22 24 29 30 34 36 38 44 47 51 60 64 73 74 72 74 79 81 82 84
36 38 39 40 39 40 35 32 28 28 28 27 29 28 33 39 37 32 42 40 38 35 34 31 30 43 32 37 42 45 47 46 52 60 64 67 74 78 77 79 79 82 83
39 39 39 34 28 26 26 26 27 28 28 30 34 36 49 46 43 50 41 40 37 38 38 28 39 25 24 28 36 45 48 51 56 58 64 75 75 78 82 90 84 81 84
31 27 25 25 26 28 30 32 33 34 33 31 27 28 34 34 34 32 24 20 20 26 30 28 24 23 30 38 43 43 48 55 60 58 66 74 78 81 83 86 74 82 81
30 29 28 29 29 30 31 31 28 24 20 17 19 20 36 26 21 21 25 24 23 25 29 27 29 34 63 52 65 72 78 77 75 72 68 61 67 73 76 81 81 78 76
35 33 33 31 32 33 30 27 24 22 18 15 14 15 20 25 33 24 23 24 25 25 24 28 42 47 70 64 52 50 47 40 40 41 40 40 40 42 57 72 73 76 78
35 35 36 37 35 31 28 23 19 16 14 13 16 17 18 20 22 24 24 24 28 25 26 39 38 53 78 82 69 43 41 37 36 31 25 24 26 28 32 48 75 79 99
39 42 41 34 31 30 26 22 17 13 13 14 16 18 19 19 17 20 24 28 31 36 45 96 92 49 90 56 43 35 22 20 21 23 25 27 28 28 31 41 54 68 82
44 40 38 43 42 38 30 25 17 14 14 16 16 16 17 20 25 30 30 29 36 51 100 88 70 88 58 49 32 17 20 22 27 31 29 34 35 33 32 33 35 34 36
42 45 45 42 40 38 31 24 18 15 16 17 17 19 23 28 25 22 20 20 28 81 77 98 100 70 48 27 20 21 29 33 31 31 38 34 31 34 34 37 41 39 40
50 50 44 38 34 30 26 22 19 18 17 18 21 26 25 22 18 16 18 23 59 76 100 71 39 39 24 23 28 27 34 38 35 36 39 35 37 38 36 46 48 50 56
53 51 42 36 27 24 22 21 21 21 20 22 25 26 24 21 19 25 34 38 72 99 96 41 26 23 21 31 36 31 35 41 40 39 40 38 37 36 42 43 43 47 52
57 48 38 30 28 25 24 24 25 29 30 31 30 28 27 28 34 42 42 38 33 33 28 24 22 21 27 32 40 39 39 38 43 22 9 14 20 23 24 22 14 16 24
44 35 32 28 26 26 27 29 32 34 37 38 35 36 38 39 42 38 26 22 22 20 19 19 28 38 41 42 39 41 8 6 6 5 6 6 6 7 6 7 7 6 6
36 28 25 28 34 37 36 37 38 39 40 40 40 43 44 43 32 20 20 18 18 26 37 37 38 42 44 42 30 8 5 7 9 9 9 10 10 10 11 10 8 6 6
34 35 41 40 39 40 40 39 39 43 46 46 45 48 41 26 21 21 28 34 38 32 10 6 6 8 8 7 7 8 10 11 12 13 14 14 14 13 12 10 8 6 5
46 46 44 42 40 38 43 45 44 47 50 46 50 41 27 22 31 37 34 25 9 6 8 12 14 15 16 16 17 17 18 20 20 20 18 16 12 10 9 7 5 4 3
49 46 44 42 40 40 46 52 54 58 53 55 44 29 26 44 41 22 10 8 11 14 17 20 22 23 25 26 26 25 25 24 23 19 14 12 10 8 6 4 4 5 6
52 47 44 41 40 45 54 60 62 67 63 47 32 32 47 34 14 9 12 15 18 22 25 27 28 28 27 28 28 26 25 23 20 14 11 10 8 6 5 5 6 8 9
53 47 42 39 40 53 64 68 73 68 49 34 35 42 18 11 13 15 19 23 26 27 29 32 32 31 30 29 28 25 22 18 15 13 12 9 7 5 5 6 9 11 14
50 40 34 45 46 59 70 75 65 49 40 56 37 20 15 16 18 23 28 30 28 34 35 35 33 31 29 27 25 22 19 16 14 12 9 8 7 8 8 10 12 14 17
42 29 32 43 52 66 67 55 43 46 57 28 22 18 19 23 27 31 31 32 33 37 38 38 35 33 28 24 22 19 16 14 14 13 14 15 14 15 16 16 17 19 20

GFSMA_700_rhum_069.txt.gz
RH
38 38 39 41 40 38 34 33 34 31 33 34 36 35 32 33 32 30 30 32 38 43 47 48 46 48 50 44 42 42 42 46 50 53 55 57 59 61 64 66 66 65 58
37 38 42 32 26 28 28 28 25 19 18 20 23 26 28 27 27 27 28 31 39 48 52 47 47 51 46 39 32 29 37 55 60 66 64 64 64 63 66 66 68 70 69
37 39 36 27 31 32 34 34 34 32 26 21 21 22 21 22 21 23 36 37 45 40 43 46 47 46 36 24 33 44 44 38 45 62 70 68 66 68 70 71 71 72 74
38 43 28 32 33 34 34 35 33 29 30 30 26 25 24 29 34 34 42 42 36 53 41 32 29 28 28 37 46 41 55 61 62 52 59 67 65 71 73 73 72 73 76
44 30 33 34 35 34 32 28 27 25 24 24 24 23 23 24 28 32 34 33 49 63 50 35 30 30 27 38 30 28 40 48 55 59 58 66 68 72 76 75 77 77 76
34 36 37 38 38 33 27 24 24 24 25 26 28 29 31 31 35 44 48 52 48 41 36 26 38 31 28 25 22 26 42 40 45 51 61 64 70 76 82 82 81 80 84
38 38 41 41 37 27 24 25 26 27 27 29 26 23 19 17 15 18 31 33 25 26 24 25 27 29 29 23 23 36 39 47 52 44 56 63 73 79 88 89 91 86 86
41 43 36 29 27 27 28 29 30 30 27 26 24 21 18 16 13 12 16 21 20 21 20 22 24 26 27 31 46 61 48 62 66 66 57 62 74 81 80 81 88 90 81
43 34 33 32 33 33 33 31 30 30 28 26 24 22 18 15 15 17 20 18 21 21 23 26 25 25 26 45 56 65 55 47 48 54 61 70 70 71 69 77 83 100 93
59 40 40 40 39 36 35 32 32 30 27 22 18 16 15 15 16 16 18 20 23 22 23 22 23 23 41 52 64 77 82 63 43 40 39 39 39 37 35 39 64 79 80
48 46 44 41 40 40 38 34 30 29 26 23 19 14 14 17 18 21 19 20 20 22 25 26 31 34 48 73 50 70 80 46 38 28 23 22 24 23 25 26 36 56 79
46 43 42 43 44 42 36 39 40 37 32 26 19 14 16 17 18 20 18 19 21 27 36 39 40 57 80 59 54 48 39 29 20 24 26 30 32 31 30 29 28 35 42
61 64 61 51 43 40 44 43 40 38 35 30 22 16 17 18 18 20 23 27 28 25 31 40 66 96 88 97 59 34 22 18 23 31 34 33 34 36 36 35 32 31 33
71 79 73 60 45 46 46 40 35 33 32 28 23 18 17 17 20 26 27 24 20 21 26 39 98 93 85 56 38 26 22 26 27 36 35 34 36 35 32 34 33 35 38
78 81 81 54 48 47 48 40 33 26 24 22 21 20 19 20 23 27 24 20 20 25 46 48 95 95 63 25 26 22 31 32 28 36 38 36 36 36 36 36 34 42 47
87 76 61 59 56 54 44 35 29 27 24 22 22 23 24 29 30 27 23 22 32 40 45 67 85 73 33 23 22 26 32 39 36 36 36 37 33 32 32 32 37 38 36
75 74 66 58 54 44 34 31 28 25 24 25 27 31 32 32 32 30 32 37 44 43 44 57 36 26 22 20 26 32 37 40 34 35 14 6 6 8 13 12 17 14 8
78 65 61 57 43 37 29 26 29 31 31 33 34 36 39 36 34 39 42 43 38 25 24 22 21 22 33 41 44 41 40 36 6 5 6 7 7 7 7 7 8 9 9
65 62 57 46 36 30 30 34 37 38 38 38 39 40 43 41 41 43 44 32 21 21 20 22 37 38 37 42 41 31 14 6 7 8 10 11 12 12 12 12 12 11 9
61 53 42 35 36 40 42 40 40 39 40 43 44 46 48 44 45 44 28 21 22 28 36 39 12 7 7 11 8 9 10 11 12 14 16 17 17 17 17 14 12 10 8
46 41 48 51 49 46 42 42 41 40 42 48 53 56 54 52 46 28 22 34 40 38 15 6 9 13 15 16 18 19 20 22 22 23 23 22 19 16 13 11 10 7 6
55 56 56 55 51 47 44 42 41 41 49 56 62 61 58 47 30 28 43 33 14 7 10 14 17 21 23 25 27 27 27 26 26 24 21 20 14 12 12 9 7 5 5
60 64 64 59 53 48 44 40 41 50 61 66 68 65 50 34 41 47 18 8 10 15 18 22 26 29 28 29 30 30 29 27 25 21 18 14 13 12 9 7 5 5 7
50 59 60 57 50 41 36 40 50 64 73 76 73 55 41 56 43 14 10 14 18 23 28 30 31 34 33 32 31 29 26 24 21 18 16 14 12 11 8 7 6 7 9
48 57 62 54 41 32 35 47 60 74 82 74 56 48 54 21 10 12 17 22 28 31 32 35 36 36 34 31 28 26 24 22 21 18 15 14 13 13 12 11 12 14 16
53 59 62 40 29 33 45 53 69 74 66 56 63 46 19 14 16 22 28 32 32 34 35 37 40 41 40 38 35 30 25 22 19 19 16 17 17 19 20 21 22 24 24

GFSMA_700_rhum_072.txt.gz
RH
40 40 40 40 41 32 28 26 26 24 25 26 25 22 24 27 28 27 25 24 26 32 37 36 36 35 42 57 52 38 33 30 36 50 60 64 62 62 63 62 64 65 67
39 38 38 41 38 27 29 30 31 30 29 24 19 18 18 18 18 19 22 26 37 41 44 38 42 36 36 44 38 42 50 50 43 39 42 55 67 65 66 66 68 68 69
39 38 38 43 29 31 31 31 29 28 27 25 26 25 21 21 22 27 31 34 42 37 34 63 51 38 29 28 42 62 58 60 70 66 63 54 55 66 66 70 70 71 72
39 38 39 39 30 34 34 34 31 29 26 23 23 23 22 23 23 26 28 36 40 41 47 61 57 40 27 32 26 38 47 58 66 72 70 64 60 66 68 74 74 75 76
39 38 43 32 34 37 38 37 32 28 25 25 26 26 26 28 29 25 22 24 36 40 49 43 35 23 23 26 28 25 21 30 55 64 67 69 68 68 69 72 77 76 76
40 40 42 33 36 38 38 34 28 25 26 28 27 26 26 24 21 18 16 15 17 24 31 38 24 24 24 23 26 23 23 30 36 51 57 69 74 72 77 77 80 81 80
42 46 36 38 39 40 33 27 26 28 27 28 27 26 24 24 23 21 16 15 17 21 23 18 22 22 23 24 26 26 33 58 54 60 81 67 74 82 82 85 86 83 84
48 42 42 43 44 34 30 30 31 31 29 30 29 27 23 22 19 18 16 15 17 19 18 18 21 23 24 27 30 26 42 57 54 62 61 60 59 79 87 89 93 88 84
50 48 46 44 34 34 35 34 32 32 32 30 30 28 24 20 17 15 13 13 16 19 21 23 24 22 23 28 35 34 40 57 68 60 46 49 50 57 68 78 88 90 86
56 52 51 48 43 38 37 36 35 35 34 31 30 30 29 25 20 15 14 16 19 21 24 23 22 24 26 30 43 48 74 50 46 54 41 38 38 37 38 44 47 55 69
82 75 68 52 46 41 42 42 41 38 37 42 42 38 32 26 20 18 16 16 20 21 23 24 26 28 32 43 56 73 58 41 49 43 30 20 20 21 22 22 22 27 36
81 78 69 62 52 52 52 54 45 39 43 42 39 37 35 30 22 18 17 18 20 24 28 28 33 30 36 43 90 76 87 51 29 23 21 26 28 31 31 30 29 28 26
89 90 82 84 79 72 79 77 63 49 45 42 38 33 31 28 24 21 19 19 22 29 27 26 23 29 39 77 92 77 70 31 20 25 28 33 34 32 35 35 34 33 30
94 92 88 77 68 69 80 77 72 53 50 45 35 29 24 23 23 22 22 23 24 28 25 22 24 40 70 100 84 64 40 24 23 29 28 34 39 35 38 38 34 33 31
78 86 89 88 88 90 77 59 58 53 49 37 30 26 24 23 23 24 25 27 29 25 22 25 38 57 72 86 94 88 27 24 30 36 35 35 38 35 35 37 36 35 34
96 93 84 86 78 81 72 66 63 56 42 32 28 26 24 24 25 28 31 32 30 26 27 33 45 49 71 90 45 49 27 24 31 38 37 40 39 27 29 34 33 33 38
93 80 74 81 87 78 70 63 60 52 34 28 27 29 30 30 34 37 38 36 34 35 41 40 60 83 88 70 28 28 29 34 39 39 31 14 6 6 7 10 14 15 25
79 76 78 81 87 80 66 62 55 38 30 32 36 38 39 38 41 42 42 40 43 47 46 44 30 32 31 28 31 44 44 42 43 20 5 6 8 9 9 8 8 8 9
74 74 78 76 71 67 63 53 38 35 38 42 41 40 42 44 46 49 48 49 53 54 43 28 27 26 28 42 38 42 39 28 13 6 8 9 11 12 12 13 13 13 13
68 72 72 72 70 62 46 39 41 44 44 42 40 38 41 45 50 53 51 54 54 40 29 27 26 36 36 16 12 9 8 9 10 12 14 16 18 19 19 18 17 15 13
76 77 72 60 49 49 51 48 48 45 44 43 41 40 44 51 53 55 53 52 36 27 29 41 46 18 7 8 13 15 18 19 21 23 24 24 24 22 20 16 13 12 11
61 54 55 53 52 54 54 54 52 47 44 42 41 45 53 62 63 59 52 36 31 52 51 23 6 8 14 18 22 25 26 27 27 26 26 24 22 19 15 13 13 11 9
60 53 49 48 49 52 56 56 50 45 41 41 42 53 66 69 69 56 38 41 48 15 7 9 14 20 25 29 30 30 30 30 29 27 25 22 19 15 13 12 10 8 6
54 50 47 47 48 53 56 54 47 38 37 45 58 71 78 76 60 46 57 34 8 10 15 22 26 30 31 34 34 33 31 29 26 24 22 20 18 16 14 12 10 8 7
58 56 57 56 51 55 58 42 29 31 41 59 76 84 78 61 54 62 25 9 14 20 26 32 32 35 36 36 34 32 30 26 22 21 20 19 16 15 15 14 13 12 12
65 65 63 58 55 61 54 32 40 46 50 73 76 67 58 61 36 11 11 19 25 31 34 35 37 38 40 41 40 40 37 32 26 22 20 18 16 17 18 19 21 23 24

GFSMA_700_rhum_075.txt.gz
RH
42 42 42 42 42 42 36 30 28 28 27 25 21 19 19 20 22 21 20 22 24 32 40 43 35 42 42 46 46 37 37 45 46 41 34 39 52 64 65 62 62 61 64
41 41 42 40 40 42 29 29 31 32 33 32 31 28 25 21 20 22 25 30 33 35 42 35 40 60 58 38 32 42 63 70 65 64 62 55 49 52 64 63 64 64 66
40 40 40 39 40 40 29 32 32 32 32 29 27 25 24 24 24 24 25 28 30 36 41 46 51 58 55 32 23 34 58 69 81 78 71 71 65 54 60 64 68 66 67
40 39 40 39 40 38 32 34 34 32 29 26 25 25 26 26 27 29 28 22 18 18 23 33 45 36 34 26 24 23 44 58 62 78 78 76 72 66 60 66 66 72 69
41 40 40 39 42 36 34 36 36 32 25 25 25 26 27 28 26 24 23 21 19 16 16 22 56 30 31 26 24 24 26 22 20 25 71 79 77 74 69 65 67 68 72
43 42 41 39 44 34 36 39 40 31 26 27 27 26 26 26 26 25 25 23 19 17 16 22 28 25 32 24 25 25 24 27 29 40 43 61 75 81 80 73 70 73 76
55 47 42 41 46 36 40 42 38 29 30 30 28 27 26 27 26 25 22 18 16 17 18 22 24 20 62 26 28 25 24 26 36 50 50 58 77 83 86 88 84 80 81
54 56 46 49 42 41 44 43 32 34 33 32 33 32 28 26 26 25 24 21 17 15 16 19 19 20 23 28 30 28 27 34 41 59 53 50 58 61 55 82 94 93 89
65 59 50 52 48 50 48 34 37 36 34 35 36 34 33 31 30 30 28 25 19 16 16 19 21 22 23 27 32 34 41 43 49 52 61 64 51 41 44 55 73 82 97
66 57 61 61 64 59 52 48 43 42 41 41 37 37 43 42 40 35 32 29 23 18 17 18 21 24 24 28 34 39 47 63 68 51 38 47 47 38 36 36 40 58 71
88 75 74 81 82 82 80 84 59 52 63 65 56 46 43 42 38 34 33 30 26 22 20 19 21 24 28 33 40 47 58 62 66 83 44 35 24 18 19 20 24 26 32
95 99 99 99 100 99 92 89 79 72 74 80 78 60 48 47 39 32 28 27 26 24 24 23 25 29 31 31 42 59 97 90 82 62 31 21 22 25 26 29 30 29 28
95 100 99 98 97 99 96 73 90 83 78 76 68 58 52 46 36 31 26 24 24 26 24 25 28 31 29 28 38 46 100 89 57 38 26 28 27 31 33 31 32 34 32
92 96 99 100 98 96 91 89 86 88 84 61 60 60 54 40 31 30 27 25 22 26 26 28 28 27 34 32 44 91 99 79 30 28 22 34 32 30 34 33 35 36 34
92 96 99 92 94 97 86 78 78 81 70 67 63 60 54 35 30 28 28 31 32 28 30 31 32 33 49 76 66 98 91 61 45 28 26 32 36 35 35 33 34 38 38
92 95 93 98 97 94 79 82 81 75 76 70 64 61 44 32 29 30 33 36 36 38 37 34 37 38 50 65 81 77 99 39 29 25 31 37 37 39 28 29 35 35 32
85 88 94 99 99 97 81 85 83 87 86 69 65 50 36 35 38 39 40 41 41 42 41 37 39 51 57 98 88 65 76 33 33 39 40 36 27 7 6 7 12 19 18
89 91 90 95 94 83 82 82 83 86 69 66 56 38 42 42 40 39 40 44 46 49 48 48 52 63 72 50 60 40 35 42 50 46 42 13 5 7 8 9 9 8 8
84 86 87 70 67 77 76 76 71 68 66 52 40 43 44 45 44 41 42 46 50 54 54 55 57 57 44 36 35 35 45 51 47 41 20 6 7 9 11 12 13 13 12
61 60 57 66 72 75 72 69 66 57 45 48 50 47 45 43 43 43 45 53 54 58 61 62 56 40 33 30 38 43 39 15 9 8 9 11 13 16 18 19 19 19 18
47 50 58 64 69 71 65 52 50 51 50 53 49 48 46 44 44 44 49 58 61 59 61 52 38 34 35 47 38 9 9 12 15 18 20 22 23 24 24 23 21 19 15
61 70 72 70 58 57 57 55 56 59 59 57 53 48 45 43 45 50 61 67 65 58 46 39 44 56 52 9 8 14 19 24 26 27 26 26 26 25 23 21 18 15 13
72 68 64 61 53 49 47 45 44 45 48 50 49 44 38 43 53 65 74 73 63 46 46 54 34 9 8 14 20 26 29 30 31 30 29 28 26 24 20 17 15 14 13
62 65 59 55 52 52 53 52 49 48 52 47 35 31 40 56 72 81 78 64 52 61 26 8 12 18 23 29 31 33 34 34 32 30 27 25 23 21 18 16 15 14 12
66 60 59 60 58 60 59 55 53 56 51 35 44 47 59 78 84 77 62 68 43 11 11 19 29 31 33 35 37 37 34 32 30 28 25 22 22 19 18 16 15 15 14
66 63 65 66 65 67 64 58 54 56 48 51 59 61 75 77 68 65 52 18 12 18 28 33 35 34 36 38 38 40 40 38 38 36 31 26 22 18 17 17 18 20 21

GFSMA_700_rhum_078.txt.gz
RH
47 46 45 44 43 42 42 37 32 30 30 30 29 27 24 22 21 21 22 24 28 29 30 33 37 37 62 66 57 29 34 44 60 60 58 56 46 39 41 58 58 59 60
45 44 43 43 43 42 42 32 30 32 32 33 33 31 28 27 26 26 26 26 27 30 31 35 40 43 51 53 49 52 55 62 66 64 66 68 68 63 51 50 56 58 62
43 42 42 43 43 41 43 32 32 34 34 34 32 29 27 26 27 27 28 30 30 23 20 18 20 22 30 37 41 79 70 60 86 87 91 81 75 72 65 54 57 61 66
42 42 42 43 43 41 43 34 34 35 37 33 28 26 26 26 27 27 27 24 23 22 20 18 18 25 47 24 42 30 24 23 29 50 83 74 84 78 69 65 60 62 64
43 43 42 42 42 40 42 37 35 38 40 33 27 26 26 28 28 27 26 26 24 21 18 16 17 24 25 24 25 29 23 22 24 24 41 55 66 81 81 73 67 61 63
48 47 44 43 42 40 42 40 38 40 41 32 28 30 30 29 28 28 27 26 23 21 19 17 17 19 23 24 35 36 24 25 24 26 42 50 64 67 80 88 80 73 68
61 51 46 46 44 43 46 42 39 42 44 31 33 33 32 33 31 30 29 30 29 25 21 17 15 16 20 22 58 22 23 22 22 24 29 45 52 53 69 86 92 88 81
71 69 64 60 50 48 51 43 44 48 36 36 37 37 37 34 34 33 34 34 34 30 25 21 18 17 18 21 20 23 23 25 27 32 32 44 54 52 54 79 74 75 88
64 91 75 84 71 73 58 59 57 45 40 42 44 43 39 37 34 35 33 33 33 33 30 25 21 19 21 23 24 28 32 32 36 40 41 44 48 55 53 45 48 63 74
82 82 89 95 85 75 70 73 73 61 60 47 52 66 74 71 67 61 49 40 35 32 31 28 25 22 23 27 29 34 39 42 45 52 53 43 40 41 49 55 40 36 45
92 97 98 95 96 98 96 92 77 73 67 61 76 75 74 73 67 60 51 44 37 30 26 26 26 26 25 26 31 34 39 43 60 94 89 55 34 26 27 22 19 20 25
88 97 98 99 100 100 98 97 99 96 92 95 89 81 76 74 68 56 52 42 32 29 26 23 23 28 28 28 32 33 52 54 56 88 80 58 26 18 18 21 23 23 24
99 92 94 88 91 98 96 98 99 98 93 93 89 77 73 65 62 59 55 40 31 29 27 25 25 27 30 31 36 40 40 59 99 83 72 30 22 27 25 25 29 29 29
98 98 99 98 96 97 91 96 98 97 83 80 85 73 70 69 67 62 56 36 28 26 26 26 29 33 33 37 62 85 64 60 94 79 67 28 23 34 34 29 32 32 33
95 98 92 96 100 98 97 92 94 87 82 79 77 76 75 77 65 60 39 32 34 29 28 30 34 38 37 46 55 71 100 92 100 98 62 29 24 31 35 34 36 36 36
89 89 87 88 95 96 92 99 98 93 81 85 86 86 88 73 65 49 36 37 41 40 37 37 40 40 42 43 52 67 86 95 78 100 69 30 28 35 38 35 31 35 36
75 78 81 90 93 97 99 100 99 95 93 84 86 84 80 67 58 41 44 45 44 44 44 43 46 43 46 50 76 71 99 95 89 93 58 40 41 41 29 6 8 18 28
81 78 83 89 93 94 99 94 87 78 78 80 80 73 67 57 41 44 46 47 46 44 47 48 49 50 54 60 82 93 65 93 70 38 47 49 45 21 6 7 8 8 9
84 82 82 83 84 83 91 89 67 72 75 74 70 63 50 41 44 48 46 44 44 45 50 53 55 58 59 67 66 76 42 45 42 53 53 50 37 6 7 9 11 12 12
51 77 86 87 86 86 73 58 58 63 62 60 52 43 42 44 48 49 47 45 44 48 55 58 62 63 64 64 50 44 36 40 48 23 11 8 8 9 12 14 16 17 17
38 43 49 53 52 52 52 53 60 61 50 46 47 49 51 54 53 49 46 44 45 50 58 64 64 64 60 49 40 38 46 32 13 11 13 16 18 21 23 24 24 23 22
38 42 44 48 50 55 60 59 51 48 45 44 42 41 43 49 49 46 42 42 48 60 70 70 64 53 43 40 51 53 16 8 14 20 24 26 27 26 26 25 24 22 19
46 49 54 61 67 63 55 52 48 45 46 46 46 45 47 48 41 36 37 49 63 74 76 66 50 52 60 42 17 9 15 22 28 30 30 30 29 28 27 24 21 18 16
62 69 68 66 63 60 55 53 52 52 53 52 49 48 49 38 44 44 52 69 79 77 63 59 47 18 10 12 19 26 31 33 34 34 33 30 28 26 23 21 19 17 16
71 72 62 64 66 60 59 57 58 59 59 55 52 50 46 52 58 63 74 81 72 64 55 20 11 19 28 31 32 35 37 37 35 32 28 26 25 22 20 20 18 17 16
63 62 66 67 64 62 63 61 63 66 63 60 54 57 63 62 60 69 73 66 59 27 14 28 28 51 60 43 38 38 37 38 37 36 35 33 29 23 21 20 18 18 18

GFSMA_700_rhum_081.txt.gz
RH
48 48 48 48 47 46 44 42 39 35 32 32 32 31 29 28 27 26 25 25 25 26 28 25 23 30 39 49 56 52 54 50 45 54 59 59 61 61 53 43 51 54 56
48 48 47 46 45 44 43 43 38 31 32 33 33 31 28 26 26 26 28 28 29 28 24 20 18 17 16 28 63 54 80 85 57 72 80 85 78 70 66 59 50 52 56
47 47 46 44 43 43 43 43 40 32 34 34 33 31 28 27 28 28 30 30 27 24 24 23 20 17 15 15 63 91 63 92 61 45 71 74 71 77 74 68 61 53 57
46 45 44 43 42 44 44 42 44 33 35 37 35 30 28 27 29 29 29 27 26 25 23 20 17 16 16 15 20 33 46 21 19 21 30 54 62 62 70 75 66 61 57
44 44 44 44 44 45 45 43 43 36 37 39 38 31 28 30 31 31 29 28 27 25 24 22 20 16 14 14 16 20 32 45 21 21 22 28 50 62 77 74 75 70 67
49 50 51 49 48 47 46 45 45 42 39 42 43 34 31 33 33 32 31 32 32 32 31 28 23 19 16 15 16 18 17 24 24 23 25 26 36 42 68 74 86 87 77
68 54 57 55 56 52 50 47 45 46 41 44 46 33 35 35 36 34 36 37 36 35 34 33 30 24 20 17 17 18 19 20 20 22 24 28 29 32 50 62 80 93 89
82 77 77 76 61 54 56 50 47 50 45 49 48 36 37 40 39 38 39 42 43 39 35 33 32 30 26 22 20 20 20 20 21 23 27 35 39 41 49 52 52 77 82
89 96 99 91 93 84 81 60 57 55 54 58 43 43 41 42 48 51 55 60 60 53 41 36 32 29 28 26 23 23 24 26 29 31 33 38 48 48 43 46 53 49 56
97 100 98 81 82 88 99 96 94 81 80 76 48 48 53 60 58 54 58 61 63 58 46 38 31 28 25 26 26 27 28 33 36 36 39 48 54 66 56 44 42 47 53
97 96 97 97 99 96 100 99 100 94 96 95 72 62 63 86 83 70 61 66 63 55 47 33 29 28 25 26 28 30 33 34 39 35 58 49 91 75 52 30 32 36 31
99 100 98 98 89 98 98 100 100 100 98 93 90 90 77 87 87 80 70 65 61 55 50 33 29 28 27 28 29 30 34 33 42 55 97 96 90 69 31 21 21 20 21
88 96 92 99 93 92 97 96 98 89 92 92 91 92 98 99 85 73 67 69 63 54 42 28 26 27 28 30 33 35 36 41 52 72 71 100 88 40 24 25 28 27 30
82 89 87 91 97 100 95 94 97 100 95 94 84 82 78 78 72 71 72 71 61 47 30 31 32 35 35 34 37 36 36 45 72 87 82 96 97 49 24 30 34 30 31
75 78 83 93 97 87 95 99 99 87 90 85 84 83 84 84 83 86 88 71 57 39 30 30 33 37 39 40 40 40 48 65 70 100 94 100 98 57 28 29 34 37 35
65 75 83 95 93 87 90 95 92 85 97 99 97 87 85 84 83 83 78 65 50 38 35 36 37 38 42 46 46 44 47 56 78 93 100 100 100 62 29 31 39 40 36
61 71 78 84 90 89 93 93 94 92 100 99 90 88 86 79 77 76 65 54 41 41 39 38 38 38 42 45 45 49 52 94 98 100 99 99 95 74 42 41 35 8 27
60 67 75 78 82 88 91 97 93 97 100 96 82 69 70 67 66 56 51 40 40 43 41 39 38 39 40 46 51 52 60 80 92 78 100 92 48 56 50 38 8 6 8
36 44 66 82 80 81 85 89 94 85 87 87 61 57 56 51 50 43 38 39 42 44 44 42 41 43 49 56 58 58 64 76 97 50 49 48 58 57 52 8 7 9 10
34 36 43 67 85 85 86 88 87 88 79 55 47 45 45 43 39 41 46 50 50 47 45 43 43 45 54 61 63 65 65 53 46 44 51 42 23 20 8 7 10 12 13
32 34 34 38 44 58 73 83 75 54 50 48 49 47 43 42 41 42 41 45 46 43 43 42 44 51 61 67 66 63 54 45 42 51 47 18 10 11 14 16 18 20 22
37 41 39 35 34 36 40 44 47 47 51 52 47 43 40 38 40 42 41 41 42 40 39 42 51 61 70 66 55 42 41 51 57 21 9 13 18 22 24 25 26 25 24
44 43 41 38 37 40 42 48 56 61 54 49 44 44 44 47 46 43 45 39 37 37 45 59 70 73 64 54 58 59 49 18 10 14 22 28 29 29 28 28 26 25 21
56 53 51 50 55 58 63 68 63 56 51 48 47 50 53 50 48 44 45 50 56 58 66 76 71 61 53 33 15 10 15 23 26 31 33 33 32 31 28 26 23 20 17
66 62 68 69 75 75 70 64 60 56 56 56 56 58 57 53 48 51 54 59 61 69 72 66 57 26 12 18 26 32 34 34 36 36 33 28 27 25 23 20 18 17 16
77 72 76 80 78 69 67 66 63 63 62 62 64 65 64 62 57 51 54 51 64 67 60 27 16 27 43 59 50 39 43 38 36 47 54 36 32 27 24 18 17 17 16

GFSMA_700_rhum_084.txt.gz
RH
44 47 48 49 49 49 48 46 43 40 37 32 32 31 30 27 25 24 24 25 26 27 28 23 20 20 20 33 68 61 52 38 60 42 48 62 67 63 64 59 49 44 47
48 48 49 49 49 48 47 44 42 41 34 32 32 31 30 29 28 27 28 28 28 26 23 23 22 21 18 16 18 52 87 60 81 70 48 64 77 78 73 66 63 55 48
48 48 48 49 49 47 45 43 42 42 34 34 34 32 32 31 30 29 29 29 27 26 25 24 21 18 17 15 19 74 67 59 84 63 29 29 54 63 61 75 72 66 58
47 48 48 48 47 46 44 43 43 44 39 35 37 37 34 32 32 32 30 29 28 27 25 24 23 22 20 16 17 67 69 59 87 67 26 48 55 46 61 63 68 71 65
47 48 48 46 44 43 43 44 45 43 44 36 38 41 40 35 32 34 32 31 29 30 30 30 29 27 24 20 16 16 32 21 31 43 22 22 31 52 53 56 73 70 71
52 49 47 44 44 44 45 47 48 47 45 43 38 40 46 36 33 34 34 33 33 35 34 33 32 31 30 27 23 18 17 19 19 21 22 22 23 25 33 35 65 79 78
58 57 54 57 52 52 54 54 52 49 46 46 40 41 47 39 35 36 36 37 37 40 41 42 38 33 31 31 30 26 22 18 16 21 22 23 26 31 33 34 43 62 88
70 70 81 75 68 66 70 67 59 55 51 48 48 46 48 42 38 39 42 46 51 59 60 58 50 40 34 30 28 28 27 24 20 22 23 24 29 37 46 45 52 52 54
93 86 95 98 93 87 92 88 80 67 63 60 55 60 52 42 41 44 52 57 58 58 58 59 57 47 37 32 28 26 27 26 25 26 29 30 34 40 54 64 59 48 55
92 97 100 100 97 100 99 99 99 94 89 84 83 68 54 45 43 47 47 58 65 61 63 64 58 49 35 30 29 27 26 26 27 28 31 31 38 40 49 64 67 54 42
94 98 98 99 99 100 100 98 100 90 99 99 98 98 95 65 58 54 57 68 71 72 67 62 56 51 40 28 28 29 30 30 32 31 36 34 42 58 50 71 64 52 33
99 100 100 98 99 98 98 97 93 98 100 100 100 99 98 98 96 84 81 83 89 75 66 61 56 45 33 26 27 29 31 32 35 37 40 52 74 67 98 69 57 29 22
96 88 97 95 98 100 98 96 99 97 100 100 86 78 96 100 92 87 95 94 72 68 66 61 47 33 28 28 27 29 30 32 38 44 52 66 78 83 97 72 38 26 28
83 87 96 97 99 98 98 99 94 87 77 91 95 100 100 85 78 74 75 75 78 77 74 61 41 32 32 33 32 34 34 36 38 38 53 72 97 92 98 77 44 26 35
77 81 83 88 89 98 97 95 93 98 100 96 99 97 90 88 86 84 82 80 75 74 70 54 39 35 35 37 38 39 42 43 50 54 64 66 100 100 100 92 44 24 30
74 70 74 73 75 85 92 90 89 93 84 85 90 90 91 91 84 77 74 74 67 70 56 42 37 34 35 36 38 40 44 45 48 50 61 86 97 98 100 96 85 32 35
60 52 55 66 68 80 91 92 90 90 92 99 98 99 95 92 74 66 68 62 62 49 43 35 34 37 39 38 40 44 47 48 50 55 85 98 100 100 98 97 84 41 45
34 37 49 68 73 76 86 93 94 96 98 98 94 90 92 84 64 54 49 46 44 41 37 37 37 39 38 40 42 43 48 52 58 62 73 91 74 82 68 48 53 48 17
29 32 43 55 62 71 80 82 93 96 93 90 89 76 84 67 49 44 45 44 39 39 40 41 41 42 42 41 43 45 52 59 62 72 72 70 57 47 54 63 53 26 7
29 29 31 33 41 46 68 82 82 84 86 86 84 83 66 44 40 41 41 41 44 46 45 45 44 41 42 42 44 51 62 67 65 66 57 49 44 55 48 59 38 8 9
30 30 30 33 34 34 41 62 76 82 88 88 85 59 48 49 45 42 39 40 41 41 41 41 40 40 39 41 48 62 67 67 63 53 47 44 54 26 11 9 8 10 12
31 32 35 37 41 41 40 44 46 52 61 58 53 56 54 46 42 40 43 44 42 40 40 41 37 34 38 52 67 69 64 52 46 45 48 51 24 12 12 16 19 21 23
35 34 36 43 47 46 44 43 45 50 55 55 53 55 49 46 44 43 44 44 42 40 42 46 53 53 60 69 69 59 54 60 62 45 18 11 15 21 25 27 27 27 26
43 41 46 53 51 49 47 50 50 53 67 66 59 52 50 46 47 51 50 46 44 46 48 53 58 63 68 63 56 44 24 12 13 19 26 29 29 31 32 31 29 26 24
54 59 62 64 63 60 62 64 67 69 67 62 55 53 51 49 52 55 55 53 51 48 50 51 63 68 60 40 16 13 19 28 35 35 35 35 33 32 28 26 23 21 19
53 67 66 76 74 75 73 76 78 75 70 64 62 59 57 56 58 63 62 59 52 52 52 57 62 51 22 16 35 42 38 40 41 39 37 48 53 36 31 28 26 20 17

GFSMA_700_rhum_087.txt.gz
RH
28 28 36 42 45 48 50 49 49 45 42 39 34 32 30 28 27 25 25 27 28 27 26 24 23 23 22 37 18 18 28 64 59 47 49 35 45 67 61 63 60 56 49
30 39 42 46 49 50 50 49 48 44 41 38 34 33 32 31 29 28 29 28 28 27 25 24 23 22 20 18 17 65 92 87 82 66 60 41 26 54 62 58 62 66 62
40 45 47 49 50 50 50 49 47 44 42 40 34 34 34 34 32 30 29 28 26 26 25 25 24 23 23 21 19 36 70 76 62 59 73 56 22 29 32 54 62 72 70
44 46 48 49 49 50 49 48 46 43 42 43 38 36 38 37 36 30 28 29 28 27 27 27 28 28 28 26 23 30 38 37 44 44 45 70 25 27 43 49 61 64 68
45 46 48 48 49 49 49 47 45 44 44 44 45 37 39 41 41 33 30 31 30 31 31 31 32 31 30 30 29 25 50 31 32 21 39 31 25 24 44 45 63 62 71
46 47 48 48 49 49 47 44 44 46 48 48 46 45 38 41 44 38 32 33 34 34 34 33 34 38 39 35 31 30 29 26 29 27 19 18 20 25 23 23 31 40 72
55 51 50 53 50 49 45 45 47 50 51 54 51 47 46 43 44 46 35 36 36 37 38 45 56 58 55 49 40 33 30 29 30 28 23 21 21 21 24 26 29 30 43
52 52 54 54 52 59 52 56 58 57 58 60 55 53 53 54 48 48 39 38 39 46 51 57 58 58 58 55 48 39 33 29 27 27 28 26 24 26 28 32 35 37 44
68 69 70 71 70 61 72 82 84 80 74 71 66 73 69 65 79 50 42 43 52 59 58 63 63 64 62 60 53 44 32 29 28 25 24 27 31 29 32 37 40 40 40
89 82 78 82 90 90 88 99 89 100 97 90 87 84 93 81 89 67 50 57 65 68 68 76 79 71 64 58 52 46 30 28 28 28 27 27 32 33 34 39 46 49 55
99 97 98 92 90 87 88 94 100 98 100 98 97 95 98 100 98 90 64 66 55 71 76 74 83 73 61 57 50 40 28 25 26 29 29 32 35 40 39 47 55 56 74
92 96 93 97 98 87 93 97 98 100 97 98 100 99 100 100 100 97 98 94 93 96 96 93 72 64 59 46 32 28 28 29 30 31 32 32 36 43 49 77 66 100 89
95 73 95 100 99 100 96 96 98 99 96 97 97 100 100 98 78 90 97 95 78 77 72 69 68 66 60 45 34 30 32 34 33 34 37 39 48 69 79 76 73 78 81
79 77 91 95 95 98 96 99 98 99 87 80 99 78 78 78 96 98 86 76 74 75 77 75 63 67 55 43 34 32 31 35 37 37 39 41 42 60 69 100 99 98 89
82 82 89 96 96 97 98 97 96 98 90 86 86 86 95 98 98 94 89 83 80 77 74 65 55 53 41 36 35 34 36 37 37 38 41 51 62 55 74 99 100 99 87
85 85 84 85 78 73 76 92 96 96 91 92 100 98 94 95 91 92 86 84 76 73 65 53 44 40 37 34 36 36 38 39 39 41 43 51 54 61 91 92 98 100 90
84 78 70 70 59 55 64 73 90 92 84 92 83 81 86 91 97 91 87 78 59 56 46 40 35 34 34 35 37 37 37 38 38 42 44 48 53 89 91 100 99 96 77
66 64 54 44 45 58 67 72 85 94 90 86 89 90 90 88 85 84 80 66 48 44 39 36 31 33 36 39 41 41 42 44 44 46 50 54 60 63 68 75 57 54 47
33 32 30 31 39 52 66 78 82 88 93 93 91 91 87 86 88 82 82 46 43 44 38 35 35 38 43 45 42 38 40 41 43 46 56 61 64 60 62 49 45 57 58
31 31 32 32 32 38 49 60 75 81 84 89 90 90 90 87 86 89 59 45 40 37 37 37 38 38 40 40 39 39 38 42 51 60 64 64 65 53 47 48 52 60 53
31 30 29 29 29 31 36 45 50 66 82 84 91 92 92 91 90 61 47 44 40 37 38 41 42 41 42 40 38 36 38 44 58 63 66 62 52 41 45 45 13 13 10
38 37 33 32 30 30 36 42 44 45 60 89 92 92 89 82 60 48 46 43 40 41 44 43 41 40 43 47 51 51 50 60 63 61 54 43 41 48 49 17 12 14 15
32 36 39 38 34 37 41 43 46 48 49 58 66 72 68 57 52 53 45 44 42 47 46 44 43 46 44 51 53 60 62 62 55 56 55 53 46 16 12 18 24 26 26
32 30 32 37 40 39 48 52 53 50 48 52 59 60 59 62 59 50 47 46 47 49 48 48 45 41 47 52 64 66 60 52 37 24 17 14 18 25 29 33 33 34 30
34 34 34 37 42 47 56 59 59 57 54 58 65 72 73 64 56 53 52 51 55 55 55 54 50 46 50 60 64 55 31 16 13 21 30 33 34 34 33 33 32 28 24
40 35 32 37 44 54 61 63 64 64 68 78 88 86 72 64 59 57 54 55 58 61 60 56 51 52 56 58 45 21 18 28 33 38 40 40 37 40 37 34 32 28 26

GFSMA_700_rhum_090.txt.gz
RH
18 24 31 28 28 33 44 49 50 49 50 46 42 39 34 32 30 26 26 26 26 26 26 24 22 23 22 20 18 19 48 70 76 60 72 51 43 20 28 47 54 49 58
21 29 33 27 32 42 47 49 51 51 49 44 43 39 34 33 33 29 27 28 26 26 25 24 24 23 22 22 22 52 77 83 83 84 73 55 59 36 21 25 38 52 64
25 31 29 28 38 45 50 51 51 50 49 46 42 39 35 34 35 34 30 26 27 27 26 26 26 26 27 27 26 24 53 74 75 66 58 63 62 62 22 33 41 59 61
30 33 30 38 46 49 51 51 51 50 49 45 43 43 37 36 38 37 32 29 29 28 28 30 30 30 29 29 28 29 31 46 38 36 30 28 31 34 24 56 60 54 48
35 33 36 44 48 50 50 50 50 50 48 45 44 44 44 38 38 43 42 33 32 31 32 34 33 32 32 39 47 46 38 33 32 30 28 27 21 19 17 19 22 43 79
38 37 42 46 48 49 49 50 50 49 47 46 46 47 46 45 42 40 45 45 32 33 34 36 35 38 50 55 55 52 49 41 33 30 30 28 27 24 21 20 22 23 32
41 42 45 46 48 48 49 51 49 47 44 48 50 51 51 49 48 46 46 48 38 35 37 38 44 51 54 55 58 57 56 53 44 38 31 27 26 28 27 25 27 27 31
65 51 49 51 51 50 51 51 50 50 52 59 64 61 59 59 56 52 52 51 43 39 40 47 53 59 65 68 67 63 59 54 46 34 29 28 26 28 27 28 29 30 32
65 56 56 65 63 52 52 53 56 61 59 63 80 80 75 70 74 70 79 61 46 46 49 56 64 70 74 77 74 69 57 53 48 36 26 25 26 29 28 28 30 34 35
80 65 68 72 63 65 68 67 79 81 84 72 91 94 97 96 92 89 84 73 52 54 62 67 62 64 78 81 73 61 52 43 40 32 25 22 24 26 27 28 30 31 43
85 91 94 89 87 82 96 86 90 94 99 98 99 99 98 99 100 99 91 93 74 70 74 60 81 86 87 76 60 53 40 30 27 28 28 24 25 29 29 31 32 48 61
97 99 100 98 87 84 92 98 87 84 95 95 93 98 100 100 100 100 100 100 98 96 87 76 82 80 66 67 63 55 44 35 31 30 32 31 33 35 35 34 37 46 78
100 100 99 96 94 78 67 80 82 80 94 96 99 99 98 100 100 99 82 86 74 84 87 69 68 71 72 69 65 51 42 37 34 34 36 33 38 36 36 39 49 54 61
91 100 76 87 82 80 93 99 96 93 98 99 98 96 99 100 99 85 88 99 96 84 76 76 75 72 67 56 45 38 34 32 30 32 33 34 34 36 34 36 46 62 60
69 76 77 94 90 73 80 100 99 100 98 98 95 90 84 89 94 97 99 99 93 84 83 78 74 67 54 41 32 32 31 29 31 33 34 34 35 39 40 43 54 54 59
87 89 93 99 95 95 82 84 96 98 98 98 90 87 90 93 99 99 100 99 92 86 77 69 61 50 41 36 32 31 32 34 35 35 35 36 36 39 42 44 42 57 65
80 80 85 91 86 78 70 66 78 90 92 98 91 90 99 93 90 94 93 93 93 87 75 59 48 40 35 33 32 32 33 37 38 38 38 38 38 42 48 46 53 57 57
82 78 77 74 70 66 64 61 59 66 78 96 87 87 84 85 87 97 100 89 82 76 63 44 40 42 35 33 34 38 41 42 38 36 38 42 42 42 48 50 56 60 51
41 41 41 42 40 42 48 54 58 59 72 88 92 89 91 93 95 92 88 85 76 76 51 40 35 35 37 35 36 36 38 39 40 40 36 38 40 44 53 56 53 45 38
33 33 34 34 35 36 39 50 52 65 74 84 94 96 97 97 99 92 89 87 89 82 46 41 37 34 34 37 39 38 38 38 37 36 38 44 49 56 62 59 47 43 47
36 34 33 34 34 34 36 37 39 53 66 78 87 92 97 100 99 97 95 94 88 55 46 41 37 36 42 42 39 39 39 41 45 43 46 52 58 56 52 46 40 42 15
36 35 36 38 34 34 36 37 38 40 46 52 64 78 90 93 99 98 93 93 66 51 46 40 40 44 43 41 41 42 41 46 46 54 55 57 53 47 41 42 47 16 11
39 36 32 33 37 39 39 40 42 43 45 48 49 59 78 89 96 100 91 69 56 52 44 44 47 48 46 44 43 40 43 49 56 59 55 51 52 51 48 28 14 17 24
39 41 40 37 33 34 40 44 44 48 48 50 51 57 70 89 88 79 70 61 57 49 47 48 51 52 52 49 46 41 41 51 58 54 42 32 22 15 15 19 29 34 33
44 48 48 42 36 36 43 50 51 50 56 59 59 59 61 69 71 68 68 65 55 53 51 55 57 56 55 52 46 44 52 55 48 24 14 16 25 31 33 33 33 33 32
35 33 35 40 43 37 38 53 66 61 66 68 63 63 64 72 76 73 74 61 58 60 59 58 61 58 55 53 53 52 51 37 19 20 26 38 40 39 36 36 37 34 27

GFSMA_700_rhum_093.txt.gz
RH
100 58 20 21 30 29 28 33 41 48 48 49 49 44 41 38 30 27 27 24 23 24 24 24 23 23 22 22 22 24 33 54 52 50 35 25 21 17 20 15 16 28 42
94 32 20 27 31 30 32 34 47 50 52 51 48 45 40 36 33 30 28 27 25 25 24 25 24 24 25 27 27 26 27 33 29 31 29 26 23 20 23 14 15 19 25
100 28 23 31 33 29 32 40 50 52 52 51 51 47 42 39 37 33 30 29 26 26 27 26 27 30 30 30 29 28 31 35 37 35 31 28 27 24 23 20 18 26 33
42 94 27 31 34 29 32 47 52 52 52 52 49 46 43 43 39 39 37 33 30 28 29 29 33 33 32 31 39 50 50 46 43 40 34 30 29 29 25 24 19 19 26
19 63 51 34 36 34 42 49 51 52 52 51 49 47 44 45 46 41 41 41 40 32 32 32 34 36 35 42 52 53 54 54 52 48 40 35 31 30 29 27 24 21 18
27 50 43 36 39 39 45 50 51 51 51 51 49 46 47 48 48 47 46 42 42 40 35 34 35 37 39 49 54 55 61 62 59 55 49 42 37 33 28 28 28 26 24
36 35 33 39 39 40 46 50 50 50 50 50 47 48 52 51 52 52 50 49 46 42 44 37 36 39 43 49 60 66 67 66 63 56 50 42 32 29 28 26 27 27 28
60 41 40 42 42 44 47 49 49 50 53 54 51 53 55 60 58 63 60 56 50 53 49 41 39 40 45 54 64 65 67 64 63 54 49 44 32 26 28 26 26 26 27
82 82 55 46 47 47 48 49 50 58 63 61 56 67 65 61 70 79 68 70 66 65 55 44 45 48 56 55 57 64 72 69 59 41 35 36 31 25 25 27 27 27 27
99 92 90 83 50 53 52 57 58 58 56 67 72 72 78 85 98 96 95 90 98 80 66 50 46 54 55 60 69 77 70 57 44 34 29 27 26 28 29 27 26 27 30
96 97 98 99 94 82 81 77 74 73 95 87 92 96 96 86 97 100 97 96 96 95 87 57 57 55 62 63 75 68 66 57 48 41 34 32 29 32 32 31 32 31 32
100 99 99 94 98 84 82 98 85 76 81 93 97 98 92 94 88 98 100 100 100 100 99 94 97 70 65 82 70 66 63 58 47 41 36 33 32 31 31 31 35 33 31
99 100 90 86 90 98 99 98 92 84 86 75 71 80 83 82 87 92 100 100 100 99 98 92 80 93 76 72 74 63 49 40 34 32 31 29 31 32 34 34 34 32 35
100 100 100 98 91 98 95 100 99 92 75 68 88 94 90 85 86 98 100 100 100 87 94 90 79 72 76 81 72 55 41 33 31 30 28 29 33 34 34 32 32 32 34
96 96 98 100 100 99 96 98 99 89 80 99 100 100 95 94 100 97 98 97 81 94 95 94 81 76 74 67 60 42 34 31 29 30 31 31 31 31 33 33 32 35 38
98 98 96 96 99 99 100 99 100 99 87 98 100 99 99 99 96 91 85 93 95 99 97 97 84 74 64 53 38 32 32 31 32 31 31 34 33 35 36 37 38 37 38
100 99 99 100 100 99 97 96 98 97 99 99 99 100 99 98 99 100 98 99 100 100 100 97 86 75 57 39 34 32 31 31 35 37 35 34 35 35 36 38 39 41 42
95 93 95 96 96 91 93 87 81 80 78 90 99 99 98 100 94 100 100 99 97 99 100 94 85 75 49 38 36 32 35 35 33 35 36 36 35 35 36 38 40 46 48
42 48 56 61 63 64 66 67 65 66 66 71 81 91 99 97 99 89 90 94 99 100 100 94 84 75 47 39 37 35 34 38 37 35 34 36 36 36 36 38 42 55 55
39 37 34 32 34 36 36 37 40 40 50 61 68 80 95 94 89 86 91 98 99 98 97 90 83 73 45 38 36 35 38 37 35 35 36 41 41 37 40 47 53 57 49
39 38 38 38 35 32 34 34 35 37 41 59 67 74 90 96 94 94 96 97 100 100 100 92 84 54 42 39 37 38 40 39 38 40 41 42 46 50 53 52 51 44 37
43 41 39 37 36 37 36 34 33 34 37 40 47 70 83 98 99 100 100 98 100 100 99 94 84 48 42 40 40 43 44 43 40 38 44 48 49 53 53 50 43 37 44
43 44 44 42 40 36 35 37 39 38 34 35 38 40 56 75 90 99 96 100 95 100 97 89 62 48 44 44 47 47 48 46 44 41 43 49 54 51 51 50 49 41 17
36 36 36 37 38 39 37 34 35 39 42 40 41 44 50 54 82 93 100 100 98 99 96 72 57 51 50 49 52 52 49 47 44 44 52 54 40 30 25 23 15 15 29
35 31 30 35 37 40 46 42 37 34 40 49 48 49 59 93 100 100 100 99 100 87 72 66 57 54 54 55 56 54 51 48 45 50 49 38 21 16 22 27 29 33 36
42 41 37 34 33 35 40 46 46 38 36 50 57 64 69 72 73 73 83 86 85 82 78 67 59 57 58 61 58 54 53 52 51 48 33 23 22 32 36 36 35 35 34

GFSMA_700_rhum_096.txt.gz
RH
91 91 89 97 66 25 27 27 31 34 40 47 50 46 45 41 32 32 29 26 24 22 25 25 23 23 22 23 26 27 26 26 31 34 34 31 28 26 25 28 19 18 21
99 100 97 99 38 29 30 30 33 35 43 51 52 50 48 43 36 35 32 28 26 26 26 25 25 25 27 29 29 28 28 39 44 43 41 37 32 29 28 25 25 19 18
100 100 100 73 30 38 36 35 35 37 48 52 51 51 47 43 39 35 34 31 29 28 27 28 27 29 32 32 30 31 46 48 48 48 46 43 38 32 29 29 27 25 20
80 97 97 86 74 42 35 36 37 40 51 53 54 52 50 46 41 38 36 35 34 30 29 30 29 33 35 34 35 43 50 50 52 53 53 52 50 46 40 33 30 28 25
50 47 85 68 37 44 38 36 39 44 52 54 53 53 50 46 44 45 40 36 37 39 37 32 32 34 36 38 42 47 49 54 59 59 58 56 52 48 42 37 32 28 27
64 42 23 68 65 38 42 38 41 46 52 53 53 52 50 47 45 46 48 47 47 41 38 41 37 34 36 39 43 47 53 58 61 61 61 57 52 48 41 32 28 27 26
84 86 38 20 94 47 41 38 40 46 51 53 52 51 50 47 48 56 58 52 50 47 46 45 42 40 37 38 44 48 55 59 57 57 62 58 49 48 40 29 25 25 25
90 83 48 24 54 71 41 43 43 47 51 52 51 51 50 51 53 54 58 62 64 52 52 51 49 46 42 42 45 52 55 55 56 69 66 47 34 33 30 26 24 23 23
99 82 47 32 52 50 40 43 44 47 50 51 52 55 57 56 59 61 61 74 74 65 63 66 60 52 47 44 50 52 54 62 73 68 50 36 29 26 26 26 27 26 26
98 98 64 44 42 41 43 44 46 50 53 55 60 70 67 62 69 64 82 83 86 90 88 88 78 66 53 50 57 56 63 70 68 59 49 41 34 33 31 29 31 31 30
100 97 99 94 73 57 60 60 54 58 60 63 74 78 88 92 97 90 97 84 88 94 99 92 99 92 69 58 67 63 73 75 60 59 53 45 38 34 32 29 28 30 29
100 100 100 99 100 97 86 92 75 75 71 83 92 94 90 94 98 99 99 97 95 98 100 100 99 99 98 83 88 84 78 64 57 53 40 31 27 27 27 26 26 28 29
100 100 100 100 99 99 99 100 100 97 92 92 94 87 97 78 81 76 79 85 86 84 92 99 100 98 99 96 99 83 71 68 57 40 31 27 28 25 27 28 28 30 30
98 100 100 100 100 100 100 100 100 99 99 94 96 100 98 82 78 82 79 95 95 84 94 100 98 100 99 79 76 76 75 68 46 31 27 24 26 26 27 30 30 28 27
97 99 99 100 100 100 100 100 99 100 100 100 97 96 98 91 89 85 92 99 98 84 100 100 98 97 87 88 81 75 70 55 35 29 26 26 29 31 30 29 31 31 30
100 100 100 99 97 99 100 100 99 100 100 100 98 99 89 99 100 100 100 99 100 100 100 98 98 97 92 84 75 68 56 41 34 31 28 29 33 30 29 30 31 32 34
98 99 98 99 99 99 100 99 100 100 100 100 100 99 98 99 100 99 98 92 98 99 99 97 99 98 89 84 78 63 45 38 34 33 32 32 32 33 32 33 32 34 34
97 98 99 100 99 96 98 99 99 100 99 98 99 100 98 99 100 100 98 98 100 97 86 100 100 98 96 86 78 60 41 37 35 35 34 36 35 31 30 32 33 34 35
43 46 52 58 65 74 81 85 87 90 93 92 91 86 91 100 100 98 100 100 100 99 100 100 99 100 95 84 75 61 40 36 36 35 37 38 34 31 30 33 35 35 38
46 45 43 38 32 34 38 42 47 54 61 65 68 76 80 77 97 98 100 97 100 100 95 95 98 99 97 86 78 62 40 38 35 39 38 36 33 33 33 34 40 40 44
48 47 46 44 42 42 41 39 39 38 36 37 39 49 58 65 71 89 92 100 98 89 90 93 95 84 87 89 85 63 46 38 38 42 39 37 36 34 33 37 40 45 48
46 46 47 47 45 44 42 39 39 39 38 37 35 37 42 54 66 72 93 100 95 92 95 95 91 93 98 95 85 49 43 42 42 42 42 41 38 34 38 44 46 49 47
33 35 38 40 41 44 45 45 43 39 36 38 39 37 37 42 60 69 81 98 92 96 100 99 100 99 100 98 78 51 45 44 46 46 45 42 39 36 46 50 48 47 46
18 20 24 27 30 34 38 40 42 42 40 37 36 39 39 40 44 73 82 97 98 100 98 97 98 98 100 99 71 53 47 49 51 48 46 42 40 44 48 40 32 36 27
7 10 15 17 24 28 30 32 40 44 45 41 39 38 43 43 46 51 94 99 100 99 100 98 100 93 100 89 64 52 51 55 54 50 46 43 46 45 34 18 16 16 17
13 14 23 34 35 36 38 34 35 39 43 50 46 41 48 55 55 68 90 88 89 96 100 97 97 100 93 78 61 56 58 60 56 50 47 45 43 33 22 23 32 34 33

GFSMA_700_rhum_099.txt.gz
RH
91 94 98 98 89 89 58 33 27 27 30 33 38 44 45 44 41 38 32 28 24 22 21 23 24 24 23 23 27 28 27 28 41 43 43 42 39 35 31 28 27 25 23
85 89 97 99 99 100 62 31 31 32 33 36 44 50 50 46 43 39 34 28 24 24 25 25 24 25 26 29 31 30 28 39 44 45 47 47 46 45 44 39 35 31 29
68 87 97 99 99 100 48 34 35 38 35 37 46 53 53 52 47 42 37 33 28 28 26 25 28 26 30 33 33 31 36 44 47 48 50 53 53 52 50 46 42 39 33
70 73 90 98 99 97 72 38 42 42 38 37 50 54 55 54 50 44 40 36 34 32 29 28 30 29 32 36 36 36 41 45 47 49 52 51 52 54 51 48 42 36 33
71 72 63 84 100 100 86 46 43 45 44 41 50 55 55 54 51 46 43 40 38 38 38 38 33 32 33 35 37 39 42 46 49 50 51 54 54 53 53 49 44 33 29
89 86 81 71 83 98 79 54 57 45 47 46 52 55 55 54 52 48 45 45 46 45 44 41 39 39 37 36 36 38 41 43 50 53 54 51 50 55 52 45 44 34 26
86 96 93 93 84 88 92 80 58 52 50 49 54 54 54 53 52 49 48 49 51 52 51 54 53 48 44 42 40 39 39 43 47 52 50 59 70 63 37 33 31 26 23
97 91 94 85 81 90 94 69 49 52 47 50 52 53 54 53 52 50 48 53 54 54 53 56 59 55 52 48 46 43 42 42 46 51 53 64 63 42 30 26 26 26 27
100 96 89 92 90 91 72 66 52 49 44 46 50 53 53 52 51 52 56 62 59 56 58 68 69 68 66 59 53 49 47 46 49 55 63 64 52 41 34 33 31 29 28
99 100 98 99 98 98 61 36 91 45 46 48 52 52 52 52 53 58 63 68 77 69 68 70 77 87 88 81 78 64 56 54 60 66 65 59 51 45 40 35 32 30 28
98 99 99 100 98 95 72 42 81 53 50 54 52 53 54 55 57 63 71 63 88 77 89 86 95 93 93 98 100 86 70 67 64 73 70 58 56 39 32 27 27 28 27
90 98 100 100 100 98 85 49 52 52 54 56 62 64 69 76 80 77 77 79 97 99 97 98 84 81 95 98 99 95 98 86 78 83 66 60 43 33 27 26 25 23 24
98 100 100 99 100 98 97 66 56 61 70 71 83 74 91 88 91 98 97 95 97 91 86 78 80 85 92 94 100 99 99 99 92 78 68 56 35 28 25 23 22 21 22
96 100 100 98 100 100 100 99 89 94 90 94 97 100 99 98 99 99 100 99 100 98 84 80 89 98 100 98 100 100 100 87 79 76 68 46 30 26 24 24 25 25 27
98 100 98 99 97 100 100 100 100 100 99 98 99 100 98 98 100 100 96 99 100 100 88 91 86 100 96 100 100 99 80 80 81 72 57 36 29 26 26 25 26 29 30
99 98 99 100 100 100 100 100 100 100 99 100 100 100 100 100 99 98 100 99 96 97 98 100 96 98 100 100 100 98 89 79 69 58 44 31 27 27 27 27 30 31 30
99 99 99 99 100 100 100 98 100 100 100 100 100 100 99 99 99 99 98 98 100 100 99 100 100 100 100 99 100 98 86 77 65 50 37 32 30 30 29 31 30 28 27
88 100 100 100 100 100 99 98 99 99 99 100 100 100 100 100 99 99 100 99 99 99 100 100 100 99 99 100 99 98 89 80 68 46 35 33 31 31 32 31 30 26 28
43 44 45 50 56 67 82 88 91 95 98 94 98 98 99 99 100 100 100 100 99 96 87 89 93 85 98 100 100 99 90 78 70 46 35 34 33 33 33 32 30 28 28
50 50 46 46 46 45 43 42 43 46 56 74 85 92 90 91 91 90 94 99 100 100 100 99 100 99 97 99 100 97 86 81 72 48 37 36 34 35 34 32 30 29 30
48 47 46 47 46 45 46 45 43 42 41 40 42 44 51 61 74 79 83 91 100 99 100 100 100 100 100 89 80 93 88 78 67 46 38 36 38 38 35 34 32 30 34
34 35 37 39 41 44 47 47 44 44 43 41 40 38 38 40 44 54 62 72 79 86 94 100 100 99 100 94 100 100 98 88 72 47 39 40 41 40 39 36 32 33 39
12 13 14 18 22 27 30 34 39 42 45 44 43 41 40 39 38 42 53 61 72 82 85 90 99 100 100 100 100 99 100 91 72 49 43 43 43 44 40 36 34 38 44
7 6 7 8 10 16 19 21 26 30 33 39 42 44 43 39 41 41 39 46 57 92 84 100 99 100 100 99 99 99 99 85 64 48 46 46 46 44 39 36 39 42 42
3 4 5 6 6 9 16 22 26 29 33 34 35 42 43 44 40 42 46 43 54 69 99 100 96 99 99 97 93 99 89 93 62 50 51 49 47 45 40 41 43 38 27
3 3 4 8 12 19 29 42 49 46 40 39 38 40 44 49 47 42 44 54 61 91 99 99 94 99 97 99 100 98 93 79 58 52 50 50 49 46 43 42 37 24 22

GFSMA_700_rhum_102.txt.gz
RH
81 71 87 83 89 95 82 85 50 33 26 25 26 28 34 41 40 40 36 32 27 24 22 21 23 24 22 22 23 29 29 28 37 43 43 44 46 47 48 47 45 42 37
82 76 71 84 94 94 89 91 43 32 32 29 27 32 38 43 45 43 40 36 30 26 23 26 26 25 24 24 30 32 31 31 40 44 46 46 49 50 48 50 50 47 43
61 79 76 79 88 96 96 93 77 35 36 34 35 34 40 46 48 48 44 39 33 30 28 27 27 27 27 28 35 35 34 36 41 44 44 45 47 49 50 52 51 48 44
66 67 59 66 83 95 87 100 89 41 35 39 40 41 45 53 52 51 48 42 37 34 31 31 29 30 30 31 34 37 38 40 42 44 44 46 50 49 49 49 51 48 46
71 69 68 67 77 88 91 96 98 75 42 45 47 47 49 55 56 54 52 46 42 37 36 38 37 34 32 33 34 36 38 40 41 42 45 49 52 51 51 60 57 43 44
71 64 74 74 85 90 94 100 99 100 78 53 56 53 55 57 57 55 53 49 45 44 43 41 40 42 42 41 38 37 37 41 40 40 46 53 52 51 63 66 46 35 33
68 78 86 93 95 94 88 81 99 100 96 83 67 60 55 55 56 55 54 51 48 46 49 49 48 50 53 52 48 44 42 42 44 42 46 55 54 57 62 46 31 26 24
76 84 88 91 98 97 98 94 91 98 96 80 70 64 60 55 56 54 54 52 49 48 52 53 53 54 57 59 56 53 50 47 47 47 50 57 60 59 58 44 33 31 30
81 92 82 100 97 99 98 99 100 99 100 99 87 60 62 50 59 54 53 53 51 52 57 57 58 60 62 66 67 71 66 56 55 54 60 64 64 60 58 45 40 35 32
70 93 87 98 100 99 99 99 100 98 98 88 66 56 58 56 53 52 54 53 53 56 58 62 72 68 74 79 90 88 91 83 90 82 76 70 68 66 56 46 34 30 25
84 89 91 76 96 98 99 99 100 97 97 99 66 57 58 54 54 55 53 53 56 64 74 73 68 63 82 83 91 85 86 100 99 98 89 80 78 76 53 39 30 25 22
72 84 87 79 73 87 96 100 100 100 99 97 94 97 65 55 55 57 59 58 68 79 80 74 76 82 88 87 95 80 86 96 96 100 100 91 95 76 57 37 26 22 20
81 86 89 91 96 94 99 100 100 100 99 90 80 97 64 61 60 67 74 75 74 87 87 94 98 86 98 97 90 88 96 94 100 100 99 98 85 75 57 32 24 20 22
89 98 92 84 97 100 99 97 100 100 99 96 90 91 65 66 76 91 83 98 98 99 97 93 91 99 99 90 88 88 97 100 100 100 100 84 78 74 48 29 24 25 25
98 98 97 99 95 100 100 99 100 98 100 98 90 66 63 69 83 89 96 99 99 97 95 97 93 88 98 99 96 98 100 100 100 100 88 79 80 61 38 27 26 27 25
100 100 100 100 99 100 100 100 100 100 100 100 99 92 90 98 100 98 99 100 100 100 97 96 96 98 95 99 99 100 100 100 100 98 92 81 66 48 32 27 27 27 27
100 100 99 100 100 100 99 100 100 100 99 100 100 99 98 100 98 99 99 100 99 99 97 97 100 94 100 100 100 100 100 99 99 99 98 70 52 38 31 29 29 27 26
78 90 87 89 97 100 100 100 100 100 99 98 99 100 100 99 98 100 100 99 100 100 100 99 99 100 100 100 100 100 100 99 98 98 96 66 47 36 29 27 30 30 28
56 49 46 46 48 47 48 64 89 98 99 98 100 98 98 99 100 100 100 100 100 99 100 100 100 100 100 100 100 99 100 99 100 97 90 65 44 32 33 28 28 30 29
50 50 51 49 48 49 47 47 47 45 43 51 73 90 92 99 100 100 99 100 99 100 100 100 100 99 100 99 100 100 100 100 100 99 84 66 45 32 30 31 32 32 32
32 32 33 35 37 40 42 43 45 46 46 45 43 43 44 60 87 94 96 94 95 97 100 98 99 99 99 100 99 99 99 100 99 98 85 68 46 32 31 30 32 33 33
11 12 12 12 13 14 17 22 27 34 40 44 44 45 44 43 42 40 44 52 60 70 86 99 99 99 100 99 99 100 100 99 99 98 90 72 51 38 34 35 36 36 34
4 4 4 4 5 5 6 8 10 12 17 26 32 37 42 46 46 42 42 40 40 43 58 98 97 100 95 87 97 97 99 99 99 97 85 75 52 40 39 40 40 38 33
2 2 2 2 2 2 3 3 5 6 8 11 14 22 31 36 43 46 45 42 42 44 46 68 98 88 90 99 100 99 99 99 100 99 92 72 51 44 43 45 43 39 33
3 3 3 3 4 3 3 3 3 3 5 8 12 21 27 31 35 43 48 47 43 41 46 46 56 85 92 83 100 100 96 99 100 98 99 80 53 46 46 47 44 40 36
3 3 3 4 5 6 7 7 6 4 4 4 6 12 25 33 36 38 40 53 51 45 43 52 58 62 68 99 86 99 100 98 99 98 92 78 54 48 50 48 46 41 39

GFSMA_700_rhum_105.txt.gz
RH
83 79 82 80 87 97 96 98 94 80 58 38 28 26 29 35 40 38 34 29 26 23 21 20 20 22 24 23 23 26 30 29 30 40 44 45 47 48 47 45 47 49 47
78 92 88 88 92 98 99 100 94 91 66 35 31 27 28 34 39 42 43 39 33 28 25 23 22 24 24 24 25 30 32 31 34 41 45 46 46 45 47 47 46 46 48
65 72 83 83 76 74 87 95 99 99 84 46 34 31 33 38 42 45 47 46 40 33 30 26 26 26 26 26 27 34 35 34 38 42 43 46 47 46 48 47 45 50 52
79 73 70 64 62 68 73 81 77 99 89 72 37 35 36 37 43 50 51 49 44 39 35 33 32 29 28 29 29 34 37 38 40 42 43 47 61 52 47 45 49 59 60
58 68 66 64 67 64 61 67 72 92 93 99 58 46 45 44 46 55 54 52 50 45 41 37 37 36 34 33 33 34 35 36 39 41 43 51 55 54 49 46 51 60 46
46 54 70 72 65 67 66 68 77 83 91 99 95 62 53 49 51 56 57 55 53 50 46 43 41 39 40 41 42 41 39 38 38 39 41 44 48 53 50 47 49 50 32
59 72 74 63 76 80 76 83 85 92 95 98 100 99 88 64 61 54 58 56 54 53 50 46 46 46 46 48 50 53 52 48 46 44 44 46 49 51 55 53 52 52 33
63 71 74 64 77 79 86 84 89 93 89 86 98 100 97 74 65 62 59 57 59 56 53 50 50 53 55 57 58 60 61 60 56 54 50 50 53 64 66 60 57 50 37
72 59 63 66 73 78 78 94 98 100 97 96 98 99 99 96 72 66 60 56 57 58 59 57 55 57 59 66 73 74 78 82 84 81 62 68 72 76 74 65 64 49 41
65 68 64 67 70 78 83 85 98 97 100 98 99 97 99 98 95 76 58 52 55 59 60 56 56 62 68 77 63 68 81 85 87 87 87 95 95 94 84 74 73 50 36
66 74 72 81 83 85 94 96 94 98 100 100 100 100 100 100 99 92 53 47 55 55 55 56 58 74 75 73 71 77 81 88 90 81 93 95 100 95 86 86 73 51 34
73 73 73 70 71 82 89 89 98 97 99 98 99 100 99 96 91 75 57 54 54 53 59 68 67 67 75 90 77 80 85 88 92 83 93 98 89 95 95 85 70 54 32
77 75 74 82 82 84 90 89 91 91 87 90 97 98 100 99 95 93 69 70 59 56 61 74 74 94 98 97 90 95 97 97 100 90 89 99 99 96 98 81 70 57 28
66 74 84 96 98 87 89 95 100 99 97 100 99 100 100 100 99 98 83 89 79 63 59 74 82 96 99 99 100 99 99 98 100 97 96 100 100 100 98 79 74 48 26
85 100 90 86 87 94 89 99 100 98 100 99 98 100 99 100 99 98 100 100 96 98 84 86 100 100 100 99 100 100 100 98 100 98 99 100 100 100 90 78 68 40 25
100 100 99 99 100 98 100 99 100 98 98 100 100 97 98 100 99 99 99 98 98 86 95 98 98 100 100 100 99 100 99 98 100 100 98 100 100 100 94 79 54 34 27
99 100 100 99 100 100 100 100 100 99 99 99 99 100 100 100 98 100 99 99 95 98 98 98 97 97 100 100 100 99 100 97 98 100 100 100 100 98 92 60 41 30 26
98 89 73 83 96 97 99 100 99 100 98 99 100 99 98 99 100 100 99 100 99 99 100 98 97 98 99 98 98 100 99 100 100 100 100 100 100 98 84 61 37 30 30
79 67 72 56 51 49 49 47 46 57 69 84 97 99 99 100 100 100 100 100 99 100 99 100 100 100 99 98 99 99 100 100 100 100 100 100 99 93 60 45 35 32 28
38 36 36 37 37 39 41 43 45 47 46 44 45 44 50 74 94 99 99 99 100 100 99 100 100 100 100 98 100 100 100 100 100 99 100 99 98 82 70 44 34 32 28
10 10 9 9 9 10 11 13 17 23 31 39 45 46 44 44 43 43 53 82 98 99 100 99 99 100 100 99 98 99 100 100 100 100 100 99 98 92 72 48 36 34 34
4 4 3 3 3 4 4 4 5 6 7 10 14 24 37 45 47 46 44 45 46 52 68 86 98 93 100 99 100 100 100 100 99 100 99 100 99 93 81 52 37 37 36
2 2 2 2 2 2 2 2 2 2 3 3 4 6 9 18 31 40 46 47 45 47 50 52 76 67 89 98 99 99 97 99 99 98 99 99 99 93 83 57 39 37 38
2 2 2 2 2 2 2 2 2 2 3 3 3 3 3 4 8 15 26 36 46 47 47 51 80 60 89 99 92 99 99 99 99 100 100 99 98 98 88 66 43 42 42
3 3 3 3 3 3 3 3 3 2 2 3 4 5 5 4 4 5 9 18 27 38 49 49 48 53 91 88 100 79 87 90 98 99 99 99 99 98 94 62 44 42 45
5 6 7 9 10 11 11 11 10 9 7 6 4 3 4 6 8 7 4 5 14 28 38 46 51 50 55 55 98 99 100 73 98 100 98 99 99 99 92 55 47 44 46

GFSMA_700_rhum_108.txt.gz
RH
84 70 65 70 71 80 80 86 97 97 95 82 50 35 28 28 29 31 31 31 31 30 28 23 20 18 19 22 23 22 24 30 29 32 43 45 46 48 45 43 43 42 42
89 96 84 75 77 87 96 96 95 96 94 96 69 37 32 30 31 34 38 36 34 32 31 30 26 25 24 25 25 24 28 32 31 32 42 45 45 44 44 44 44 43 45
83 84 88 90 90 85 92 96 96 93 89 100 89 44 36 34 34 35 38 44 42 37 32 31 30 27 28 29 31 27 30 34 34 36 41 43 44 44 46 52 45 44 47
92 85 80 77 76 76 79 80 78 86 90 97 95 76 42 42 41 39 39 44 46 47 41 36 34 33 31 30 30 30 32 46 38 38 42 43 42 46 50 47 46 46 50
97 90 68 67 68 65 66 66 66 71 70 84 95 92 91 53 44 43 41 47 52 52 49 46 40 37 36 34 32 33 34 37 36 37 40 41 42 44 45 46 49 50 52
95 79 66 53 53 66 63 63 67 69 71 69 72 100 99 96 83 48 45 44 53 54 53 52 47 43 40 42 40 41 42 40 39 39 39 40 42 44 47 49 56 61 55
98 86 62 56 58 66 60 59 64 69 76 74 88 92 93 98 94 62 69 44 54 57 57 56 53 48 46 44 44 45 46 51 54 52 50 48 47 48 49 52 70 68 61
65 80 76 73 83 70 57 56 70 73 81 82 83 90 93 90 90 94 92 51 60 62 68 60 57 53 49 48 50 53 58 62 65 64 59 62 62 56 57 65 74 71 66
84 76 74 80 68 75 55 68 77 73 86 86 90 97 95 82 84 90 90 95 88 70 64 69 60 57 55 54 57 62 72 72 69 75 80 83 78 73 86 86 83 84 75
82 83 79 75 75 72 57 62 79 79 90 95 92 89 99 99 96 98 100 98 91 82 67 60 60 60 59 62 64 67 72 73 69 79 84 83 82 93 92 86 94 83 84
68 78 79 72 71 67 59 65 76 85 87 90 94 100 100 99 100 99 98 97 99 76 72 66 63 65 63 63 66 72 89 83 100 99 82 84 78 89 83 83 86 95 89
47 57 56 60 59 62 72 78 76 84 89 87 98 100 100 100 98 100 98 94 92 99 73 61 62 62 62 61 67 84 97 86 97 99 85 86 92 97 95 88 99 99 84
59 62 74 81 81 76 76 78 82 82 91 93 91 92 98 99 100 97 100 97 98 96 96 71 58 64 66 76 89 82 93 87 100 98 93 95 97 97 94 95 99 98 91
82 79 83 79 75 72 83 88 89 94 94 89 94 99 98 93 100 100 100 100 100 97 98 77 62 60 67 71 81 95 94 99 100 99 95 100 99 99 94 98 100 99 98
77 77 73 74 81 90 95 93 95 96 92 99 100 98 100 100 99 99 98 100 100 100 100 96 64 63 61 72 86 95 94 100 100 100 98 98 100 100 100 98 100 99 98
99 98 99 97 100 99 98 100 98 100 97 86 99 100 99 98 99 100 100 99 100 100 99 100 98 89 81 80 84 95 98 100 99 98 98 98 99 100 100 99 100 99 90
100 100 100 100 100 99 100 100 100 100 100 99 100 99 99 100 100 100 100 100 99 100 100 97 100 99 100 100 100 98 100 100 99 99 99 98 100 100 100 100 99 100 96
100 99 99 100 99 99 97 90 99 99 100 100 99 99 99 99 99 100 100 98 100 98 100 100 99 100 100 100 93 97 99 98 100 100 100 99 100 100 100 100 100 100 89
94 96 94 83 73 63 60 58 53 56 49 53 71 90 97 99 100 100 100 100 100 100 100 99 98 99 99 100 100 99 100 100 99 99 100 100 100 100 100 100 100 98 68
26 25 24 21 20 18 18 18 22 27 32 38 42 44 43 44 46 49 77 100 99 100 100 99 99 100 99 98 100 99 98 99 100 100 99 100 100 100 100 100 100 87 55
6 6 5 5 4 4 4 4 4 5 7 9 13 19 29 39 43 45 47 46 55 80 96 92 98 100 100 100 99 100 100 99 100 100 100 99 99 99 100 99 90 63 50
3 3 3 3 3 2 2 2 2 2 2 2 3 3 6 9 16 28 41 46 49 49 49 61 76 94 100 100 98 99 100 98 97 97 98 99 100 100 99 99 83 71 51
3 3 3 3 3 3 2 2 2 2 2 2 2 2 3 3 3 5 10 20 32 43 50 52 51 64 88 69 99 100 97 99 99 100 99 99 99 99 100 99 96 84 60
2 2 2 2 2 2 2 2 2 3 3 3 3 3 3 3 3 3 3 3 6 16 30 42 52 54 62 86 82 96 100 99 99 99 99 98 100 96 98 100 98 81 68
3 3 3 3 3 3 3 3 3 4 4 4 4 5 5 5 5 5 4 3 4 3 5 16 32 43 54 58 84 74 96 100 98 99 92 99 99 100 100 99 99 93 79
4 4 4 5 6 9 12 13 13 12 12 11 11 11 10 10 10 8 7 6 5 5 5 5 5 22 36 48 60 76 100 99 100 99 100 100 98 98 99 99 99 99 87

GFSMA_700_rhum_111.txt.gz
RH
81 78 76 69 62 67 73 74 78 85 98 98 100 80 42 35 32 28 26 26 27 26 25 23 20 17 16 17 21 24 23 23 28 30 32 42 45 45 44 43 43 43 42
92 86 84 81 82 81 79 82 80 80 88 93 99 99 62 38 34 32 30 30 31 33 31 27 25 24 22 20 22 25 24 25 30 31 31 41 47 46 45 44 45 44 43
96 93 92 94 93 90 87 88 90 91 84 91 96 98 91 47 39 35 31 30 32 36 37 34 30 27 26 34 30 35 37 27 38 45 53 46 46 46 45 53 51 44 44
94 87 92 98 98 98 96 96 92 96 97 92 88 100 99 88 62 40 38 36 34 31 35 41 39 35 31 28 29 30 33 33 38 57 50 40 42 43 42 44 45 44 47
96 100 92 94 90 85 89 82 82 82 82 84 81 87 82 90 90 85 44 59 40 37 32 35 44 41 36 33 34 32 32 40 46 45 38 38 38 40 41 44 46 47 53
98 100 99 96 97 91 75 72 71 70 69 72 69 70 71 71 87 89 90 83 51 72 38 43 44 45 44 40 38 39 39 40 44 44 38 38 40 42 44 46 48 51 62
83 77 81 94 99 88 71 80 78 74 71 66 68 75 81 83 71 84 98 90 93 86 46 47 51 50 49 48 45 43 43 44 46 50 53 53 52 52 51 53 55 58 68
83 69 73 70 88 90 74 64 79 73 60 74 71 76 86 83 84 78 95 90 88 78 60 51 48 53 51 54 54 51 49 50 51 58 66 66 64 62 68 68 64 80 81
84 69 58 57 71 74 51 71 52 71 71 79 76 83 89 80 85 86 85 86 81 89 91 84 55 58 52 57 63 56 52 54 61 71 76 69 67 76 78 77 83 80 79
73 62 74 85 85 87 85 85 81 65 72 81 86 86 88 98 97 92 94 84 86 82 90 91 65 59 65 61 59 57 55 63 68 80 77 85 83 86 82 82 83 75 81
83 86 85 88 90 88 81 79 79 68 68 83 91 91 85 84 90 97 98 98 92 88 87 96 97 96 72 62 64 65 64 65 68 83 84 82 88 92 88 88 81 88 96
82 86 63 45 58 76 80 76 76 77 74 79 86 91 96 87 82 94 100 98 98 98 99 99 98 98 67 68 66 67 63 62 65 72 74 97 84 87 91 97 96 98 99
49 37 42 51 60 65 70 73 70 68 75 72 75 87 88 89 88 92 92 90 99 91 99 98 99 100 95 65 66 64 62 62 65 75 98 100 93 97 99 97 98 98 98
67 56 53 79 84 77 89 87 85 78 77 81 86 92 90 82 84 83 96 92 97 90 92 98 100 98 97 95 65 62 63 65 81 89 100 95 97 100 99 98 97 98 99
48 39 40 72 79 77 86 87 82 84 86 91 90 93 92 99 87 94 98 100 100 99 99 96 100 99 99 100 83 70 64 66 76 91 88 94 98 99 99 99 98 98 98
73 92 89 79 98 90 87 100 97 92 100 99 98 99 90 91 100 99 99 98 99 100 100 98 99 100 100 100 100 74 73 76 76 82 81 96 99 99 100 98 99 98 99
100 100 100 100 100 100 100 100 99 98 100 94 100 100 100 100 100 99 100 98 100 100 99 100 100 100 100 99 100 97 88 82 77 83 76 95 100 100 99 98 98 99 100
98 94 97 97 98 99 94 98 100 100 100 100 100 100 99 99 100 100 99 99 100 100 100 100 99 98 99 100 100 100 100 99 97 95 100 100 100 100 99 99 99 99 100
95 85 78 82 93 99 94 79 88 76 71 70 56 71 68 64 86 97 99 100 99 100 100 100 100 100 100 99 100 100 100 100 100 100 99 99 99 99 98 100 100 100 100
20 18 20 16 17 16 15 13 12 12 13 14 17 21 26 33 40 45 47 52 84 93 99 100 99 100 100 100 100 99 100 99 100 97 98 98 99 100 99 100 100 100 100
4 3 3 3 3 3 3 3 3 3 3 3 3 3 4 5 8 10 16 27 41 46 48 66 99 99 100 100 100 100 99 99 99 100 98 99 100 99 99 99 100 100 100
4 3 3 3 3 3 2 2 2 2 2 2 2 2 2 2 3 3 3 4 7 13 29 47 49 51 69 69 83 100 99 99 100 98 97 96 98 100 100 99 99 100 100
3 3 3 3 3 3 3 3 3 3 3 3 3 3 3 3 3 2 2 3 3 3 4 8 17 37 49 52 57 73 95 98 99 99 100 98 100 98 98 100 100 100 100
4 4 4 4 4 4 4 3 3 4 4 5 6 6 6 7 7 6 5 4 3 3 3 3 3 4 12 29 50 53 50 74 88 100 100 98 100 100 98 98 100 99 100
4 4 4 4 4 4 4 4 6 8 9 9 9 8 8 7 8 10 9 9 9 8 7 4 3 4 4 5 15 36 55 58 95 83 100 100 100 100 99 99 99 100 100
5 5 5 5 5 7 9 12 14 13 11 9 9 9 9 8 7 7 7 7 7 7 8 8 8 7 4 5 5 10 29 51 62 71 65 99 100 100 100 99 99 99 100

GFSMA_700_rhum_114.txt.gz
RH
66 81 81 81 71 68 61 68 61 68 77 80 96 94 92 76 53 40 38 26 24 26 25 25 23 21 18 16 14 16 21 23 22 25 29 30 40 44 46 44 41 42 43
74 89 92 89 86 76 76 71 77 77 82 87 87 99 98 100 78 64 44 37 27 26 27 27 26 26 24 21 18 17 20 24 24 25 31 31 35 45 45 44 45 50 43
92 88 87 96 84 89 88 85 86 88 86 84 84 84 95 92 99 89 55 47 36 29 26 28 30 30 29 27 31 35 31 32 28 27 36 47 38 45 46 44 43 43 43
99 94 84 97 97 90 87 95 98 97 97 99 96 98 87 96 99 98 97 78 55 39 34 33 34 35 33 33 30 26 27 39 45 39 42 56 53 42 42 41 41 43 45
94 90 87 84 88 83 88 98 98 99 97 98 97 99 98 91 87 90 87 91 89 84 42 36 38 34 38 39 36 33 29 29 33 36 42 49 43 39 38 39 42 45 48
88 84 82 91 74 78 95 81 95 97 97 97 97 94 90 83 77 77 75 87 100 98 60 66 46 59 43 44 45 41 38 35 33 37 42 43 38 37 40 43 46 49 54
96 99 90 80 87 89 98 99 97 92 87 96 94 88 80 75 78 82 84 81 77 89 95 83 66 84 55 50 50 51 47 43 42 45 50 51 48 50 53 53 53 58 63
98 100 90 91 90 81 92 82 82 94 78 77 92 79 75 68 76 80 84 78 80 80 96 97 84 86 67 55 50 54 53 49 45 45 49 54 62 66 63 61 67 71 69
92 68 99 92 73 69 49 82 88 82 78 82 86 85 78 69 71 80 88 88 87 89 87 93 96 87 87 78 52 56 54 59 58 53 58 64 70 78 74 72 71 73 76
80 85 100 84 74 69 54 76 88 84 92 78 83 83 75 73 90 95 87 82 83 83 90 88 87 89 92 87 86 62 59 56 58 59 53 58 76 83 76 70 77 83 80
92 92 99 77 70 55 53 66 77 82 84 86 85 92 79 85 88 96 82 76 83 72 86 85 94 94 96 97 93 74 65 64 68 62 63 67 74 84 87 82 73 83 89
83 98 91 88 80 83 82 84 86 91 87 86 84 85 89 86 83 82 86 81 80 74 91 100 86 92 99 91 93 97 99 88 69 68 69 66 79 86 82 76 81 87 96
99 99 100 95 87 73 34 32 44 55 71 75 77 80 78 82 80 77 82 79 84 78 78 82 85 99 98 99 96 98 100 89 82 74 68 68 78 83 83 72 81 89 100
97 95 79 57 44 41 39 45 54 64 78 83 82 80 77 78 81 97 91 89 92 76 74 73 82 86 90 100 93 99 98 99 88 75 66 67 73 76 79 78 93 96 100
83 74 65 61 56 50 46 48 60 76 83 81 80 95 88 90 92 95 98 92 100 100 97 90 98 87 90 89 100 98 100 100 98 83 79 69 70 84 92 97 98 90 98
77 64 56 48 46 88 81 84 93 94 74 100 84 99 100 94 89 80 89 92 100 100 98 100 94 94 93 100 99 99 99 100 100 98 98 78 71 71 86 87 87 99 100
94 91 88 83 94 94 99 99 99 99 100 98 98 100 94 100 98 100 100 100 100 100 99 98 98 98 99 98 98 100 98 99 100 100 98 94 94 85 82 81 90 100 100
98 96 90 90 88 98 90 90 89 99 98 99 100 100 100 100 100 100 100 100 100 100 100 98 98 100 100 100 99 100 99 99 100 99 100 98 98 95 89 80 91 100 100
91 89 96 81 55 44 49 51 78 92 84 43 46 73 92 97 97 95 82 94 85 96 99 99 99 100 100 100 100 100 100 100 98 100 100 100 98 100 99 96 98 98 99
9 9 9 9 9 8 8 6 6 8 10 5 4 4 5 7 10 15 17 23 33 42 48 54 71 98 100 100 99 100 100 100 99 99 100 99 100 98 100 99 100 99 99
3 3 3 3 3 3 3 3 3 3 3 3 3 3 3 3 3 3 3 3 3 4 8 15 30 46 53 96 99 99 100 100 99 99 98 100 100 100 100 100 100 100 100
4 3 3 3 3 3 3 3 3 3 3 3 3 3 3 3 3 3 3 3 2 2 2 3 3 6 19 43 50 74 99 99 99 100 99 99 99 100 100 98 100 100 100
4 4 4 4 4 4 4 4 4 4 4 4 4 4 5 6 6 6 7 7 5 4 3 3 2 2 3 3 11 34 47 53 66 62 98 98 99 100 99 96 97 100 100
4 4 4 5 5 5 5 5 4 5 7 9 10 11 11 10 10 10 9 9 9 9 9 7 5 4 3 3 3 3 5 21 41 48 67 94 100 100 99 99 100 100 100
5 5 5 5 5 6 6 6 9 12 12 11 9 8 8 7 6 6 6 6 6 7 7 8 8 8 9 7 5 4 3 3 4 13 36 49 56 98 99 100 98 100 98
6 6 6 6 6 6 8 11 13 12 10 8 8 8 10 11 12 9 8 9 8 7 7 8 11 11 9 8 9 9 8 4 4 4 10 21 49 62 85 100 100 100 99

GFSMA_700_rhum_117.txt.gz
RH
53 57 66 67 72 78 79 77 69 57 55 69 76 87 96 93 88 78 74 56 39 28 22 21 22 22 22 20 18 15 14 15 20 21 22 27 31 39 44 46 44 40 46
58 74 68 63 77 86 88 88 81 70 68 68 72 74 74 95 99 96 87 77 63 44 30 25 24 25 25 24 23 20 18 16 18 21 22 26 30 33 44 47 44 42 43
44 51 59 78 91 91 88 88 90 86 82 79 78 82 86 86 91 90 98 88 82 55 39 32 30 30 31 31 28 26 28 34 24 25 24 25 31 33 39 48 46 41 42
41 53 63 76 92 88 73 79 93 95 91 98 96 90 89 92 91 94 99 92 90 88 70 50 35 32 32 34 36 35 31 27 29 44 48 42 48 55 51 46 44 41 42
32 53 63 78 78 87 80 82 82 90 84 92 99 100 100 99 99 99 95 91 94 89 80 71 60 40 34 41 36 41 41 36 31 31 33 34 39 53 50 41 41 40 43
16 38 63 80 80 82 85 90 87 84 84 100 100 98 100 100 99 100 98 94 87 80 80 90 90 89 42 54 43 58 48 47 41 36 35 33 38 47 43 37 38 41 46
47 33 45 71 81 82 85 96 88 80 88 82 83 97 97 96 96 98 96 85 78 82 79 76 82 89 72 59 48 57 58 54 52 46 41 41 40 42 46 40 44 48 51
52 50 45 56 74 80 88 93 100 99 96 99 97 96 98 96 92 90 88 82 79 89 87 84 81 76 85 86 69 62 67 60 60 56 50 47 48 45 50 54 61 59 59
31 57 59 68 70 80 81 97 99 93 77 77 83 84 90 86 86 88 89 81 86 84 82 86 84 83 92 94 91 95 93 79 65 63 58 56 54 53 54 59 70 68 73
23 45 60 92 98 99 93 98 95 72 81 78 86 83 86 94 91 91 91 84 81 94 87 85 87 89 92 88 85 85 88 96 68 70 66 63 64 65 63 70 72 74 64
41 46 54 91 100 100 100 98 98 73 63 80 82 78 88 96 100 98 100 98 95 91 82 76 72 80 88 92 90 88 84 90 87 90 74 71 64 64 69 68 83 86 81
88 81 66 81 83 98 97 98 100 94 70 82 88 90 91 98 98 99 99 95 89 80 86 80 71 65 79 89 91 90 91 93 98 94 89 74 74 73 76 71 90 99 96
89 71 90 90 99 100 99 100 99 92 82 72 72 80 88 90 91 91 91 81 80 77 73 69 81 81 74 78 80 91 92 100 99 100 97 90 88 82 83 78 77 96 98
82 91 70 91 99 99 99 99 86 39 29 36 43 56 63 67 75 75 79 82 78 83 80 67 72 78 84 89 91 93 95 90 99 100 99 96 98 90 90 79 78 85 95
92 96 99 99 98 88 78 57 53 49 44 41 56 80 97 96 93 90 98 99 100 96 96 97 77 81 92 92 90 98 98 93 93 96 100 99 96 95 93 74 74 88 94
84 96 100 90 100 93 64 62 76 71 62 52 72 93 86 100 98 100 97 96 99 100 85 84 84 98 94 99 97 95 96 92 97 100 99 100 100 98 95 96 92 92 96
98 99 99 100 100 96 82 84 96 97 99 97 97 91 99 100 92 100 100 95 98 99 98 97 100 100 99 89 97 98 91 97 98 99 99 100 100 100 99 98 98 99 97
96 96 98 98 97 97 97 94 83 87 89 94 94 87 96 99 99 100 99 92 100 98 98 99 100 99 99 100 94 99 100 100 100 100 99 99 100 98 100 99 99 99 100
15 14 14 24 31 60 81 70 38 27 27 26 39 66 86 50 33 45 82 97 99 99 100 98 98 100 99 99 100 99 99 100 98 97 100 99 99 98 98 100 99 99 99
4 4 4 3 4 3 4 3 3 3 3 4 4 5 7 20 4 3 3 4 5 7 29 52 26 63 42 49 69 94 100 100 100 100 100 100 100 100 99 100 100 100 99
4 4 4 4 4 3 3 3 3 3 3 3 3 3 3 3 3 3 3 3 3 3 3 3 3 3 5 8 16 24 43 97 99 100 100 100 100 99 99 99 99 99 99
4 4 4 4 4 4 4 4 4 4 4 4 4 4 4 4 4 4 4 5 4 4 4 3 3 2 2 2 3 3 7 27 68 98 100 100 99 100 100 99 100 100 100
4 5 5 5 5 5 5 5 5 5 5 5 5 6 8 9 9 9 9 10 10 10 9 7 6 5 4 4 3 3 3 3 7 30 51 87 99 100 100 99 100 99 99
6 6 6 6 6 6 6 6 6 7 8 10 11 11 10 10 9 8 8 7 7 7 7 7 7 6 6 6 7 6 3 2 2 3 5 22 48 68 72 97 99 99 100
7 7 7 7 7 7 7 8 10 13 13 12 9 8 8 8 10 10 9 8 7 8 8 8 8 6 6 6 5 5 6 6 4 3 3 3 3 16 36 46 96 95 99
8 9 8 8 8 8 9 11 12 10 10 11 17 22 25 25 22 20 20 18 14 12 10 9 11 14 16 15 11 8 6 5 5 5 7 5 3 3 4 18 52 97 91